<?xml version="1.0" encoding="UTF-8" standalone="no" ?>
<gpx xmlns="http://www.topografix.com/GPX/1/1" xmlns:xsi="http://www.w3.org/2001/XMLSchema-instance" xsi:schemaLocation="http://www.topografix.com/GPX/1/1 http://www.topografix.com/GPX/1/1/gpx.xsd" version="1.1" creator="VisuGPX - https://www.visugpx.com">
  <metadata>
    <name>160302ROBSebastienHopital</name>
    <desc><![CDATA[excellente sortie]]></desc>
  </metadata>
  <trk>
    <name><![CDATA[160302ROBSebastienHopitalEdge1000]]></name>
    <trkseg>
      <trkpt lat="43.41578" lon="6.07038">
        <ele>208</ele>
        <time>2016-03-02T13:03:37Z</time>
      </trkpt>
      <trkpt lat="43.41578" lon="6.07038">
        <ele>207.80000305176</ele>
        <time>2016-03-02T13:03:38Z</time>
      </trkpt>
      <trkpt lat="43.41577" lon="6.07039">
        <ele>208.19999694824</ele>
        <time>2016-03-02T13:03:41Z</time>
      </trkpt>
      <trkpt lat="43.41577" lon="6.07043">
        <ele>208.39999389648</ele>
        <time>2016-03-02T13:03:45Z</time>
      </trkpt>
      <trkpt lat="43.41578" lon="6.07042">
        <ele>207.80000305176</ele>
        <time>2016-03-02T13:03:48Z</time>
      </trkpt>
      <trkpt lat="43.41578" lon="6.07041">
        <ele>207.80000305176</ele>
        <time>2016-03-02T13:03:52Z</time>
      </trkpt>
      <trkpt lat="43.4158" lon="6.07043">
        <ele>207.80000305176</ele>
        <time>2016-03-02T13:04:09Z</time>
      </trkpt>
      <trkpt lat="43.41581" lon="6.07042">
        <ele>207.60000610352</ele>
        <time>2016-03-02T13:04:13Z</time>
      </trkpt>
      <trkpt lat="43.4158" lon="6.07042">
        <ele>208.60000610352</ele>
        <time>2016-03-02T13:04:20Z</time>
      </trkpt>
      <trkpt lat="43.4158" lon="6.07042">
        <ele>207.39999389648</ele>
        <time>2016-03-02T13:04:26Z</time>
      </trkpt>
      <trkpt lat="43.41582" lon="6.07064">
        <ele>207.19999694824</ele>
        <time>2016-03-02T13:05:06Z</time>
      </trkpt>
      <trkpt lat="43.41583" lon="6.07074">
        <ele>207.39999389648</ele>
        <time>2016-03-02T13:05:08Z</time>
      </trkpt>
      <trkpt lat="43.41583" lon="6.07079">
        <ele>207.39999389648</ele>
        <time>2016-03-02T13:05:09Z</time>
      </trkpt>
      <trkpt lat="43.41559" lon="6.07114">
        <ele>208.19999694824</ele>
        <time>2016-03-02T13:05:22Z</time>
      </trkpt>
      <trkpt lat="43.41555" lon="6.07115">
        <ele>207.80000305176</ele>
        <time>2016-03-02T13:05:23Z</time>
      </trkpt>
      <trkpt lat="43.41546" lon="6.07107">
        <ele>208.80000305176</ele>
        <time>2016-03-02T13:05:26Z</time>
      </trkpt>
      <trkpt lat="43.4153" lon="6.07077">
        <ele>207.60000610352</ele>
        <time>2016-03-02T13:05:35Z</time>
      </trkpt>
      <trkpt lat="43.41517" lon="6.0708">
        <ele>207.19999694824</ele>
        <time>2016-03-02T13:05:38Z</time>
      </trkpt>
      <trkpt lat="43.415" lon="6.07083">
        <ele>206.60000610352</ele>
        <time>2016-03-02T13:05:42Z</time>
      </trkpt>
      <trkpt lat="43.41491" lon="6.0708">
        <ele>206.60000610352</ele>
        <time>2016-03-02T13:05:44Z</time>
      </trkpt>
      <trkpt lat="43.41471" lon="6.07072">
        <ele>205.80000305176</ele>
        <time>2016-03-02T13:05:51Z</time>
      </trkpt>
      <trkpt lat="43.41468" lon="6.07069">
        <ele>205.39999389648</ele>
        <time>2016-03-02T13:05:54Z</time>
      </trkpt>
      <trkpt lat="43.41467" lon="6.07069">
        <ele>205</ele>
        <time>2016-03-02T13:06:02Z</time>
      </trkpt>
      <trkpt lat="43.41467" lon="6.07068">
        <ele>205.39999389648</ele>
        <time>2016-03-02T13:06:09Z</time>
      </trkpt>
      <trkpt lat="43.41465" lon="6.07062">
        <ele>205.19999694824</ele>
        <time>2016-03-02T13:06:14Z</time>
      </trkpt>
      <trkpt lat="43.41472" lon="6.07043">
        <ele>206</ele>
        <time>2016-03-02T13:06:20Z</time>
      </trkpt>
      <trkpt lat="43.4148" lon="6.07028">
        <ele>206.19999694824</ele>
        <time>2016-03-02T13:06:24Z</time>
      </trkpt>
      <trkpt lat="43.41487" lon="6.0701">
        <ele>206</ele>
        <time>2016-03-02T13:06:28Z</time>
      </trkpt>
      <trkpt lat="43.41492" lon="6.06986">
        <ele>206.60000610352</ele>
        <time>2016-03-02T13:06:33Z</time>
      </trkpt>
      <trkpt lat="43.41489" lon="6.0697">
        <ele>207</ele>
        <time>2016-03-02T13:06:36Z</time>
      </trkpt>
      <trkpt lat="43.41483" lon="6.06957">
        <ele>206.80000305176</ele>
        <time>2016-03-02T13:06:39Z</time>
      </trkpt>
      <trkpt lat="43.41475" lon="6.06945">
        <ele>207.80000305176</ele>
        <time>2016-03-02T13:06:42Z</time>
      </trkpt>
      <trkpt lat="43.41466" lon="6.0692">
        <ele>208.19999694824</ele>
        <time>2016-03-02T13:06:49Z</time>
      </trkpt>
      <trkpt lat="43.4147" lon="6.06883">
        <ele>208</ele>
        <time>2016-03-02T13:07:08Z</time>
      </trkpt>
      <trkpt lat="43.4145" lon="6.06862">
        <ele>208.39999389648</ele>
        <time>2016-03-02T13:07:15Z</time>
      </trkpt>
      <trkpt lat="43.41427" lon="6.06858">
        <ele>208.80000305176</ele>
        <time>2016-03-02T13:07:20Z</time>
      </trkpt>
      <trkpt lat="43.41412" lon="6.06857">
        <ele>208.39999389648</ele>
        <time>2016-03-02T13:07:23Z</time>
      </trkpt>
      <trkpt lat="43.4139" lon="6.06839">
        <ele>209</ele>
        <time>2016-03-02T13:07:28Z</time>
      </trkpt>
      <trkpt lat="43.41379" lon="6.0683">
        <ele>209.19999694824</ele>
        <time>2016-03-02T13:07:31Z</time>
      </trkpt>
      <trkpt lat="43.41351" lon="6.06817">
        <ele>209</ele>
        <time>2016-03-02T13:07:38Z</time>
      </trkpt>
      <trkpt lat="43.41338" lon="6.0681">
        <ele>208.80000305176</ele>
        <time>2016-03-02T13:07:41Z</time>
      </trkpt>
      <trkpt lat="43.41325" lon="6.06803">
        <ele>208.80000305176</ele>
        <time>2016-03-02T13:07:44Z</time>
      </trkpt>
      <trkpt lat="43.41307" lon="6.0679">
        <ele>208.19999694824</ele>
        <time>2016-03-02T13:07:48Z</time>
      </trkpt>
      <trkpt lat="43.41299" lon="6.06782">
        <ele>207.80000305176</ele>
        <time>2016-03-02T13:07:50Z</time>
      </trkpt>
      <trkpt lat="43.41288" lon="6.06769">
        <ele>207.39999389648</ele>
        <time>2016-03-02T13:07:53Z</time>
      </trkpt>
      <trkpt lat="43.41277" lon="6.06746">
        <ele>207.39999389648</ele>
        <time>2016-03-02T13:07:57Z</time>
      </trkpt>
      <trkpt lat="43.41273" lon="6.06721">
        <ele>207</ele>
        <time>2016-03-02T13:08:01Z</time>
      </trkpt>
      <trkpt lat="43.41261" lon="6.06684">
        <ele>207.60000610352</ele>
        <time>2016-03-02T13:08:10Z</time>
      </trkpt>
      <trkpt lat="43.41248" lon="6.06687">
        <ele>206.60000610352</ele>
        <time>2016-03-02T13:08:13Z</time>
      </trkpt>
      <trkpt lat="43.41245" lon="6.06691">
        <ele>205.39999389648</ele>
        <time>2016-03-02T13:08:16Z</time>
      </trkpt>
      <trkpt lat="43.41241" lon="6.06692">
        <ele>204.80000305176</ele>
        <time>2016-03-02T13:08:25Z</time>
      </trkpt>
      <trkpt lat="43.41239" lon="6.06699">
        <ele>205</ele>
        <time>2016-03-02T13:08:30Z</time>
      </trkpt>
      <trkpt lat="43.41239" lon="6.067">
        <ele>205</ele>
        <time>2016-03-02T13:08:31Z</time>
      </trkpt>
      <trkpt lat="43.41243" lon="6.06709">
        <ele>205.19999694824</ele>
        <time>2016-03-02T13:08:36Z</time>
      </trkpt>
      <trkpt lat="43.41245" lon="6.06711">
        <ele>205</ele>
        <time>2016-03-02T13:08:39Z</time>
      </trkpt>
      <trkpt lat="43.41243" lon="6.06713">
        <ele>205.19999694824</ele>
        <time>2016-03-02T13:08:43Z</time>
      </trkpt>
      <trkpt lat="43.41236" lon="6.06712">
        <ele>204.39999389648</ele>
        <time>2016-03-02T13:08:45Z</time>
      </trkpt>
      <trkpt lat="43.41225" lon="6.06712">
        <ele>204</ele>
        <time>2016-03-02T13:08:48Z</time>
      </trkpt>
      <trkpt lat="43.41203" lon="6.06714">
        <ele>203.19999694824</ele>
        <time>2016-03-02T13:08:54Z</time>
      </trkpt>
      <trkpt lat="43.41165" lon="6.06712">
        <ele>203.39999389648</ele>
        <time>2016-03-02T13:09:02Z</time>
      </trkpt>
      <trkpt lat="43.41127" lon="6.06723">
        <ele>203.39999389648</ele>
        <time>2016-03-02T13:09:10Z</time>
      </trkpt>
      <trkpt lat="43.41085" lon="6.06746">
        <ele>202.39999389648</ele>
        <time>2016-03-02T13:09:21Z</time>
      </trkpt>
      <trkpt lat="43.41082" lon="6.06752">
        <ele>202.39999389648</ele>
        <time>2016-03-02T13:09:23Z</time>
      </trkpt>
      <trkpt lat="43.41077" lon="6.06771">
        <ele>202.39999389648</ele>
        <time>2016-03-02T13:09:27Z</time>
      </trkpt>
      <trkpt lat="43.41076" lon="6.06784">
        <ele>203.19999694824</ele>
        <time>2016-03-02T13:09:29Z</time>
      </trkpt>
      <trkpt lat="43.41072" lon="6.06799">
        <ele>203.19999694824</ele>
        <time>2016-03-02T13:09:31Z</time>
      </trkpt>
      <trkpt lat="43.41071" lon="6.06807">
        <ele>203.19999694824</ele>
        <time>2016-03-02T13:09:32Z</time>
      </trkpt>
      <trkpt lat="43.41067" lon="6.06823">
        <ele>203</ele>
        <time>2016-03-02T13:09:34Z</time>
      </trkpt>
      <trkpt lat="43.41066" lon="6.06831">
        <ele>203.19999694824</ele>
        <time>2016-03-02T13:09:35Z</time>
      </trkpt>
      <trkpt lat="43.41063" lon="6.06851">
        <ele>202.80000305176</ele>
        <time>2016-03-02T13:09:38Z</time>
      </trkpt>
      <trkpt lat="43.41062" lon="6.06868">
        <ele>203.80000305176</ele>
        <time>2016-03-02T13:09:42Z</time>
      </trkpt>
      <trkpt lat="43.4106" lon="6.06869">
        <ele>204</ele>
        <time>2016-03-02T13:09:43Z</time>
      </trkpt>
      <trkpt lat="43.4105" lon="6.06873">
        <ele>204.39999389648</ele>
        <time>2016-03-02T13:09:47Z</time>
      </trkpt>
      <trkpt lat="43.41034" lon="6.06878">
        <ele>203.60000610352</ele>
        <time>2016-03-02T13:09:51Z</time>
      </trkpt>
      <trkpt lat="43.41025" lon="6.06882">
        <ele>202.80000305176</ele>
        <time>2016-03-02T13:09:53Z</time>
      </trkpt>
      <trkpt lat="43.41017" lon="6.06887">
        <ele>202.80000305176</ele>
        <time>2016-03-02T13:10:06Z</time>
      </trkpt>
      <trkpt lat="43.41017" lon="6.06887">
        <ele>202.80000305176</ele>
        <time>2016-03-02T13:10:16Z</time>
      </trkpt>
      <trkpt lat="43.41017" lon="6.06887">
        <ele>202.80000305176</ele>
        <time>2016-03-02T13:10:19Z</time>
      </trkpt>
      <trkpt lat="43.41017" lon="6.06887">
        <ele>202.60000610352</ele>
        <time>2016-03-02T13:10:24Z</time>
      </trkpt>
      <trkpt lat="43.41016" lon="6.06887">
        <ele>202.60000610352</ele>
        <time>2016-03-02T13:10:33Z</time>
      </trkpt>
      <trkpt lat="43.41016" lon="6.06887">
        <ele>202.80000305176</ele>
        <time>2016-03-02T13:10:34Z</time>
      </trkpt>
      <trkpt lat="43.41016" lon="6.06887">
        <ele>202.39999389648</ele>
        <time>2016-03-02T13:10:41Z</time>
      </trkpt>
      <trkpt lat="43.41016" lon="6.06887">
        <ele>202.60000610352</ele>
        <time>2016-03-02T13:10:43Z</time>
      </trkpt>
      <trkpt lat="43.41006" lon="6.06906">
        <ele>203.19999694824</ele>
        <time>2016-03-02T13:11:11Z</time>
      </trkpt>
      <trkpt lat="43.40988" lon="6.06919">
        <ele>203</ele>
        <time>2016-03-02T13:11:16Z</time>
      </trkpt>
      <trkpt lat="43.40963" lon="6.0693">
        <ele>203.19999694824</ele>
        <time>2016-03-02T13:11:21Z</time>
      </trkpt>
      <trkpt lat="43.40943" lon="6.06938">
        <ele>202.39999389648</ele>
        <time>2016-03-02T13:11:25Z</time>
      </trkpt>
      <trkpt lat="43.40922" lon="6.06945">
        <ele>202.19999694824</ele>
        <time>2016-03-02T13:11:29Z</time>
      </trkpt>
      <trkpt lat="43.40911" lon="6.06949">
        <ele>202.60000610352</ele>
        <time>2016-03-02T13:11:31Z</time>
      </trkpt>
      <trkpt lat="43.40907" lon="6.06953">
        <ele>203</ele>
        <time>2016-03-02T13:11:32Z</time>
      </trkpt>
      <trkpt lat="43.40887" lon="6.0698">
        <ele>202.80000305176</ele>
        <time>2016-03-02T13:11:37Z</time>
      </trkpt>
      <trkpt lat="43.40876" lon="6.06986">
        <ele>202.80000305176</ele>
        <time>2016-03-02T13:11:39Z</time>
      </trkpt>
      <trkpt lat="43.40859" lon="6.06992">
        <ele>203.60000610352</ele>
        <time>2016-03-02T13:11:42Z</time>
      </trkpt>
      <trkpt lat="43.40841" lon="6.07002">
        <ele>202.39999389648</ele>
        <time>2016-03-02T13:11:52Z</time>
      </trkpt>
      <trkpt lat="43.40836" lon="6.07009">
        <ele>203.39999389648</ele>
        <time>2016-03-02T13:12:01Z</time>
      </trkpt>
      <trkpt lat="43.40836" lon="6.07014">
        <ele>203.60000610352</ele>
        <time>2016-03-02T13:12:02Z</time>
      </trkpt>
      <trkpt lat="43.40839" lon="6.0703">
        <ele>203.60000610352</ele>
        <time>2016-03-02T13:12:05Z</time>
      </trkpt>
      <trkpt lat="43.40842" lon="6.07067">
        <ele>203.80000305176</ele>
        <time>2016-03-02T13:12:11Z</time>
      </trkpt>
      <trkpt lat="43.40839" lon="6.07122">
        <ele>203.60000610352</ele>
        <time>2016-03-02T13:12:19Z</time>
      </trkpt>
      <trkpt lat="43.40818" lon="6.07184">
        <ele>202.60000610352</ele>
        <time>2016-03-02T13:12:30Z</time>
      </trkpt>
      <trkpt lat="43.40796" lon="6.07216">
        <ele>203.60000610352</ele>
        <time>2016-03-02T13:12:38Z</time>
      </trkpt>
      <trkpt lat="43.40765" lon="6.07242">
        <ele>203.60000610352</ele>
        <time>2016-03-02T13:12:46Z</time>
      </trkpt>
      <trkpt lat="43.40733" lon="6.07262">
        <ele>204.39999389648</ele>
        <time>2016-03-02T13:12:54Z</time>
      </trkpt>
      <trkpt lat="43.40728" lon="6.07264">
        <ele>204.60000610352</ele>
        <time>2016-03-02T13:12:55Z</time>
      </trkpt>
      <trkpt lat="43.40678" lon="6.07293">
        <ele>205.60000610352</ele>
        <time>2016-03-02T13:13:07Z</time>
      </trkpt>
      <trkpt lat="43.40657" lon="6.07305">
        <ele>206.39999389648</ele>
        <time>2016-03-02T13:13:12Z</time>
      </trkpt>
      <trkpt lat="43.40649" lon="6.07311">
        <ele>206.80000305176</ele>
        <time>2016-03-02T13:13:14Z</time>
      </trkpt>
      <trkpt lat="43.40623" lon="6.07318">
        <ele>208</ele>
        <time>2016-03-02T13:13:21Z</time>
      </trkpt>
      <trkpt lat="43.4061" lon="6.07306">
        <ele>208.39999389648</ele>
        <time>2016-03-02T13:13:26Z</time>
      </trkpt>
      <trkpt lat="43.40608" lon="6.07304">
        <ele>208.60000610352</ele>
        <time>2016-03-02T13:13:32Z</time>
      </trkpt>
      <trkpt lat="43.40608" lon="6.07304">
        <ele>208.80000305176</ele>
        <time>2016-03-02T13:13:39Z</time>
      </trkpt>
      <trkpt lat="43.40608" lon="6.07304">
        <ele>208.80000305176</ele>
        <time>2016-03-02T13:13:45Z</time>
      </trkpt>
      <trkpt lat="43.40608" lon="6.07304">
        <ele>208.39999389648</ele>
        <time>2016-03-02T13:13:51Z</time>
      </trkpt>
      <trkpt lat="43.40608" lon="6.07304">
        <ele>208.60000610352</ele>
        <time>2016-03-02T13:13:56Z</time>
      </trkpt>
      <trkpt lat="43.40608" lon="6.07304">
        <ele>209</ele>
        <time>2016-03-02T13:13:58Z</time>
      </trkpt>
      <trkpt lat="43.40598" lon="6.07292">
        <ele>209.19999694824</ele>
        <time>2016-03-02T13:14:13Z</time>
      </trkpt>
      <trkpt lat="43.40592" lon="6.07287">
        <ele>209.39999389648</ele>
        <time>2016-03-02T13:14:15Z</time>
      </trkpt>
      <trkpt lat="43.40588" lon="6.07288">
        <ele>209.60000610352</ele>
        <time>2016-03-02T13:14:16Z</time>
      </trkpt>
      <trkpt lat="43.40582" lon="6.07293">
        <ele>210</ele>
        <time>2016-03-02T13:14:18Z</time>
      </trkpt>
      <trkpt lat="43.40526" lon="6.0729">
        <ele>211</ele>
        <time>2016-03-02T13:14:34Z</time>
      </trkpt>
      <trkpt lat="43.40498" lon="6.07278">
        <ele>211.60000610352</ele>
        <time>2016-03-02T13:14:41Z</time>
      </trkpt>
      <trkpt lat="43.40474" lon="6.07276">
        <ele>211.80000305176</ele>
        <time>2016-03-02T13:14:47Z</time>
      </trkpt>
      <trkpt lat="43.40459" lon="6.07277">
        <ele>212.19999694824</ele>
        <time>2016-03-02T13:14:51Z</time>
      </trkpt>
      <trkpt lat="43.40456" lon="6.07277">
        <ele>212.39999389648</ele>
        <time>2016-03-02T13:14:52Z</time>
      </trkpt>
      <trkpt lat="43.40433" lon="6.0728">
        <ele>212.80000305176</ele>
        <time>2016-03-02T13:14:58Z</time>
      </trkpt>
      <trkpt lat="43.40422" lon="6.07281">
        <ele>213.60000610352</ele>
        <time>2016-03-02T13:15:01Z</time>
      </trkpt>
      <trkpt lat="43.40399" lon="6.07276">
        <ele>214.60000610352</ele>
        <time>2016-03-02T13:15:08Z</time>
      </trkpt>
      <trkpt lat="43.40384" lon="6.07254">
        <ele>215.60000610352</ele>
        <time>2016-03-02T13:15:16Z</time>
      </trkpt>
      <trkpt lat="43.40374" lon="6.07246">
        <ele>216</ele>
        <time>2016-03-02T13:15:20Z</time>
      </trkpt>
      <trkpt lat="43.40364" lon="6.07243">
        <ele>215.39999389648</ele>
        <time>2016-03-02T13:15:25Z</time>
      </trkpt>
      <trkpt lat="43.40359" lon="6.0724">
        <ele>215.60000610352</ele>
        <time>2016-03-02T13:15:29Z</time>
      </trkpt>
      <trkpt lat="43.40351" lon="6.0723">
        <ele>216.39999389648</ele>
        <time>2016-03-02T13:15:35Z</time>
      </trkpt>
      <trkpt lat="43.4035" lon="6.07229">
        <ele>216.39999389648</ele>
        <time>2016-03-02T13:15:36Z</time>
      </trkpt>
      <trkpt lat="43.4035" lon="6.07228">
        <ele>216.60000610352</ele>
        <time>2016-03-02T13:15:40Z</time>
      </trkpt>
      <trkpt lat="43.40349" lon="6.07227">
        <ele>217</ele>
        <time>2016-03-02T13:15:43Z</time>
      </trkpt>
      <trkpt lat="43.40342" lon="6.07224">
        <ele>217.19999694824</ele>
        <time>2016-03-02T13:15:53Z</time>
      </trkpt>
      <trkpt lat="43.40343" lon="6.07224">
        <ele>217</ele>
        <time>2016-03-02T13:16:04Z</time>
      </trkpt>
      <trkpt lat="43.40343" lon="6.07224">
        <ele>217</ele>
        <time>2016-03-02T13:16:09Z</time>
      </trkpt>
      <trkpt lat="43.40331" lon="6.07219">
        <ele>217.19999694824</ele>
        <time>2016-03-02T13:16:18Z</time>
      </trkpt>
      <trkpt lat="43.40318" lon="6.07214">
        <ele>218</ele>
        <time>2016-03-02T13:16:22Z</time>
      </trkpt>
      <trkpt lat="43.40297" lon="6.07203">
        <ele>219.19999694824</ele>
        <time>2016-03-02T13:16:29Z</time>
      </trkpt>
      <trkpt lat="43.40275" lon="6.07177">
        <ele>219.60000610352</ele>
        <time>2016-03-02T13:16:37Z</time>
      </trkpt>
      <trkpt lat="43.40257" lon="6.07166">
        <ele>219</ele>
        <time>2016-03-02T13:16:42Z</time>
      </trkpt>
      <trkpt lat="43.4024" lon="6.07167">
        <ele>219.19999694824</ele>
        <time>2016-03-02T13:16:46Z</time>
      </trkpt>
      <trkpt lat="43.40229" lon="6.07169">
        <ele>219.60000610352</ele>
        <time>2016-03-02T13:16:49Z</time>
      </trkpt>
      <trkpt lat="43.40222" lon="6.0717">
        <ele>220.19999694824</ele>
        <time>2016-03-02T13:16:51Z</time>
      </trkpt>
      <trkpt lat="43.40209" lon="6.07176">
        <ele>221.39999389648</ele>
        <time>2016-03-02T13:16:55Z</time>
      </trkpt>
      <trkpt lat="43.40199" lon="6.07183">
        <ele>222.39999389648</ele>
        <time>2016-03-02T13:16:59Z</time>
      </trkpt>
      <trkpt lat="43.4019" lon="6.07189">
        <ele>223.80000305176</ele>
        <time>2016-03-02T13:17:03Z</time>
      </trkpt>
      <trkpt lat="43.40181" lon="6.07194">
        <ele>224.80000305176</ele>
        <time>2016-03-02T13:17:07Z</time>
      </trkpt>
      <trkpt lat="43.40171" lon="6.07202">
        <ele>226</ele>
        <time>2016-03-02T13:17:12Z</time>
      </trkpt>
      <trkpt lat="43.40162" lon="6.07211">
        <ele>226.80000305176</ele>
        <time>2016-03-02T13:17:17Z</time>
      </trkpt>
      <trkpt lat="43.4016" lon="6.07213">
        <ele>227.19999694824</ele>
        <time>2016-03-02T13:17:18Z</time>
      </trkpt>
      <trkpt lat="43.40149" lon="6.07222">
        <ele>228.39999389648</ele>
        <time>2016-03-02T13:17:25Z</time>
      </trkpt>
      <trkpt lat="43.40142" lon="6.07231">
        <ele>228.80000305176</ele>
        <time>2016-03-02T13:17:32Z</time>
      </trkpt>
      <trkpt lat="43.40142" lon="6.07234">
        <ele>229.19999694824</ele>
        <time>2016-03-02T13:17:35Z</time>
      </trkpt>
      <trkpt lat="43.40142" lon="6.07238">
        <ele>229.19999694824</ele>
        <time>2016-03-02T13:17:39Z</time>
      </trkpt>
      <trkpt lat="43.40142" lon="6.0724">
        <ele>229.19999694824</ele>
        <time>2016-03-02T13:17:41Z</time>
      </trkpt>
      <trkpt lat="43.40142" lon="6.07243">
        <ele>229</ele>
        <time>2016-03-02T13:17:44Z</time>
      </trkpt>
      <trkpt lat="43.40142" lon="6.07247">
        <ele>229</ele>
        <time>2016-03-02T13:17:47Z</time>
      </trkpt>
      <trkpt lat="43.40143" lon="6.07265">
        <ele>228.80000305176</ele>
        <time>2016-03-02T13:17:52Z</time>
      </trkpt>
      <trkpt lat="43.40143" lon="6.07292">
        <ele>229</ele>
        <time>2016-03-02T13:17:58Z</time>
      </trkpt>
      <trkpt lat="43.40141" lon="6.07318">
        <ele>229.39999389648</ele>
        <time>2016-03-02T13:18:04Z</time>
      </trkpt>
      <trkpt lat="43.40136" lon="6.07353">
        <ele>230.19999694824</ele>
        <time>2016-03-02T13:18:12Z</time>
      </trkpt>
      <trkpt lat="43.40135" lon="6.07387">
        <ele>230.80000305176</ele>
        <time>2016-03-02T13:18:19Z</time>
      </trkpt>
      <trkpt lat="43.40141" lon="6.07462">
        <ele>231.39999389648</ele>
        <time>2016-03-02T13:18:35Z</time>
      </trkpt>
      <trkpt lat="43.40139" lon="6.07483">
        <ele>232</ele>
        <time>2016-03-02T13:18:40Z</time>
      </trkpt>
      <trkpt lat="43.40136" lon="6.07494">
        <ele>232.60000610352</ele>
        <time>2016-03-02T13:18:43Z</time>
      </trkpt>
      <trkpt lat="43.40135" lon="6.07501">
        <ele>232.80000305176</ele>
        <time>2016-03-02T13:18:45Z</time>
      </trkpt>
      <trkpt lat="43.40134" lon="6.07504">
        <ele>233</ele>
        <time>2016-03-02T13:18:46Z</time>
      </trkpt>
      <trkpt lat="43.40132" lon="6.07512">
        <ele>233</ele>
        <time>2016-03-02T13:18:48Z</time>
      </trkpt>
      <trkpt lat="43.40128" lon="6.07523">
        <ele>234</ele>
        <time>2016-03-02T13:18:51Z</time>
      </trkpt>
      <trkpt lat="43.4012" lon="6.07542">
        <ele>235.19999694824</ele>
        <time>2016-03-02T13:18:56Z</time>
      </trkpt>
      <trkpt lat="43.40094" lon="6.07584">
        <ele>235.80000305176</ele>
        <time>2016-03-02T13:19:06Z</time>
      </trkpt>
      <trkpt lat="43.40091" lon="6.07594">
        <ele>236.19999694824</ele>
        <time>2016-03-02T13:19:08Z</time>
      </trkpt>
      <trkpt lat="43.40089" lon="6.07604">
        <ele>236.60000610352</ele>
        <time>2016-03-02T13:19:10Z</time>
      </trkpt>
      <trkpt lat="43.40088" lon="6.0762">
        <ele>237.39999389648</ele>
        <time>2016-03-02T13:19:13Z</time>
      </trkpt>
      <trkpt lat="43.40088" lon="6.07639">
        <ele>238.60000610352</ele>
        <time>2016-03-02T13:19:17Z</time>
      </trkpt>
      <trkpt lat="43.40085" lon="6.07656">
        <ele>239.60000610352</ele>
        <time>2016-03-02T13:19:21Z</time>
      </trkpt>
      <trkpt lat="43.40084" lon="6.0766">
        <ele>239.80000305176</ele>
        <time>2016-03-02T13:19:22Z</time>
      </trkpt>
      <trkpt lat="43.40081" lon="6.07671">
        <ele>241</ele>
        <time>2016-03-02T13:19:25Z</time>
      </trkpt>
      <trkpt lat="43.40076" lon="6.07681">
        <ele>242</ele>
        <time>2016-03-02T13:19:28Z</time>
      </trkpt>
      <trkpt lat="43.40075" lon="6.07684">
        <ele>242.19999694824</ele>
        <time>2016-03-02T13:19:29Z</time>
      </trkpt>
      <trkpt lat="43.40056" lon="6.07711">
        <ele>243.19999694824</ele>
        <time>2016-03-02T13:19:40Z</time>
      </trkpt>
      <trkpt lat="43.40044" lon="6.07726">
        <ele>243</ele>
        <time>2016-03-02T13:19:46Z</time>
      </trkpt>
      <trkpt lat="43.40033" lon="6.07747">
        <ele>243.39999389648</ele>
        <time>2016-03-02T13:19:53Z</time>
      </trkpt>
      <trkpt lat="43.40019" lon="6.07792">
        <ele>244</ele>
        <time>2016-03-02T13:20:05Z</time>
      </trkpt>
      <trkpt lat="43.40015" lon="6.07804">
        <ele>244.19999694824</ele>
        <time>2016-03-02T13:20:08Z</time>
      </trkpt>
      <trkpt lat="43.40002" lon="6.07853">
        <ele>245.39999389648</ele>
        <time>2016-03-02T13:20:20Z</time>
      </trkpt>
      <trkpt lat="43.39998" lon="6.07866">
        <ele>245.39999389648</ele>
        <time>2016-03-02T13:20:23Z</time>
      </trkpt>
      <trkpt lat="43.39987" lon="6.07912">
        <ele>246.39999389648</ele>
        <time>2016-03-02T13:20:34Z</time>
      </trkpt>
      <trkpt lat="43.39982" lon="6.07933">
        <ele>247.60000610352</ele>
        <time>2016-03-02T13:20:40Z</time>
      </trkpt>
      <trkpt lat="43.39978" lon="6.07951">
        <ele>248.80000305176</ele>
        <time>2016-03-02T13:20:46Z</time>
      </trkpt>
      <trkpt lat="43.39974" lon="6.07962">
        <ele>249.60000610352</ele>
        <time>2016-03-02T13:20:52Z</time>
      </trkpt>
      <trkpt lat="43.39973" lon="6.07964">
        <ele>249.80000305176</ele>
        <time>2016-03-02T13:20:53Z</time>
      </trkpt>
      <trkpt lat="43.39972" lon="6.07968">
        <ele>250</ele>
        <time>2016-03-02T13:20:58Z</time>
      </trkpt>
      <trkpt lat="43.39972" lon="6.07968">
        <ele>250.19999694824</ele>
        <time>2016-03-02T13:21:05Z</time>
      </trkpt>
      <trkpt lat="43.39972" lon="6.07968">
        <ele>250.39999389648</ele>
        <time>2016-03-02T13:21:08Z</time>
      </trkpt>
      <trkpt lat="43.39972" lon="6.07968">
        <ele>250.39999389648</ele>
        <time>2016-03-02T13:21:10Z</time>
      </trkpt>
      <trkpt lat="43.39972" lon="6.07968">
        <ele>250.39999389648</ele>
        <time>2016-03-02T13:21:12Z</time>
      </trkpt>
      <trkpt lat="43.39972" lon="6.07968">
        <ele>250.39999389648</ele>
        <time>2016-03-02T13:21:15Z</time>
      </trkpt>
      <trkpt lat="43.39972" lon="6.07968">
        <ele>250.19999694824</ele>
        <time>2016-03-02T13:21:26Z</time>
      </trkpt>
      <trkpt lat="43.39972" lon="6.07968">
        <ele>250.19999694824</ele>
        <time>2016-03-02T13:21:28Z</time>
      </trkpt>
      <trkpt lat="43.39972" lon="6.07969">
        <ele>250</ele>
        <time>2016-03-02T13:21:39Z</time>
      </trkpt>
      <trkpt lat="43.39972" lon="6.07969">
        <ele>250.19999694824</ele>
        <time>2016-03-02T13:21:46Z</time>
      </trkpt>
      <trkpt lat="43.3997" lon="6.07969">
        <ele>249.80000305176</ele>
        <time>2016-03-02T13:21:53Z</time>
      </trkpt>
      <trkpt lat="43.39964" lon="6.07972">
        <ele>249.80000305176</ele>
        <time>2016-03-02T13:21:56Z</time>
      </trkpt>
      <trkpt lat="43.39953" lon="6.07978">
        <ele>251.19999694824</ele>
        <time>2016-03-02T13:22:00Z</time>
      </trkpt>
      <trkpt lat="43.39941" lon="6.07985">
        <ele>252.19999694824</ele>
        <time>2016-03-02T13:22:04Z</time>
      </trkpt>
      <trkpt lat="43.39925" lon="6.07995">
        <ele>252.39999389648</ele>
        <time>2016-03-02T13:22:10Z</time>
      </trkpt>
      <trkpt lat="43.39909" lon="6.08014">
        <ele>251.60000610352</ele>
        <time>2016-03-02T13:22:17Z</time>
      </trkpt>
      <trkpt lat="43.39868" lon="6.08013">
        <ele>250.60000610352</ele>
        <time>2016-03-02T13:22:31Z</time>
      </trkpt>
      <trkpt lat="43.39857" lon="6.08006">
        <ele>249.60000610352</ele>
        <time>2016-03-02T13:22:34Z</time>
      </trkpt>
      <trkpt lat="43.39853" lon="6.08003">
        <ele>249.39999389648</ele>
        <time>2016-03-02T13:22:35Z</time>
      </trkpt>
      <trkpt lat="43.39798" lon="6.07978">
        <ele>249.80000305176</ele>
        <time>2016-03-02T13:22:50Z</time>
      </trkpt>
      <trkpt lat="43.39785" lon="6.07974">
        <ele>250.80000305176</ele>
        <time>2016-03-02T13:22:54Z</time>
      </trkpt>
      <trkpt lat="43.39779" lon="6.07971">
        <ele>251.39999389648</ele>
        <time>2016-03-02T13:22:56Z</time>
      </trkpt>
      <trkpt lat="43.39775" lon="6.07968">
        <ele>251.60000610352</ele>
        <time>2016-03-02T13:22:58Z</time>
      </trkpt>
      <trkpt lat="43.39765" lon="6.07963">
        <ele>252</ele>
        <time>2016-03-02T13:23:01Z</time>
      </trkpt>
      <trkpt lat="43.39754" lon="6.07958">
        <ele>253.39999389648</ele>
        <time>2016-03-02T13:23:04Z</time>
      </trkpt>
      <trkpt lat="43.39748" lon="6.07955">
        <ele>254</ele>
        <time>2016-03-02T13:23:06Z</time>
      </trkpt>
      <trkpt lat="43.39739" lon="6.0795">
        <ele>254.60000610352</ele>
        <time>2016-03-02T13:23:09Z</time>
      </trkpt>
      <trkpt lat="43.39722" lon="6.07933">
        <ele>255.80000305176</ele>
        <time>2016-03-02T13:23:16Z</time>
      </trkpt>
      <trkpt lat="43.39711" lon="6.0792">
        <ele>256.79998779297</ele>
        <time>2016-03-02T13:23:22Z</time>
      </trkpt>
      <trkpt lat="43.39706" lon="6.07914">
        <ele>257.60000610352</ele>
        <time>2016-03-02T13:23:25Z</time>
      </trkpt>
      <trkpt lat="43.39705" lon="6.07912">
        <ele>258.20001220703</ele>
        <time>2016-03-02T13:23:26Z</time>
      </trkpt>
      <trkpt lat="43.397" lon="6.07907">
        <ele>259</ele>
        <time>2016-03-02T13:23:29Z</time>
      </trkpt>
      <trkpt lat="43.39699" lon="6.07906">
        <ele>259.39999389648</ele>
        <time>2016-03-02T13:23:30Z</time>
      </trkpt>
      <trkpt lat="43.39695" lon="6.07901">
        <ele>260</ele>
        <time>2016-03-02T13:23:33Z</time>
      </trkpt>
      <trkpt lat="43.3969" lon="6.07897">
        <ele>260.60000610352</ele>
        <time>2016-03-02T13:23:36Z</time>
      </trkpt>
      <trkpt lat="43.39675" lon="6.07889">
        <ele>261.60000610352</ele>
        <time>2016-03-02T13:23:46Z</time>
      </trkpt>
      <trkpt lat="43.39664" lon="6.07887">
        <ele>262.20001220703</ele>
        <time>2016-03-02T13:23:52Z</time>
      </trkpt>
      <trkpt lat="43.39657" lon="6.07886">
        <ele>262.60000610352</ele>
        <time>2016-03-02T13:23:56Z</time>
      </trkpt>
      <trkpt lat="43.39628" lon="6.07889">
        <ele>263.79998779297</ele>
        <time>2016-03-02T13:24:11Z</time>
      </trkpt>
      <trkpt lat="43.39605" lon="6.07899">
        <ele>265</ele>
        <time>2016-03-02T13:24:24Z</time>
      </trkpt>
      <trkpt lat="43.39597" lon="6.079">
        <ele>266</ele>
        <time>2016-03-02T13:24:29Z</time>
      </trkpt>
      <trkpt lat="43.39593" lon="6.07899">
        <ele>267.20001220703</ele>
        <time>2016-03-02T13:24:32Z</time>
      </trkpt>
      <trkpt lat="43.3959" lon="6.07898">
        <ele>268</ele>
        <time>2016-03-02T13:24:35Z</time>
      </trkpt>
      <trkpt lat="43.39589" lon="6.07898">
        <ele>268.20001220703</ele>
        <time>2016-03-02T13:24:36Z</time>
      </trkpt>
      <trkpt lat="43.39588" lon="6.07898">
        <ele>268.39999389648</ele>
        <time>2016-03-02T13:24:37Z</time>
      </trkpt>
      <trkpt lat="43.39587" lon="6.07899">
        <ele>268.39999389648</ele>
        <time>2016-03-02T13:24:39Z</time>
      </trkpt>
      <trkpt lat="43.39581" lon="6.07903">
        <ele>268.39999389648</ele>
        <time>2016-03-02T13:24:44Z</time>
      </trkpt>
      <trkpt lat="43.39579" lon="6.07907">
        <ele>268.20001220703</ele>
        <time>2016-03-02T13:24:48Z</time>
      </trkpt>
      <trkpt lat="43.39579" lon="6.0791">
        <ele>268.39999389648</ele>
        <time>2016-03-02T13:24:52Z</time>
      </trkpt>
      <trkpt lat="43.39579" lon="6.07913">
        <ele>268.39999389648</ele>
        <time>2016-03-02T13:24:56Z</time>
      </trkpt>
      <trkpt lat="43.39579" lon="6.07914">
        <ele>268.60000610352</ele>
        <time>2016-03-02T13:25:00Z</time>
      </trkpt>
      <trkpt lat="43.39579" lon="6.07914">
        <ele>268.79998779297</ele>
        <time>2016-03-02T13:25:05Z</time>
      </trkpt>
      <trkpt lat="43.39579" lon="6.07914">
        <ele>268.79998779297</ele>
        <time>2016-03-02T13:25:09Z</time>
      </trkpt>
      <trkpt lat="43.39579" lon="6.07914">
        <ele>268.60000610352</ele>
        <time>2016-03-02T13:25:12Z</time>
      </trkpt>
      <trkpt lat="43.39579" lon="6.07914">
        <ele>268.39999389648</ele>
        <time>2016-03-02T13:25:15Z</time>
      </trkpt>
      <trkpt lat="43.39579" lon="6.07914">
        <ele>268.39999389648</ele>
        <time>2016-03-02T13:25:17Z</time>
      </trkpt>
      <trkpt lat="43.39578" lon="6.07916">
        <ele>268.39999389648</ele>
        <time>2016-03-02T13:25:21Z</time>
      </trkpt>
      <trkpt lat="43.39576" lon="6.07923">
        <ele>268.39999389648</ele>
        <time>2016-03-02T13:25:25Z</time>
      </trkpt>
      <trkpt lat="43.39574" lon="6.07925">
        <ele>269</ele>
        <time>2016-03-02T13:25:27Z</time>
      </trkpt>
      <trkpt lat="43.39572" lon="6.07926">
        <ele>269.39999389648</ele>
        <time>2016-03-02T13:25:30Z</time>
      </trkpt>
      <trkpt lat="43.39568" lon="6.07928">
        <ele>270</ele>
        <time>2016-03-02T13:25:33Z</time>
      </trkpt>
      <trkpt lat="43.39568" lon="6.07929">
        <ele>270.20001220703</ele>
        <time>2016-03-02T13:25:34Z</time>
      </trkpt>
      <trkpt lat="43.39565" lon="6.07931">
        <ele>270.60000610352</ele>
        <time>2016-03-02T13:25:37Z</time>
      </trkpt>
      <trkpt lat="43.39561" lon="6.07933">
        <ele>271</ele>
        <time>2016-03-02T13:25:45Z</time>
      </trkpt>
      <trkpt lat="43.39561" lon="6.07933">
        <ele>270.79998779297</ele>
        <time>2016-03-02T13:25:49Z</time>
      </trkpt>
      <trkpt lat="43.39561" lon="6.07933">
        <ele>271</ele>
        <time>2016-03-02T13:25:54Z</time>
      </trkpt>
      <trkpt lat="43.39561" lon="6.07933">
        <ele>271.20001220703</ele>
        <time>2016-03-02T13:25:59Z</time>
      </trkpt>
      <trkpt lat="43.39561" lon="6.07933">
        <ele>271.20001220703</ele>
        <time>2016-03-02T13:26:05Z</time>
      </trkpt>
      <trkpt lat="43.39561" lon="6.07933">
        <ele>271.60000610352</ele>
        <time>2016-03-02T13:26:11Z</time>
      </trkpt>
      <trkpt lat="43.39561" lon="6.07933">
        <ele>271.79998779297</ele>
        <time>2016-03-02T13:26:14Z</time>
      </trkpt>
      <trkpt lat="43.39561" lon="6.07933">
        <ele>271.60000610352</ele>
        <time>2016-03-02T13:26:32Z</time>
      </trkpt>
      <trkpt lat="43.39568" lon="6.07931">
        <ele>270.79998779297</ele>
        <time>2016-03-02T13:26:47Z</time>
      </trkpt>
      <trkpt lat="43.39571" lon="6.07929">
        <ele>269.60000610352</ele>
        <time>2016-03-02T13:26:51Z</time>
      </trkpt>
      <trkpt lat="43.39571" lon="6.07929">
        <ele>269.60000610352</ele>
        <time>2016-03-02T13:27:08Z</time>
      </trkpt>
      <trkpt lat="43.39571" lon="6.07929">
        <ele>269.60000610352</ele>
        <time>2016-03-02T13:27:56Z</time>
      </trkpt>
      <trkpt lat="43.39571" lon="6.07929">
        <ele>270</ele>
        <time>2016-03-02T13:28:30Z</time>
      </trkpt>
      <trkpt lat="43.39571" lon="6.07929">
        <ele>269.79998779297</ele>
        <time>2016-03-02T13:28:59Z</time>
      </trkpt>
      <trkpt lat="43.39571" lon="6.07929">
        <ele>269.39999389648</ele>
        <time>2016-03-02T13:30:16Z</time>
      </trkpt>
      <trkpt lat="43.39571" lon="6.0793">
        <ele>270.39999389648</ele>
        <time>2016-03-02T13:30:38Z</time>
      </trkpt>
      <trkpt lat="43.39571" lon="6.0793">
        <ele>270.39999389648</ele>
        <time>2016-03-02T13:30:56Z</time>
      </trkpt>
      <trkpt lat="43.39569" lon="6.07933">
        <ele>270.39999389648</ele>
        <time>2016-03-02T13:31:25Z</time>
      </trkpt>
      <trkpt lat="43.39569" lon="6.07933">
        <ele>270.60000610352</ele>
        <time>2016-03-02T13:31:28Z</time>
      </trkpt>
      <trkpt lat="43.39567" lon="6.07933">
        <ele>270.60000610352</ele>
        <time>2016-03-02T13:31:32Z</time>
      </trkpt>
      <trkpt lat="43.39564" lon="6.07934">
        <ele>271</ele>
        <time>2016-03-02T13:31:34Z</time>
      </trkpt>
      <trkpt lat="43.3956" lon="6.07936">
        <ele>271.60000610352</ele>
        <time>2016-03-02T13:31:37Z</time>
      </trkpt>
      <trkpt lat="43.39558" lon="6.07937">
        <ele>271.79998779297</ele>
        <time>2016-03-02T13:31:38Z</time>
      </trkpt>
      <trkpt lat="43.39554" lon="6.07939">
        <ele>272.39999389648</ele>
        <time>2016-03-02T13:31:40Z</time>
      </trkpt>
      <trkpt lat="43.39551" lon="6.07942">
        <ele>273</ele>
        <time>2016-03-02T13:31:42Z</time>
      </trkpt>
      <trkpt lat="43.39547" lon="6.07943">
        <ele>273.20001220703</ele>
        <time>2016-03-02T13:31:44Z</time>
      </trkpt>
      <trkpt lat="43.39536" lon="6.07948">
        <ele>274.20001220703</ele>
        <time>2016-03-02T13:31:50Z</time>
      </trkpt>
      <trkpt lat="43.39526" lon="6.07953">
        <ele>275.60000610352</ele>
        <time>2016-03-02T13:31:56Z</time>
      </trkpt>
      <trkpt lat="43.39512" lon="6.07957">
        <ele>276.79998779297</ele>
        <time>2016-03-02T13:32:04Z</time>
      </trkpt>
      <trkpt lat="43.395" lon="6.07964">
        <ele>277.39999389648</ele>
        <time>2016-03-02T13:32:11Z</time>
      </trkpt>
      <trkpt lat="43.39493" lon="6.0797">
        <ele>277.79998779297</ele>
        <time>2016-03-02T13:32:15Z</time>
      </trkpt>
      <trkpt lat="43.39491" lon="6.07973">
        <ele>278.20001220703</ele>
        <time>2016-03-02T13:32:16Z</time>
      </trkpt>
      <trkpt lat="43.39487" lon="6.07978">
        <ele>278.79998779297</ele>
        <time>2016-03-02T13:32:19Z</time>
      </trkpt>
      <trkpt lat="43.39484" lon="6.07978">
        <ele>279.39999389648</ele>
        <time>2016-03-02T13:32:21Z</time>
      </trkpt>
      <trkpt lat="43.39473" lon="6.07982">
        <ele>279.79998779297</ele>
        <time>2016-03-02T13:32:27Z</time>
      </trkpt>
      <trkpt lat="43.39457" lon="6.07983">
        <ele>280.20001220703</ele>
        <time>2016-03-02T13:32:35Z</time>
      </trkpt>
      <trkpt lat="43.39447" lon="6.07983">
        <ele>280</ele>
        <time>2016-03-02T13:32:41Z</time>
      </trkpt>
      <trkpt lat="43.39414" lon="6.07991">
        <ele>280.79998779297</ele>
        <time>2016-03-02T13:32:57Z</time>
      </trkpt>
      <trkpt lat="43.39402" lon="6.07997">
        <ele>282</ele>
        <time>2016-03-02T13:33:04Z</time>
      </trkpt>
      <trkpt lat="43.39394" lon="6.08001">
        <ele>283.39999389648</ele>
        <time>2016-03-02T13:33:09Z</time>
      </trkpt>
      <trkpt lat="43.39391" lon="6.08004">
        <ele>283.60000610352</ele>
        <time>2016-03-02T13:33:11Z</time>
      </trkpt>
      <trkpt lat="43.39391" lon="6.08003">
        <ele>284</ele>
        <time>2016-03-02T13:33:16Z</time>
      </trkpt>
      <trkpt lat="43.3939" lon="6.08003">
        <ele>284.20001220703</ele>
        <time>2016-03-02T13:33:19Z</time>
      </trkpt>
      <trkpt lat="43.3939" lon="6.08003">
        <ele>284.20001220703</ele>
        <time>2016-03-02T13:33:25Z</time>
      </trkpt>
      <trkpt lat="43.39389" lon="6.08003">
        <ele>284.20001220703</ele>
        <time>2016-03-02T13:33:30Z</time>
      </trkpt>
      <trkpt lat="43.39389" lon="6.08003">
        <ele>284.20001220703</ele>
        <time>2016-03-02T13:33:33Z</time>
      </trkpt>
      <trkpt lat="43.39389" lon="6.08003">
        <ele>284</ele>
        <time>2016-03-02T13:33:36Z</time>
      </trkpt>
      <trkpt lat="43.39389" lon="6.08003">
        <ele>283.79998779297</ele>
        <time>2016-03-02T13:33:39Z</time>
      </trkpt>
      <trkpt lat="43.39389" lon="6.08003">
        <ele>283.60000610352</ele>
        <time>2016-03-02T13:33:50Z</time>
      </trkpt>
      <trkpt lat="43.39389" lon="6.08003">
        <ele>283.60000610352</ele>
        <time>2016-03-02T13:33:54Z</time>
      </trkpt>
      <trkpt lat="43.39389" lon="6.08003">
        <ele>283.60000610352</ele>
        <time>2016-03-02T13:33:57Z</time>
      </trkpt>
      <trkpt lat="43.39386" lon="6.08">
        <ele>283.39999389648</ele>
        <time>2016-03-02T13:34:05Z</time>
      </trkpt>
      <trkpt lat="43.39383" lon="6.07999">
        <ele>283.60000610352</ele>
        <time>2016-03-02T13:34:07Z</time>
      </trkpt>
      <trkpt lat="43.39376" lon="6.07988">
        <ele>284.60000610352</ele>
        <time>2016-03-02T13:34:13Z</time>
      </trkpt>
      <trkpt lat="43.39375" lon="6.07982">
        <ele>285.39999389648</ele>
        <time>2016-03-02T13:34:16Z</time>
      </trkpt>
      <trkpt lat="43.39374" lon="6.07979">
        <ele>285.60000610352</ele>
        <time>2016-03-02T13:34:18Z</time>
      </trkpt>
      <trkpt lat="43.39374" lon="6.07976">
        <ele>286.20001220703</ele>
        <time>2016-03-02T13:34:20Z</time>
      </trkpt>
      <trkpt lat="43.39373" lon="6.07974">
        <ele>286.20001220703</ele>
        <time>2016-03-02T13:34:21Z</time>
      </trkpt>
      <trkpt lat="43.39371" lon="6.07971">
        <ele>286.60000610352</ele>
        <time>2016-03-02T13:34:23Z</time>
      </trkpt>
      <trkpt lat="43.39368" lon="6.07971">
        <ele>286.60000610352</ele>
        <time>2016-03-02T13:34:25Z</time>
      </trkpt>
      <trkpt lat="43.39367" lon="6.07972">
        <ele>287</ele>
        <time>2016-03-02T13:34:26Z</time>
      </trkpt>
      <trkpt lat="43.39365" lon="6.07977">
        <ele>287.60000610352</ele>
        <time>2016-03-02T13:34:29Z</time>
      </trkpt>
      <trkpt lat="43.39364" lon="6.07981">
        <ele>288</ele>
        <time>2016-03-02T13:34:33Z</time>
      </trkpt>
      <trkpt lat="43.39363" lon="6.07981">
        <ele>288</ele>
        <time>2016-03-02T13:34:37Z</time>
      </trkpt>
      <trkpt lat="43.39363" lon="6.07981">
        <ele>288.20001220703</ele>
        <time>2016-03-02T13:34:40Z</time>
      </trkpt>
      <trkpt lat="43.39363" lon="6.07981">
        <ele>288.39999389648</ele>
        <time>2016-03-02T13:34:43Z</time>
      </trkpt>
      <trkpt lat="43.39363" lon="6.07981">
        <ele>288.39999389648</ele>
        <time>2016-03-02T13:34:47Z</time>
      </trkpt>
      <trkpt lat="43.39363" lon="6.07981">
        <ele>288.79998779297</ele>
        <time>2016-03-02T13:34:59Z</time>
      </trkpt>
      <trkpt lat="43.39363" lon="6.07981">
        <ele>288.20001220703</ele>
        <time>2016-03-02T13:35:06Z</time>
      </trkpt>
      <trkpt lat="43.39363" lon="6.07981">
        <ele>288.20001220703</ele>
        <time>2016-03-02T13:35:11Z</time>
      </trkpt>
      <trkpt lat="43.39363" lon="6.07981">
        <ele>288.60000610352</ele>
        <time>2016-03-02T13:35:14Z</time>
      </trkpt>
      <trkpt lat="43.39364" lon="6.07979">
        <ele>288.79998779297</ele>
        <time>2016-03-02T13:35:24Z</time>
      </trkpt>
      <trkpt lat="43.39364" lon="6.07979">
        <ele>288.79998779297</ele>
        <time>2016-03-02T13:35:28Z</time>
      </trkpt>
      <trkpt lat="43.39369" lon="6.07971">
        <ele>287.39999389648</ele>
        <time>2016-03-02T13:35:47Z</time>
      </trkpt>
      <trkpt lat="43.39369" lon="6.07971">
        <ele>287.39999389648</ele>
        <time>2016-03-02T13:36:07Z</time>
      </trkpt>
      <trkpt lat="43.39375" lon="6.07967">
        <ele>287.60000610352</ele>
        <time>2016-03-02T13:36:15Z</time>
      </trkpt>
      <trkpt lat="43.39389" lon="6.07966">
        <ele>287.20001220703</ele>
        <time>2016-03-02T13:36:23Z</time>
      </trkpt>
      <trkpt lat="43.39399" lon="6.07967">
        <ele>286</ele>
        <time>2016-03-02T13:36:26Z</time>
      </trkpt>
      <trkpt lat="43.39404" lon="6.07966">
        <ele>285.39999389648</ele>
        <time>2016-03-02T13:36:27Z</time>
      </trkpt>
      <trkpt lat="43.39408" lon="6.07965">
        <ele>284.79998779297</ele>
        <time>2016-03-02T13:36:28Z</time>
      </trkpt>
      <trkpt lat="43.39422" lon="6.0796">
        <ele>284.20001220703</ele>
        <time>2016-03-02T13:36:31Z</time>
      </trkpt>
      <trkpt lat="43.39426" lon="6.07952">
        <ele>283.79998779297</ele>
        <time>2016-03-02T13:36:33Z</time>
      </trkpt>
      <trkpt lat="43.39429" lon="6.07944">
        <ele>283.20001220703</ele>
        <time>2016-03-02T13:36:36Z</time>
      </trkpt>
      <trkpt lat="43.39431" lon="6.07943">
        <ele>282.79998779297</ele>
        <time>2016-03-02T13:36:38Z</time>
      </trkpt>
      <trkpt lat="43.39432" lon="6.07943">
        <ele>282.60000610352</ele>
        <time>2016-03-02T13:36:39Z</time>
      </trkpt>
      <trkpt lat="43.39434" lon="6.0795">
        <ele>281.60000610352</ele>
        <time>2016-03-02T13:36:44Z</time>
      </trkpt>
      <trkpt lat="43.39438" lon="6.07947">
        <ele>281.79998779297</ele>
        <time>2016-03-02T13:36:53Z</time>
      </trkpt>
      <trkpt lat="43.39438" lon="6.07946">
        <ele>281.60000610352</ele>
        <time>2016-03-02T13:36:59Z</time>
      </trkpt>
      <trkpt lat="43.39438" lon="6.07946">
        <ele>281.79998779297</ele>
        <time>2016-03-02T13:37:42Z</time>
      </trkpt>
      <trkpt lat="43.39439" lon="6.0794">
        <ele>282</ele>
        <time>2016-03-02T13:37:46Z</time>
      </trkpt>
      <trkpt lat="43.39443" lon="6.07929">
        <ele>282</ele>
        <time>2016-03-02T13:37:51Z</time>
      </trkpt>
      <trkpt lat="43.39452" lon="6.07938">
        <ele>280.60000610352</ele>
        <time>2016-03-02T13:37:56Z</time>
      </trkpt>
      <trkpt lat="43.39452" lon="6.07945">
        <ele>279.20001220703</ele>
        <time>2016-03-02T13:37:58Z</time>
      </trkpt>
      <trkpt lat="43.3945" lon="6.07954">
        <ele>279.20001220703</ele>
        <time>2016-03-02T13:38:01Z</time>
      </trkpt>
      <trkpt lat="43.3945" lon="6.0796">
        <ele>279.60000610352</ele>
        <time>2016-03-02T13:38:04Z</time>
      </trkpt>
      <trkpt lat="43.39446" lon="6.07964">
        <ele>280</ele>
        <time>2016-03-02T13:38:09Z</time>
      </trkpt>
      <trkpt lat="43.39445" lon="6.07964">
        <ele>280.20001220703</ele>
        <time>2016-03-02T13:38:10Z</time>
      </trkpt>
      <trkpt lat="43.39446" lon="6.07968">
        <ele>280</ele>
        <time>2016-03-02T13:38:14Z</time>
      </trkpt>
      <trkpt lat="43.39448" lon="6.07965">
        <ele>279.60000610352</ele>
        <time>2016-03-02T13:38:21Z</time>
      </trkpt>
      <trkpt lat="43.39447" lon="6.07965">
        <ele>279.79998779297</ele>
        <time>2016-03-02T13:38:22Z</time>
      </trkpt>
      <trkpt lat="43.39446" lon="6.07965">
        <ele>280.20001220703</ele>
        <time>2016-03-02T13:38:39Z</time>
      </trkpt>
      <trkpt lat="43.39446" lon="6.07965">
        <ele>280.79998779297</ele>
        <time>2016-03-02T13:38:53Z</time>
      </trkpt>
      <trkpt lat="43.39447" lon="6.07963">
        <ele>281</ele>
        <time>2016-03-02T13:38:57Z</time>
      </trkpt>
      <trkpt lat="43.39452" lon="6.07959">
        <ele>281</ele>
        <time>2016-03-02T13:39:00Z</time>
      </trkpt>
      <trkpt lat="43.39445" lon="6.07965">
        <ele>281.20001220703</ele>
        <time>2016-03-02T13:39:05Z</time>
      </trkpt>
      <trkpt lat="43.39444" lon="6.07964">
        <ele>281.39999389648</ele>
        <time>2016-03-02T13:39:06Z</time>
      </trkpt>
      <trkpt lat="43.39439" lon="6.07963">
        <ele>281.39999389648</ele>
        <time>2016-03-02T13:39:08Z</time>
      </trkpt>
      <trkpt lat="43.3944" lon="6.07964">
        <ele>280.79998779297</ele>
        <time>2016-03-02T13:39:11Z</time>
      </trkpt>
      <trkpt lat="43.39441" lon="6.07965">
        <ele>281.20001220703</ele>
        <time>2016-03-02T13:39:13Z</time>
      </trkpt>
      <trkpt lat="43.39445" lon="6.07966">
        <ele>281.79998779297</ele>
        <time>2016-03-02T13:39:22Z</time>
      </trkpt>
      <trkpt lat="43.39455" lon="6.07962">
        <ele>281.39999389648</ele>
        <time>2016-03-02T13:39:28Z</time>
      </trkpt>
      <trkpt lat="43.39477" lon="6.07955">
        <ele>280.60000610352</ele>
        <time>2016-03-02T13:39:38Z</time>
      </trkpt>
      <trkpt lat="43.39482" lon="6.0796">
        <ele>280</ele>
        <time>2016-03-02T13:39:44Z</time>
      </trkpt>
      <trkpt lat="43.39482" lon="6.0796">
        <ele>279.60000610352</ele>
        <time>2016-03-02T13:39:50Z</time>
      </trkpt>
      <trkpt lat="43.39482" lon="6.0796">
        <ele>279.39999389648</ele>
        <time>2016-03-02T13:39:52Z</time>
      </trkpt>
      <trkpt lat="43.3947" lon="6.07962">
        <ele>279.79998779297</ele>
        <time>2016-03-02T13:40:10Z</time>
      </trkpt>
      <trkpt lat="43.39462" lon="6.07964">
        <ele>280.20001220703</ele>
        <time>2016-03-02T13:40:14Z</time>
      </trkpt>
      <trkpt lat="43.39458" lon="6.07965">
        <ele>280.60000610352</ele>
        <time>2016-03-02T13:40:16Z</time>
      </trkpt>
      <trkpt lat="43.39452" lon="6.07967">
        <ele>280.79998779297</ele>
        <time>2016-03-02T13:40:19Z</time>
      </trkpt>
      <trkpt lat="43.39441" lon="6.07972">
        <ele>281.60000610352</ele>
        <time>2016-03-02T13:40:23Z</time>
      </trkpt>
      <trkpt lat="43.39438" lon="6.07974">
        <ele>281.79998779297</ele>
        <time>2016-03-02T13:40:24Z</time>
      </trkpt>
      <trkpt lat="43.39429" lon="6.07976">
        <ele>282.79998779297</ele>
        <time>2016-03-02T13:40:28Z</time>
      </trkpt>
      <trkpt lat="43.39418" lon="6.07978">
        <ele>283.60000610352</ele>
        <time>2016-03-02T13:40:32Z</time>
      </trkpt>
      <trkpt lat="43.39407" lon="6.07979">
        <ele>284</ele>
        <time>2016-03-02T13:40:36Z</time>
      </trkpt>
      <trkpt lat="43.394" lon="6.07969">
        <ele>285.39999389648</ele>
        <time>2016-03-02T13:40:41Z</time>
      </trkpt>
      <trkpt lat="43.39404" lon="6.07966">
        <ele>286.20001220703</ele>
        <time>2016-03-02T13:40:45Z</time>
      </trkpt>
      <trkpt lat="43.39409" lon="6.07964">
        <ele>285.60000610352</ele>
        <time>2016-03-02T13:40:59Z</time>
      </trkpt>
      <trkpt lat="43.39409" lon="6.07964">
        <ele>285.39999389648</ele>
        <time>2016-03-02T13:41:03Z</time>
      </trkpt>
      <trkpt lat="43.39411" lon="6.07964">
        <ele>285.39999389648</ele>
        <time>2016-03-02T13:41:17Z</time>
      </trkpt>
      <trkpt lat="43.39426" lon="6.07957">
        <ele>285.60000610352</ele>
        <time>2016-03-02T13:41:25Z</time>
      </trkpt>
      <trkpt lat="43.39434" lon="6.07943">
        <ele>286</ele>
        <time>2016-03-02T13:41:32Z</time>
      </trkpt>
      <trkpt lat="43.39437" lon="6.07949">
        <ele>284.39999389648</ele>
        <time>2016-03-02T13:41:36Z</time>
      </trkpt>
      <trkpt lat="43.39442" lon="6.0794">
        <ele>283.39999389648</ele>
        <time>2016-03-02T13:41:40Z</time>
      </trkpt>
      <trkpt lat="43.39449" lon="6.07935">
        <ele>283.20001220703</ele>
        <time>2016-03-02T13:41:46Z</time>
      </trkpt>
      <trkpt lat="43.39452" lon="6.07956">
        <ele>282.39999389648</ele>
        <time>2016-03-02T13:41:50Z</time>
      </trkpt>
      <trkpt lat="43.39451" lon="6.07961">
        <ele>282</ele>
        <time>2016-03-02T13:41:51Z</time>
      </trkpt>
      <trkpt lat="43.39443" lon="6.07969">
        <ele>281.79998779297</ele>
        <time>2016-03-02T13:41:56Z</time>
      </trkpt>
      <trkpt lat="43.39438" lon="6.07972">
        <ele>281.60000610352</ele>
        <time>2016-03-02T13:41:59Z</time>
      </trkpt>
      <trkpt lat="43.39429" lon="6.07976">
        <ele>282.79998779297</ele>
        <time>2016-03-02T13:42:04Z</time>
      </trkpt>
      <trkpt lat="43.39425" lon="6.07975">
        <ele>283.39999389648</ele>
        <time>2016-03-02T13:42:07Z</time>
      </trkpt>
      <trkpt lat="43.39418" lon="6.0797">
        <ele>284.20001220703</ele>
        <time>2016-03-02T13:42:11Z</time>
      </trkpt>
      <trkpt lat="43.39417" lon="6.07971">
        <ele>284.39999389648</ele>
        <time>2016-03-02T13:42:12Z</time>
      </trkpt>
      <trkpt lat="43.394" lon="6.07974">
        <ele>285.60000610352</ele>
        <time>2016-03-02T13:42:22Z</time>
      </trkpt>
      <trkpt lat="43.39397" lon="6.07972">
        <ele>286.39999389648</ele>
        <time>2016-03-02T13:42:25Z</time>
      </trkpt>
      <trkpt lat="43.39398" lon="6.07968">
        <ele>286.60000610352</ele>
        <time>2016-03-02T13:42:29Z</time>
      </trkpt>
      <trkpt lat="43.39405" lon="6.07967">
        <ele>286.60000610352</ele>
        <time>2016-03-02T13:42:35Z</time>
      </trkpt>
      <trkpt lat="43.39413" lon="6.07964">
        <ele>286</ele>
        <time>2016-03-02T13:42:39Z</time>
      </trkpt>
      <trkpt lat="43.39434" lon="6.07942">
        <ele>285.79998779297</ele>
        <time>2016-03-02T13:42:51Z</time>
      </trkpt>
      <trkpt lat="43.39434" lon="6.07946">
        <ele>285.20001220703</ele>
        <time>2016-03-02T13:42:58Z</time>
      </trkpt>
      <trkpt lat="43.39437" lon="6.07948">
        <ele>284.60000610352</ele>
        <time>2016-03-02T13:43:00Z</time>
      </trkpt>
      <trkpt lat="43.39443" lon="6.07933">
        <ele>284.39999389648</ele>
        <time>2016-03-02T13:43:08Z</time>
      </trkpt>
      <trkpt lat="43.39445" lon="6.07928">
        <ele>284</ele>
        <time>2016-03-02T13:43:10Z</time>
      </trkpt>
      <trkpt lat="43.39448" lon="6.0793">
        <ele>283.20001220703</ele>
        <time>2016-03-02T13:43:12Z</time>
      </trkpt>
      <trkpt lat="43.3945" lon="6.07936">
        <ele>282.20001220703</ele>
        <time>2016-03-02T13:43:14Z</time>
      </trkpt>
      <trkpt lat="43.39452" lon="6.07933">
        <ele>281.79998779297</ele>
        <time>2016-03-02T13:43:26Z</time>
      </trkpt>
      <trkpt lat="43.39452" lon="6.07933">
        <ele>282</ele>
        <time>2016-03-02T13:43:30Z</time>
      </trkpt>
      <trkpt lat="43.39452" lon="6.07932">
        <ele>282.20001220703</ele>
        <time>2016-03-02T13:43:36Z</time>
      </trkpt>
      <trkpt lat="43.39452" lon="6.07932">
        <ele>282.60000610352</ele>
        <time>2016-03-02T13:43:40Z</time>
      </trkpt>
      <trkpt lat="43.39463" lon="6.07892">
        <ele>283.20001220703</ele>
        <time>2016-03-02T13:44:06Z</time>
      </trkpt>
      <trkpt lat="43.39462" lon="6.07892">
        <ele>283.60000610352</ele>
        <time>2016-03-02T13:44:07Z</time>
      </trkpt>
      <trkpt lat="43.3946" lon="6.07892">
        <ele>284.20001220703</ele>
        <time>2016-03-02T13:44:23Z</time>
      </trkpt>
      <trkpt lat="43.3946" lon="6.07892">
        <ele>284.20001220703</ele>
        <time>2016-03-02T13:44:34Z</time>
      </trkpt>
      <trkpt lat="43.3946" lon="6.07892">
        <ele>284.20001220703</ele>
        <time>2016-03-02T13:44:44Z</time>
      </trkpt>
      <trkpt lat="43.3946" lon="6.07892">
        <ele>284.20001220703</ele>
        <time>2016-03-02T13:45:10Z</time>
      </trkpt>
      <trkpt lat="43.39458" lon="6.07893">
        <ele>283.79998779297</ele>
        <time>2016-03-02T13:45:32Z</time>
      </trkpt>
      <trkpt lat="43.39455" lon="6.07892">
        <ele>283.79998779297</ele>
        <time>2016-03-02T13:45:34Z</time>
      </trkpt>
      <trkpt lat="43.39462" lon="6.07888">
        <ele>283.79998779297</ele>
        <time>2016-03-02T13:45:43Z</time>
      </trkpt>
      <trkpt lat="43.39455" lon="6.07893">
        <ele>284.20001220703</ele>
        <time>2016-03-02T13:45:51Z</time>
      </trkpt>
      <trkpt lat="43.39454" lon="6.07895">
        <ele>284.39999389648</ele>
        <time>2016-03-02T13:45:52Z</time>
      </trkpt>
      <trkpt lat="43.39452" lon="6.07896">
        <ele>284.79998779297</ele>
        <time>2016-03-02T13:45:53Z</time>
      </trkpt>
      <trkpt lat="43.3945" lon="6.07896">
        <ele>285.39999389648</ele>
        <time>2016-03-02T13:45:54Z</time>
      </trkpt>
      <trkpt lat="43.3945" lon="6.07896">
        <ele>286</ele>
        <time>2016-03-02T13:45:55Z</time>
      </trkpt>
      <trkpt lat="43.39449" lon="6.07897">
        <ele>286.20001220703</ele>
        <time>2016-03-02T13:45:56Z</time>
      </trkpt>
      <trkpt lat="43.39448" lon="6.07897">
        <ele>286.39999389648</ele>
        <time>2016-03-02T13:45:57Z</time>
      </trkpt>
      <trkpt lat="43.39447" lon="6.07896">
        <ele>286.39999389648</ele>
        <time>2016-03-02T13:45:58Z</time>
      </trkpt>
      <trkpt lat="43.39445" lon="6.07896">
        <ele>287.20001220703</ele>
        <time>2016-03-02T13:46:00Z</time>
      </trkpt>
      <trkpt lat="43.39444" lon="6.07897">
        <ele>287.39999389648</ele>
        <time>2016-03-02T13:46:01Z</time>
      </trkpt>
      <trkpt lat="43.39444" lon="6.07897">
        <ele>287.60000610352</ele>
        <time>2016-03-02T13:46:05Z</time>
      </trkpt>
      <trkpt lat="43.39444" lon="6.07897">
        <ele>288.39999389648</ele>
        <time>2016-03-02T13:46:08Z</time>
      </trkpt>
      <trkpt lat="43.39444" lon="6.07899">
        <ele>288.20001220703</ele>
        <time>2016-03-02T13:46:15Z</time>
      </trkpt>
      <trkpt lat="43.39444" lon="6.07899">
        <ele>288.39999389648</ele>
        <time>2016-03-02T13:46:19Z</time>
      </trkpt>
      <trkpt lat="43.39444" lon="6.07899">
        <ele>288.20001220703</ele>
        <time>2016-03-02T13:46:25Z</time>
      </trkpt>
      <trkpt lat="43.39444" lon="6.07899">
        <ele>288.39999389648</ele>
        <time>2016-03-02T13:46:36Z</time>
      </trkpt>
      <trkpt lat="43.39444" lon="6.07899">
        <ele>288.20001220703</ele>
        <time>2016-03-02T13:46:43Z</time>
      </trkpt>
      <trkpt lat="43.39444" lon="6.07899">
        <ele>287.79998779297</ele>
        <time>2016-03-02T13:46:47Z</time>
      </trkpt>
      <trkpt lat="43.39444" lon="6.07899">
        <ele>287.60000610352</ele>
        <time>2016-03-02T13:46:50Z</time>
      </trkpt>
      <trkpt lat="43.39444" lon="6.07899">
        <ele>287.39999389648</ele>
        <time>2016-03-02T13:46:52Z</time>
      </trkpt>
      <trkpt lat="43.39444" lon="6.07899">
        <ele>288</ele>
        <time>2016-03-02T13:47:03Z</time>
      </trkpt>
      <trkpt lat="43.39444" lon="6.079">
        <ele>287.20001220703</ele>
        <time>2016-03-02T13:47:11Z</time>
      </trkpt>
      <trkpt lat="43.39443" lon="6.07903">
        <ele>287.39999389648</ele>
        <time>2016-03-02T13:47:13Z</time>
      </trkpt>
      <trkpt lat="43.39442" lon="6.07913">
        <ele>286.79998779297</ele>
        <time>2016-03-02T13:47:18Z</time>
      </trkpt>
      <trkpt lat="43.39439" lon="6.07925">
        <ele>286.79998779297</ele>
        <time>2016-03-02T13:47:23Z</time>
      </trkpt>
      <trkpt lat="43.39438" lon="6.07926">
        <ele>286.60000610352</ele>
        <time>2016-03-02T13:47:24Z</time>
      </trkpt>
      <trkpt lat="43.39436" lon="6.07931">
        <ele>286.39999389648</ele>
        <time>2016-03-02T13:47:27Z</time>
      </trkpt>
      <trkpt lat="43.39432" lon="6.07938">
        <ele>286.39999389648</ele>
        <time>2016-03-02T13:47:38Z</time>
      </trkpt>
      <trkpt lat="43.3943" lon="6.07943">
        <ele>287.20001220703</ele>
        <time>2016-03-02T13:47:42Z</time>
      </trkpt>
      <trkpt lat="43.39427" lon="6.07951">
        <ele>287</ele>
        <time>2016-03-02T13:47:47Z</time>
      </trkpt>
      <trkpt lat="43.39412" lon="6.07961">
        <ele>286.79998779297</ele>
        <time>2016-03-02T13:47:58Z</time>
      </trkpt>
      <trkpt lat="43.39405" lon="6.07962">
        <ele>287.20001220703</ele>
        <time>2016-03-02T13:48:01Z</time>
      </trkpt>
      <trkpt lat="43.39396" lon="6.07961">
        <ele>287.79998779297</ele>
        <time>2016-03-02T13:48:05Z</time>
      </trkpt>
      <trkpt lat="43.39394" lon="6.07961">
        <ele>288.20001220703</ele>
        <time>2016-03-02T13:48:06Z</time>
      </trkpt>
      <trkpt lat="43.39391" lon="6.07961">
        <ele>288.79998779297</ele>
        <time>2016-03-02T13:48:08Z</time>
      </trkpt>
      <trkpt lat="43.39387" lon="6.07961">
        <ele>288.79998779297</ele>
        <time>2016-03-02T13:48:10Z</time>
      </trkpt>
      <trkpt lat="43.39386" lon="6.07961">
        <ele>289</ele>
        <time>2016-03-02T13:48:11Z</time>
      </trkpt>
      <trkpt lat="43.39379" lon="6.07963">
        <ele>289.60000610352</ele>
        <time>2016-03-02T13:48:15Z</time>
      </trkpt>
      <trkpt lat="43.39374" lon="6.07974">
        <ele>289.60000610352</ele>
        <time>2016-03-02T13:48:21Z</time>
      </trkpt>
      <trkpt lat="43.39373" lon="6.0798">
        <ele>289.39999389648</ele>
        <time>2016-03-02T13:48:25Z</time>
      </trkpt>
      <trkpt lat="43.39371" lon="6.07983">
        <ele>288.79998779297</ele>
        <time>2016-03-02T13:48:28Z</time>
      </trkpt>
      <trkpt lat="43.39366" lon="6.07993">
        <ele>289.20001220703</ele>
        <time>2016-03-02T13:48:32Z</time>
      </trkpt>
      <trkpt lat="43.39364" lon="6.07998">
        <ele>289.20001220703</ele>
        <time>2016-03-02T13:48:35Z</time>
      </trkpt>
      <trkpt lat="43.39357" lon="6.08016">
        <ele>289</ele>
        <time>2016-03-02T13:48:42Z</time>
      </trkpt>
      <trkpt lat="43.39348" lon="6.08031">
        <ele>289.39999389648</ele>
        <time>2016-03-02T13:48:49Z</time>
      </trkpt>
      <trkpt lat="43.39344" lon="6.08035">
        <ele>290</ele>
        <time>2016-03-02T13:48:51Z</time>
      </trkpt>
      <trkpt lat="43.39341" lon="6.08038">
        <ele>290.79998779297</ele>
        <time>2016-03-02T13:48:54Z</time>
      </trkpt>
      <trkpt lat="43.39339" lon="6.08041">
        <ele>291.20001220703</ele>
        <time>2016-03-02T13:48:56Z</time>
      </trkpt>
      <trkpt lat="43.39337" lon="6.08045">
        <ele>291.20001220703</ele>
        <time>2016-03-02T13:48:59Z</time>
      </trkpt>
      <trkpt lat="43.39331" lon="6.08047">
        <ele>291.60000610352</ele>
        <time>2016-03-02T13:49:05Z</time>
      </trkpt>
      <trkpt lat="43.39328" lon="6.08057">
        <ele>291.60000610352</ele>
        <time>2016-03-02T13:49:32Z</time>
      </trkpt>
      <trkpt lat="43.39328" lon="6.08061">
        <ele>291</ele>
        <time>2016-03-02T13:49:41Z</time>
      </trkpt>
      <trkpt lat="43.39327" lon="6.08062">
        <ele>291.39999389648</ele>
        <time>2016-03-02T13:49:46Z</time>
      </trkpt>
      <trkpt lat="43.39327" lon="6.08062">
        <ele>291.39999389648</ele>
        <time>2016-03-02T13:49:49Z</time>
      </trkpt>
      <trkpt lat="43.39327" lon="6.08062">
        <ele>291.39999389648</ele>
        <time>2016-03-02T13:49:52Z</time>
      </trkpt>
      <trkpt lat="43.39327" lon="6.08062">
        <ele>291.20001220703</ele>
        <time>2016-03-02T13:49:59Z</time>
      </trkpt>
      <trkpt lat="43.39327" lon="6.08062">
        <ele>291</ele>
        <time>2016-03-02T13:50:07Z</time>
      </trkpt>
      <trkpt lat="43.39304" lon="6.081">
        <ele>292</ele>
        <time>2016-03-02T13:50:33Z</time>
      </trkpt>
      <trkpt lat="43.39304" lon="6.08101">
        <ele>292.39999389648</ele>
        <time>2016-03-02T13:50:34Z</time>
      </trkpt>
      <trkpt lat="43.39302" lon="6.08105">
        <ele>292.79998779297</ele>
        <time>2016-03-02T13:50:37Z</time>
      </trkpt>
      <trkpt lat="43.39299" lon="6.08112">
        <ele>293.20001220703</ele>
        <time>2016-03-02T13:50:40Z</time>
      </trkpt>
      <trkpt lat="43.39296" lon="6.08119">
        <ele>293.79998779297</ele>
        <time>2016-03-02T13:50:43Z</time>
      </trkpt>
      <trkpt lat="43.3929" lon="6.08137">
        <ele>294.60000610352</ele>
        <time>2016-03-02T13:50:52Z</time>
      </trkpt>
      <trkpt lat="43.39289" lon="6.0814">
        <ele>295</ele>
        <time>2016-03-02T13:50:54Z</time>
      </trkpt>
      <trkpt lat="43.39289" lon="6.08141">
        <ele>295</ele>
        <time>2016-03-02T13:51:01Z</time>
      </trkpt>
      <trkpt lat="43.39288" lon="6.08151">
        <ele>296.20001220703</ele>
        <time>2016-03-02T13:51:34Z</time>
      </trkpt>
      <trkpt lat="43.39286" lon="6.08159">
        <ele>297.20001220703</ele>
        <time>2016-03-02T13:51:43Z</time>
      </trkpt>
      <trkpt lat="43.39282" lon="6.08168">
        <ele>297.39999389648</ele>
        <time>2016-03-02T13:51:47Z</time>
      </trkpt>
      <trkpt lat="43.39281" lon="6.08171">
        <ele>298.20001220703</ele>
        <time>2016-03-02T13:51:49Z</time>
      </trkpt>
      <trkpt lat="43.3928" lon="6.08176">
        <ele>298.79998779297</ele>
        <time>2016-03-02T13:51:52Z</time>
      </trkpt>
      <trkpt lat="43.39279" lon="6.0818">
        <ele>298.60000610352</ele>
        <time>2016-03-02T13:51:54Z</time>
      </trkpt>
      <trkpt lat="43.39277" lon="6.08183">
        <ele>299.20001220703</ele>
        <time>2016-03-02T13:51:57Z</time>
      </trkpt>
      <trkpt lat="43.39276" lon="6.08184">
        <ele>299.60000610352</ele>
        <time>2016-03-02T13:52:01Z</time>
      </trkpt>
      <trkpt lat="43.39274" lon="6.08192">
        <ele>300</ele>
        <time>2016-03-02T13:52:12Z</time>
      </trkpt>
      <trkpt lat="43.39273" lon="6.08193">
        <ele>299.79998779297</ele>
        <time>2016-03-02T13:52:20Z</time>
      </trkpt>
      <trkpt lat="43.39273" lon="6.08194">
        <ele>299.20001220703</ele>
        <time>2016-03-02T13:52:33Z</time>
      </trkpt>
      <trkpt lat="43.39273" lon="6.08202">
        <ele>299</ele>
        <time>2016-03-02T13:52:37Z</time>
      </trkpt>
      <trkpt lat="43.39272" lon="6.0821">
        <ele>299.60000610352</ele>
        <time>2016-03-02T13:52:41Z</time>
      </trkpt>
      <trkpt lat="43.3927" lon="6.08214">
        <ele>299.79998779297</ele>
        <time>2016-03-02T13:52:43Z</time>
      </trkpt>
      <trkpt lat="43.39267" lon="6.08228">
        <ele>300.20001220703</ele>
        <time>2016-03-02T13:52:51Z</time>
      </trkpt>
      <trkpt lat="43.39266" lon="6.0823">
        <ele>300.79998779297</ele>
        <time>2016-03-02T13:52:52Z</time>
      </trkpt>
      <trkpt lat="43.39264" lon="6.08238">
        <ele>302.20001220703</ele>
        <time>2016-03-02T13:52:56Z</time>
      </trkpt>
      <trkpt lat="43.39261" lon="6.08252">
        <ele>303</ele>
        <time>2016-03-02T13:53:03Z</time>
      </trkpt>
      <trkpt lat="43.39259" lon="6.08257">
        <ele>303.20001220703</ele>
        <time>2016-03-02T13:53:06Z</time>
      </trkpt>
      <trkpt lat="43.39257" lon="6.08265">
        <ele>304.39999389648</ele>
        <time>2016-03-02T13:53:12Z</time>
      </trkpt>
      <trkpt lat="43.39255" lon="6.08268">
        <ele>304.79998779297</ele>
        <time>2016-03-02T13:53:24Z</time>
      </trkpt>
      <trkpt lat="43.39254" lon="6.08268">
        <ele>304.79998779297</ele>
        <time>2016-03-02T13:53:29Z</time>
      </trkpt>
      <trkpt lat="43.39247" lon="6.08277">
        <ele>305.60000610352</ele>
        <time>2016-03-02T13:53:35Z</time>
      </trkpt>
      <trkpt lat="43.39243" lon="6.08284">
        <ele>306</ele>
        <time>2016-03-02T13:53:41Z</time>
      </trkpt>
      <trkpt lat="43.39243" lon="6.08287">
        <ele>306.79998779297</ele>
        <time>2016-03-02T13:53:44Z</time>
      </trkpt>
      <trkpt lat="43.39243" lon="6.08287">
        <ele>306.79998779297</ele>
        <time>2016-03-02T13:53:48Z</time>
      </trkpt>
      <trkpt lat="43.39242" lon="6.08288">
        <ele>306.79998779297</ele>
        <time>2016-03-02T13:53:57Z</time>
      </trkpt>
      <trkpt lat="43.39235" lon="6.08308">
        <ele>308</ele>
        <time>2016-03-02T13:54:13Z</time>
      </trkpt>
      <trkpt lat="43.39234" lon="6.0831">
        <ele>309</ele>
        <time>2016-03-02T13:54:16Z</time>
      </trkpt>
      <trkpt lat="43.39234" lon="6.0831">
        <ele>309.20001220703</ele>
        <time>2016-03-02T13:54:17Z</time>
      </trkpt>
      <trkpt lat="43.39231" lon="6.08317">
        <ele>310.39999389648</ele>
        <time>2016-03-02T13:54:27Z</time>
      </trkpt>
      <trkpt lat="43.39231" lon="6.08318">
        <ele>310</ele>
        <time>2016-03-02T13:54:34Z</time>
      </trkpt>
      <trkpt lat="43.39225" lon="6.08326">
        <ele>311.39999389648</ele>
        <time>2016-03-02T13:54:45Z</time>
      </trkpt>
      <trkpt lat="43.39225" lon="6.08329">
        <ele>312.39999389648</ele>
        <time>2016-03-02T13:54:54Z</time>
      </trkpt>
      <trkpt lat="43.39222" lon="6.08347">
        <ele>313.60000610352</ele>
        <time>2016-03-02T13:55:05Z</time>
      </trkpt>
      <trkpt lat="43.39218" lon="6.08364">
        <ele>313.79998779297</ele>
        <time>2016-03-02T13:55:13Z</time>
      </trkpt>
      <trkpt lat="43.39216" lon="6.08373">
        <ele>314.79998779297</ele>
        <time>2016-03-02T13:55:18Z</time>
      </trkpt>
      <trkpt lat="43.39214" lon="6.0838">
        <ele>316</ele>
        <time>2016-03-02T13:55:21Z</time>
      </trkpt>
      <trkpt lat="43.39213" lon="6.08383">
        <ele>316.79998779297</ele>
        <time>2016-03-02T13:55:23Z</time>
      </trkpt>
      <trkpt lat="43.39212" lon="6.08384">
        <ele>317</ele>
        <time>2016-03-02T13:55:24Z</time>
      </trkpt>
      <trkpt lat="43.39212" lon="6.0839">
        <ele>317.39999389648</ele>
        <time>2016-03-02T13:55:28Z</time>
      </trkpt>
      <trkpt lat="43.39212" lon="6.08408">
        <ele>317.20001220703</ele>
        <time>2016-03-02T13:55:40Z</time>
      </trkpt>
      <trkpt lat="43.3921" lon="6.08413">
        <ele>317.79998779297</ele>
        <time>2016-03-02T13:55:50Z</time>
      </trkpt>
      <trkpt lat="43.39209" lon="6.08415">
        <ele>318.20001220703</ele>
        <time>2016-03-02T13:55:52Z</time>
      </trkpt>
      <trkpt lat="43.39209" lon="6.08416">
        <ele>319.20001220703</ele>
        <time>2016-03-02T13:55:58Z</time>
      </trkpt>
      <trkpt lat="43.39209" lon="6.08416">
        <ele>319.39999389648</ele>
        <time>2016-03-02T13:56:08Z</time>
      </trkpt>
      <trkpt lat="43.39209" lon="6.08416">
        <ele>319.20001220703</ele>
        <time>2016-03-02T13:56:13Z</time>
      </trkpt>
      <trkpt lat="43.39206" lon="6.08422">
        <ele>319.60000610352</ele>
        <time>2016-03-02T13:56:19Z</time>
      </trkpt>
      <trkpt lat="43.39206" lon="6.0843">
        <ele>320.39999389648</ele>
        <time>2016-03-02T13:56:25Z</time>
      </trkpt>
      <trkpt lat="43.39206" lon="6.08433">
        <ele>320.79998779297</ele>
        <time>2016-03-02T13:56:27Z</time>
      </trkpt>
      <trkpt lat="43.39205" lon="6.08436">
        <ele>321.39999389648</ele>
        <time>2016-03-02T13:56:30Z</time>
      </trkpt>
      <trkpt lat="43.39206" lon="6.08438">
        <ele>321.39999389648</ele>
        <time>2016-03-02T13:56:31Z</time>
      </trkpt>
      <trkpt lat="43.39206" lon="6.0844">
        <ele>321.79998779297</ele>
        <time>2016-03-02T13:56:33Z</time>
      </trkpt>
      <trkpt lat="43.39206" lon="6.08441">
        <ele>322.39999389648</ele>
        <time>2016-03-02T13:56:36Z</time>
      </trkpt>
      <trkpt lat="43.39205" lon="6.08448">
        <ele>322.60000610352</ele>
        <time>2016-03-02T13:56:41Z</time>
      </trkpt>
      <trkpt lat="43.39203" lon="6.08457">
        <ele>322.79998779297</ele>
        <time>2016-03-02T13:56:46Z</time>
      </trkpt>
      <trkpt lat="43.39202" lon="6.08468">
        <ele>323.39999389648</ele>
        <time>2016-03-02T13:56:52Z</time>
      </trkpt>
      <trkpt lat="43.39201" lon="6.08469">
        <ele>323.60000610352</ele>
        <time>2016-03-02T13:56:53Z</time>
      </trkpt>
      <trkpt lat="43.39201" lon="6.08476">
        <ele>324.20001220703</ele>
        <time>2016-03-02T13:56:57Z</time>
      </trkpt>
      <trkpt lat="43.39201" lon="6.08478">
        <ele>324.60000610352</ele>
        <time>2016-03-02T13:56:58Z</time>
      </trkpt>
      <trkpt lat="43.39199" lon="6.08495">
        <ele>326</ele>
        <time>2016-03-02T13:57:07Z</time>
      </trkpt>
      <trkpt lat="43.39198" lon="6.08499">
        <ele>325.79998779297</ele>
        <time>2016-03-02T13:57:14Z</time>
      </trkpt>
      <trkpt lat="43.39198" lon="6.08499">
        <ele>325.60000610352</ele>
        <time>2016-03-02T13:57:25Z</time>
      </trkpt>
      <trkpt lat="43.39198" lon="6.085">
        <ele>325.60000610352</ele>
        <time>2016-03-02T13:57:32Z</time>
      </trkpt>
      <trkpt lat="43.39198" lon="6.085">
        <ele>325.60000610352</ele>
        <time>2016-03-02T13:57:41Z</time>
      </trkpt>
      <trkpt lat="43.39199" lon="6.085">
        <ele>325.60000610352</ele>
        <time>2016-03-02T13:57:47Z</time>
      </trkpt>
      <trkpt lat="43.39199" lon="6.085">
        <ele>325.39999389648</ele>
        <time>2016-03-02T13:58:06Z</time>
      </trkpt>
      <trkpt lat="43.39199" lon="6.085">
        <ele>325.79998779297</ele>
        <time>2016-03-02T13:58:11Z</time>
      </trkpt>
      <trkpt lat="43.39199" lon="6.085">
        <ele>325.60000610352</ele>
        <time>2016-03-02T13:58:15Z</time>
      </trkpt>
      <trkpt lat="43.39199" lon="6.085">
        <ele>325.79998779297</ele>
        <time>2016-03-02T13:58:34Z</time>
      </trkpt>
      <trkpt lat="43.39199" lon="6.085">
        <ele>325.79998779297</ele>
        <time>2016-03-02T13:58:38Z</time>
      </trkpt>
      <trkpt lat="43.39199" lon="6.085">
        <ele>325.79998779297</ele>
        <time>2016-03-02T13:58:43Z</time>
      </trkpt>
      <trkpt lat="43.39199" lon="6.085">
        <ele>325.60000610352</ele>
        <time>2016-03-02T13:58:48Z</time>
      </trkpt>
      <trkpt lat="43.39199" lon="6.085">
        <ele>325.60000610352</ele>
        <time>2016-03-02T13:58:58Z</time>
      </trkpt>
      <trkpt lat="43.39199" lon="6.085">
        <ele>325.39999389648</ele>
        <time>2016-03-02T13:59:02Z</time>
      </trkpt>
      <trkpt lat="43.39199" lon="6.085">
        <ele>325.20001220703</ele>
        <time>2016-03-02T13:59:05Z</time>
      </trkpt>
      <trkpt lat="43.39199" lon="6.085">
        <ele>325.60000610352</ele>
        <time>2016-03-02T13:59:17Z</time>
      </trkpt>
      <trkpt lat="43.39199" lon="6.085">
        <ele>326.20001220703</ele>
        <time>2016-03-02T13:59:25Z</time>
      </trkpt>
      <trkpt lat="43.39199" lon="6.085">
        <ele>325.79998779297</ele>
        <time>2016-03-02T13:59:38Z</time>
      </trkpt>
      <trkpt lat="43.39199" lon="6.085">
        <ele>325.79998779297</ele>
        <time>2016-03-02T13:59:54Z</time>
      </trkpt>
      <trkpt lat="43.39199" lon="6.085">
        <ele>326.39999389648</ele>
        <time>2016-03-02T14:00:06Z</time>
      </trkpt>
      <trkpt lat="43.39199" lon="6.085">
        <ele>325.60000610352</ele>
        <time>2016-03-02T14:00:18Z</time>
      </trkpt>
      <trkpt lat="43.39199" lon="6.08501">
        <ele>325.20001220703</ele>
        <time>2016-03-02T14:00:25Z</time>
      </trkpt>
      <trkpt lat="43.39203" lon="6.08499">
        <ele>326.20001220703</ele>
        <time>2016-03-02T14:00:39Z</time>
      </trkpt>
      <trkpt lat="43.39212" lon="6.08483">
        <ele>325</ele>
        <time>2016-03-02T14:00:49Z</time>
      </trkpt>
      <trkpt lat="43.39212" lon="6.08483">
        <ele>325.20001220703</ele>
        <time>2016-03-02T14:01:02Z</time>
      </trkpt>
      <trkpt lat="43.39212" lon="6.08484">
        <ele>325.39999389648</ele>
        <time>2016-03-02T14:01:22Z</time>
      </trkpt>
      <trkpt lat="43.39213" lon="6.08482">
        <ele>325.20001220703</ele>
        <time>2016-03-02T14:01:36Z</time>
      </trkpt>
      <trkpt lat="43.39217" lon="6.08473">
        <ele>325.20001220703</ele>
        <time>2016-03-02T14:01:39Z</time>
      </trkpt>
      <trkpt lat="43.39218" lon="6.08468">
        <ele>324.39999389648</ele>
        <time>2016-03-02T14:01:40Z</time>
      </trkpt>
      <trkpt lat="43.39222" lon="6.08455">
        <ele>323.20001220703</ele>
        <time>2016-03-02T14:01:42Z</time>
      </trkpt>
      <trkpt lat="43.39223" lon="6.0845">
        <ele>323</ele>
        <time>2016-03-02T14:01:43Z</time>
      </trkpt>
      <trkpt lat="43.39227" lon="6.08438">
        <ele>321.79998779297</ele>
        <time>2016-03-02T14:01:45Z</time>
      </trkpt>
      <trkpt lat="43.39229" lon="6.08428">
        <ele>320.20001220703</ele>
        <time>2016-03-02T14:01:47Z</time>
      </trkpt>
      <trkpt lat="43.3923" lon="6.08422">
        <ele>318.39999389648</ele>
        <time>2016-03-02T14:01:48Z</time>
      </trkpt>
      <trkpt lat="43.39232" lon="6.08415">
        <ele>317</ele>
        <time>2016-03-02T14:01:49Z</time>
      </trkpt>
      <trkpt lat="43.39235" lon="6.08403">
        <ele>317.60000610352</ele>
        <time>2016-03-02T14:01:51Z</time>
      </trkpt>
      <trkpt lat="43.39235" lon="6.08395">
        <ele>317</ele>
        <time>2016-03-02T14:01:52Z</time>
      </trkpt>
      <trkpt lat="43.39246" lon="6.08365">
        <ele>317</ele>
        <time>2016-03-02T14:01:56Z</time>
      </trkpt>
      <trkpt lat="43.39248" lon="6.08358">
        <ele>316.20001220703</ele>
        <time>2016-03-02T14:01:57Z</time>
      </trkpt>
      <trkpt lat="43.3925" lon="6.08351">
        <ele>315</ele>
        <time>2016-03-02T14:01:58Z</time>
      </trkpt>
      <trkpt lat="43.39254" lon="6.08338">
        <ele>314</ele>
        <time>2016-03-02T14:02:00Z</time>
      </trkpt>
      <trkpt lat="43.39257" lon="6.08322">
        <ele>312.60000610352</ele>
        <time>2016-03-02T14:02:02Z</time>
      </trkpt>
      <trkpt lat="43.39259" lon="6.08315">
        <ele>312.60000610352</ele>
        <time>2016-03-02T14:02:03Z</time>
      </trkpt>
      <trkpt lat="43.39264" lon="6.08296">
        <ele>311</ele>
        <time>2016-03-02T14:02:06Z</time>
      </trkpt>
      <trkpt lat="43.39267" lon="6.08289">
        <ele>309.39999389648</ele>
        <time>2016-03-02T14:02:07Z</time>
      </trkpt>
      <trkpt lat="43.3927" lon="6.08284">
        <ele>307.60000610352</ele>
        <time>2016-03-02T14:02:08Z</time>
      </trkpt>
      <trkpt lat="43.39273" lon="6.08279">
        <ele>307.20001220703</ele>
        <time>2016-03-02T14:02:09Z</time>
      </trkpt>
      <trkpt lat="43.39283" lon="6.08256">
        <ele>305.79998779297</ele>
        <time>2016-03-02T14:02:13Z</time>
      </trkpt>
      <trkpt lat="43.39289" lon="6.08236">
        <ele>305.60000610352</ele>
        <time>2016-03-02T14:02:16Z</time>
      </trkpt>
      <trkpt lat="43.39294" lon="6.0821">
        <ele>304.39999389648</ele>
        <time>2016-03-02T14:02:19Z</time>
      </trkpt>
      <trkpt lat="43.39297" lon="6.08202">
        <ele>304.20001220703</ele>
        <time>2016-03-02T14:02:20Z</time>
      </trkpt>
      <trkpt lat="43.39308" lon="6.08176">
        <ele>303.20001220703</ele>
        <time>2016-03-02T14:02:23Z</time>
      </trkpt>
      <trkpt lat="43.3931" lon="6.08167">
        <ele>302.79998779297</ele>
        <time>2016-03-02T14:02:24Z</time>
      </trkpt>
      <trkpt lat="43.39313" lon="6.08157">
        <ele>301.79998779297</ele>
        <time>2016-03-02T14:02:25Z</time>
      </trkpt>
      <trkpt lat="43.39315" lon="6.08147">
        <ele>300.60000610352</ele>
        <time>2016-03-02T14:02:26Z</time>
      </trkpt>
      <trkpt lat="43.39326" lon="6.08117">
        <ele>300</ele>
        <time>2016-03-02T14:02:29Z</time>
      </trkpt>
      <trkpt lat="43.39337" lon="6.08102">
        <ele>298.20001220703</ele>
        <time>2016-03-02T14:02:31Z</time>
      </trkpt>
      <trkpt lat="43.39343" lon="6.08095">
        <ele>297</ele>
        <time>2016-03-02T14:02:32Z</time>
      </trkpt>
      <trkpt lat="43.39346" lon="6.0809">
        <ele>295.79998779297</ele>
        <time>2016-03-02T14:02:33Z</time>
      </trkpt>
      <trkpt lat="43.39352" lon="6.08079">
        <ele>294.60000610352</ele>
        <time>2016-03-02T14:02:36Z</time>
      </trkpt>
      <trkpt lat="43.39352" lon="6.08078">
        <ele>293.39999389648</ele>
        <time>2016-03-02T14:02:38Z</time>
      </trkpt>
      <trkpt lat="43.39352" lon="6.08077">
        <ele>292.39999389648</ele>
        <time>2016-03-02T14:02:44Z</time>
      </trkpt>
      <trkpt lat="43.39352" lon="6.08077">
        <ele>293.39999389648</ele>
        <time>2016-03-02T14:02:49Z</time>
      </trkpt>
      <trkpt lat="43.39352" lon="6.08077">
        <ele>293</ele>
        <time>2016-03-02T14:03:07Z</time>
      </trkpt>
      <trkpt lat="43.39352" lon="6.08077">
        <ele>292.60000610352</ele>
        <time>2016-03-02T14:03:12Z</time>
      </trkpt>
      <trkpt lat="43.39359" lon="6.08067">
        <ele>292.39999389648</ele>
        <time>2016-03-02T14:03:32Z</time>
      </trkpt>
      <trkpt lat="43.39361" lon="6.08064">
        <ele>291.39999389648</ele>
        <time>2016-03-02T14:03:33Z</time>
      </trkpt>
      <trkpt lat="43.39373" lon="6.08045">
        <ele>290.60000610352</ele>
        <time>2016-03-02T14:03:38Z</time>
      </trkpt>
      <trkpt lat="43.39375" lon="6.08041">
        <ele>290.20001220703</ele>
        <time>2016-03-02T14:03:39Z</time>
      </trkpt>
      <trkpt lat="43.39382" lon="6.0803">
        <ele>291.39999389648</ele>
        <time>2016-03-02T14:03:42Z</time>
      </trkpt>
      <trkpt lat="43.39391" lon="6.08015">
        <ele>290.39999389648</ele>
        <time>2016-03-02T14:03:47Z</time>
      </trkpt>
      <trkpt lat="43.39394" lon="6.08011">
        <ele>290</ele>
        <time>2016-03-02T14:04:01Z</time>
      </trkpt>
      <trkpt lat="43.3941" lon="6.08002">
        <ele>289.20001220703</ele>
        <time>2016-03-02T14:04:05Z</time>
      </trkpt>
      <trkpt lat="43.39425" lon="6.07995">
        <ele>288.39999389648</ele>
        <time>2016-03-02T14:04:08Z</time>
      </trkpt>
      <trkpt lat="43.39431" lon="6.07993">
        <ele>288</ele>
        <time>2016-03-02T14:04:09Z</time>
      </trkpt>
      <trkpt lat="43.39443" lon="6.07987">
        <ele>287.20001220703</ele>
        <time>2016-03-02T14:04:11Z</time>
      </trkpt>
      <trkpt lat="43.3947" lon="6.07976">
        <ele>285.79998779297</ele>
        <time>2016-03-02T14:04:16Z</time>
      </trkpt>
      <trkpt lat="43.3948" lon="6.07973">
        <ele>284.60000610352</ele>
        <time>2016-03-02T14:04:21Z</time>
      </trkpt>
      <trkpt lat="43.39492" lon="6.07969">
        <ele>283.60000610352</ele>
        <time>2016-03-02T14:04:31Z</time>
      </trkpt>
      <trkpt lat="43.3952" lon="6.07958">
        <ele>282.39999389648</ele>
        <time>2016-03-02T14:04:58Z</time>
      </trkpt>
      <trkpt lat="43.39529" lon="6.07955">
        <ele>282</ele>
        <time>2016-03-02T14:05:00Z</time>
      </trkpt>
      <trkpt lat="43.3954" lon="6.07949">
        <ele>281.20001220703</ele>
        <time>2016-03-02T14:05:02Z</time>
      </trkpt>
      <trkpt lat="43.3955" lon="6.07944">
        <ele>279.79998779297</ele>
        <time>2016-03-02T14:05:04Z</time>
      </trkpt>
      <trkpt lat="43.3956" lon="6.0794">
        <ele>278.79998779297</ele>
        <time>2016-03-02T14:05:06Z</time>
      </trkpt>
      <trkpt lat="43.39564" lon="6.07939">
        <ele>278.20001220703</ele>
        <time>2016-03-02T14:05:07Z</time>
      </trkpt>
      <trkpt lat="43.39571" lon="6.07938">
        <ele>277</ele>
        <time>2016-03-02T14:05:09Z</time>
      </trkpt>
      <trkpt lat="43.39574" lon="6.07936">
        <ele>275.60000610352</ele>
        <time>2016-03-02T14:05:11Z</time>
      </trkpt>
      <trkpt lat="43.39576" lon="6.07934">
        <ele>275</ele>
        <time>2016-03-02T14:05:13Z</time>
      </trkpt>
      <trkpt lat="43.39577" lon="6.07934">
        <ele>275</ele>
        <time>2016-03-02T14:05:20Z</time>
      </trkpt>
      <trkpt lat="43.39577" lon="6.07934">
        <ele>274.60000610352</ele>
        <time>2016-03-02T14:05:30Z</time>
      </trkpt>
      <trkpt lat="43.39577" lon="6.07934">
        <ele>274.20001220703</ele>
        <time>2016-03-02T14:05:43Z</time>
      </trkpt>
      <trkpt lat="43.39577" lon="6.07934">
        <ele>275.79998779297</ele>
        <time>2016-03-02T14:06:19Z</time>
      </trkpt>
      <trkpt lat="43.39577" lon="6.07934">
        <ele>275.60000610352</ele>
        <time>2016-03-02T14:07:06Z</time>
      </trkpt>
      <trkpt lat="43.39577" lon="6.07934">
        <ele>275.20001220703</ele>
        <time>2016-03-02T14:07:24Z</time>
      </trkpt>
      <trkpt lat="43.39576" lon="6.07934">
        <ele>275.60000610352</ele>
        <time>2016-03-02T14:07:29Z</time>
      </trkpt>
      <trkpt lat="43.39574" lon="6.07934">
        <ele>276</ele>
        <time>2016-03-02T14:07:32Z</time>
      </trkpt>
      <trkpt lat="43.39574" lon="6.07934">
        <ele>276</ele>
        <time>2016-03-02T14:07:34Z</time>
      </trkpt>
      <trkpt lat="43.39574" lon="6.07935">
        <ele>276.20001220703</ele>
        <time>2016-03-02T14:07:37Z</time>
      </trkpt>
      <trkpt lat="43.39573" lon="6.07935">
        <ele>276.39999389648</ele>
        <time>2016-03-02T14:07:51Z</time>
      </trkpt>
      <trkpt lat="43.39572" lon="6.07935">
        <ele>276.60000610352</ele>
        <time>2016-03-02T14:07:55Z</time>
      </trkpt>
      <trkpt lat="43.39571" lon="6.07935">
        <ele>276.60000610352</ele>
        <time>2016-03-02T14:07:58Z</time>
      </trkpt>
      <trkpt lat="43.39568" lon="6.07936">
        <ele>277</ele>
        <time>2016-03-02T14:08:00Z</time>
      </trkpt>
      <trkpt lat="43.39565" lon="6.07937">
        <ele>277.39999389648</ele>
        <time>2016-03-02T14:08:02Z</time>
      </trkpt>
      <trkpt lat="43.39559" lon="6.07939">
        <ele>278</ele>
        <time>2016-03-02T14:08:05Z</time>
      </trkpt>
      <trkpt lat="43.39554" lon="6.07941">
        <ele>278.60000610352</ele>
        <time>2016-03-02T14:08:07Z</time>
      </trkpt>
      <trkpt lat="43.39546" lon="6.07946">
        <ele>279.60000610352</ele>
        <time>2016-03-02T14:08:11Z</time>
      </trkpt>
      <trkpt lat="43.39544" lon="6.07947">
        <ele>279.79998779297</ele>
        <time>2016-03-02T14:08:12Z</time>
      </trkpt>
      <trkpt lat="43.39532" lon="6.07953">
        <ele>281</ele>
        <time>2016-03-02T14:08:18Z</time>
      </trkpt>
      <trkpt lat="43.39518" lon="6.07957">
        <ele>282</ele>
        <time>2016-03-02T14:08:25Z</time>
      </trkpt>
      <trkpt lat="43.39499" lon="6.07963">
        <ele>283.20001220703</ele>
        <time>2016-03-02T14:08:35Z</time>
      </trkpt>
      <trkpt lat="43.39477" lon="6.0797">
        <ele>283.79998779297</ele>
        <time>2016-03-02T14:08:45Z</time>
      </trkpt>
      <trkpt lat="43.3947" lon="6.07973">
        <ele>284.39999389648</ele>
        <time>2016-03-02T14:08:48Z</time>
      </trkpt>
      <trkpt lat="43.39447" lon="6.07981">
        <ele>285.39999389648</ele>
        <time>2016-03-02T14:09:00Z</time>
      </trkpt>
      <trkpt lat="43.3943" lon="6.07988">
        <ele>286.39999389648</ele>
        <time>2016-03-02T14:09:08Z</time>
      </trkpt>
      <trkpt lat="43.3941" lon="6.08">
        <ele>287.60000610352</ele>
        <time>2016-03-02T14:09:19Z</time>
      </trkpt>
      <trkpt lat="43.39399" lon="6.08005">
        <ele>288.60000610352</ele>
        <time>2016-03-02T14:09:25Z</time>
      </trkpt>
      <trkpt lat="43.39382" lon="6.08006">
        <ele>289.79998779297</ele>
        <time>2016-03-02T14:09:36Z</time>
      </trkpt>
      <trkpt lat="43.39382" lon="6.08007">
        <ele>290.20001220703</ele>
        <time>2016-03-02T14:09:40Z</time>
      </trkpt>
      <trkpt lat="43.39382" lon="6.08007">
        <ele>290.20001220703</ele>
        <time>2016-03-02T14:09:45Z</time>
      </trkpt>
      <trkpt lat="43.39382" lon="6.08007">
        <ele>290</ele>
        <time>2016-03-02T14:09:54Z</time>
      </trkpt>
      <trkpt lat="43.39382" lon="6.08007">
        <ele>289.79998779297</ele>
        <time>2016-03-02T14:09:57Z</time>
      </trkpt>
      <trkpt lat="43.39382" lon="6.08007">
        <ele>289.60000610352</ele>
        <time>2016-03-02T14:09:59Z</time>
      </trkpt>
      <trkpt lat="43.39382" lon="6.08007">
        <ele>289.60000610352</ele>
        <time>2016-03-02T14:10:01Z</time>
      </trkpt>
      <trkpt lat="43.39382" lon="6.08007">
        <ele>289.20001220703</ele>
        <time>2016-03-02T14:10:04Z</time>
      </trkpt>
      <trkpt lat="43.39382" lon="6.08007">
        <ele>289.79998779297</ele>
        <time>2016-03-02T14:10:15Z</time>
      </trkpt>
      <trkpt lat="43.39382" lon="6.08007">
        <ele>290</ele>
        <time>2016-03-02T14:10:19Z</time>
      </trkpt>
      <trkpt lat="43.39382" lon="6.08007">
        <ele>290</ele>
        <time>2016-03-02T14:10:22Z</time>
      </trkpt>
      <trkpt lat="43.39382" lon="6.08007">
        <ele>290.20001220703</ele>
        <time>2016-03-02T14:10:29Z</time>
      </trkpt>
      <trkpt lat="43.3938" lon="6.08006">
        <ele>289.79998779297</ele>
        <time>2016-03-02T14:10:53Z</time>
      </trkpt>
      <trkpt lat="43.39377" lon="6.08008">
        <ele>289.60000610352</ele>
        <time>2016-03-02T14:10:56Z</time>
      </trkpt>
      <trkpt lat="43.39371" lon="6.08012">
        <ele>290.39999389648</ele>
        <time>2016-03-02T14:11:00Z</time>
      </trkpt>
      <trkpt lat="43.39364" lon="6.08018">
        <ele>291.20001220703</ele>
        <time>2016-03-02T14:11:03Z</time>
      </trkpt>
      <trkpt lat="43.39359" lon="6.08023">
        <ele>291.60000610352</ele>
        <time>2016-03-02T14:11:06Z</time>
      </trkpt>
      <trkpt lat="43.39354" lon="6.08034">
        <ele>291.79998779297</ele>
        <time>2016-03-02T14:11:10Z</time>
      </trkpt>
      <trkpt lat="43.39347" lon="6.08039">
        <ele>292.79998779297</ele>
        <time>2016-03-02T14:11:14Z</time>
      </trkpt>
      <trkpt lat="43.39344" lon="6.08041">
        <ele>293.39999389648</ele>
        <time>2016-03-02T14:11:16Z</time>
      </trkpt>
      <trkpt lat="43.39342" lon="6.08043">
        <ele>293.39999389648</ele>
        <time>2016-03-02T14:11:17Z</time>
      </trkpt>
      <trkpt lat="43.3934" lon="6.08049">
        <ele>294.20001220703</ele>
        <time>2016-03-02T14:11:19Z</time>
      </trkpt>
      <trkpt lat="43.3932" lon="6.08081">
        <ele>295.20001220703</ele>
        <time>2016-03-02T14:11:31Z</time>
      </trkpt>
      <trkpt lat="43.39314" lon="6.08088">
        <ele>295.39999389648</ele>
        <time>2016-03-02T14:11:34Z</time>
      </trkpt>
      <trkpt lat="43.39307" lon="6.08101">
        <ele>296.60000610352</ele>
        <time>2016-03-02T14:11:39Z</time>
      </trkpt>
      <trkpt lat="43.39304" lon="6.08107">
        <ele>297.79998779297</ele>
        <time>2016-03-02T14:11:42Z</time>
      </trkpt>
      <trkpt lat="43.39302" lon="6.08113">
        <ele>298.20001220703</ele>
        <time>2016-03-02T14:11:45Z</time>
      </trkpt>
      <trkpt lat="43.39295" lon="6.08125">
        <ele>298.20001220703</ele>
        <time>2016-03-02T14:11:50Z</time>
      </trkpt>
      <trkpt lat="43.39292" lon="6.08131">
        <ele>297.79998779297</ele>
        <time>2016-03-02T14:11:53Z</time>
      </trkpt>
      <trkpt lat="43.39288" lon="6.08144">
        <ele>299.20001220703</ele>
        <time>2016-03-02T14:12:01Z</time>
      </trkpt>
      <trkpt lat="43.39288" lon="6.08152">
        <ele>300</ele>
        <time>2016-03-02T14:12:13Z</time>
      </trkpt>
      <trkpt lat="43.39288" lon="6.08153">
        <ele>300</ele>
        <time>2016-03-02T14:12:19Z</time>
      </trkpt>
      <trkpt lat="43.39283" lon="6.08168">
        <ele>300.60000610352</ele>
        <time>2016-03-02T14:12:31Z</time>
      </trkpt>
      <trkpt lat="43.39282" lon="6.08169">
        <ele>300.79998779297</ele>
        <time>2016-03-02T14:12:32Z</time>
      </trkpt>
      <trkpt lat="43.3928" lon="6.08175">
        <ele>301.39999389648</ele>
        <time>2016-03-02T14:12:36Z</time>
      </trkpt>
      <trkpt lat="43.39279" lon="6.08183">
        <ele>301.60000610352</ele>
        <time>2016-03-02T14:12:39Z</time>
      </trkpt>
      <trkpt lat="43.39278" lon="6.08185">
        <ele>302</ele>
        <time>2016-03-02T14:12:40Z</time>
      </trkpt>
      <trkpt lat="43.39277" lon="6.08187">
        <ele>302.79998779297</ele>
        <time>2016-03-02T14:12:42Z</time>
      </trkpt>
      <trkpt lat="43.39275" lon="6.08192">
        <ele>303.60000610352</ele>
        <time>2016-03-02T14:12:52Z</time>
      </trkpt>
      <trkpt lat="43.39275" lon="6.08193">
        <ele>303.79998779297</ele>
        <time>2016-03-02T14:12:54Z</time>
      </trkpt>
      <trkpt lat="43.39275" lon="6.08194">
        <ele>303.79998779297</ele>
        <time>2016-03-02T14:13:00Z</time>
      </trkpt>
      <trkpt lat="43.39275" lon="6.08194">
        <ele>304</ele>
        <time>2016-03-02T14:13:13Z</time>
      </trkpt>
      <trkpt lat="43.39275" lon="6.08194">
        <ele>304.20001220703</ele>
        <time>2016-03-02T14:13:16Z</time>
      </trkpt>
      <trkpt lat="43.39275" lon="6.08194">
        <ele>304</ele>
        <time>2016-03-02T14:13:18Z</time>
      </trkpt>
      <trkpt lat="43.39275" lon="6.08194">
        <ele>303.79998779297</ele>
        <time>2016-03-02T14:13:20Z</time>
      </trkpt>
      <trkpt lat="43.39274" lon="6.08196">
        <ele>304</ele>
        <time>2016-03-02T14:13:22Z</time>
      </trkpt>
      <trkpt lat="43.39271" lon="6.08224">
        <ele>304.79998779297</ele>
        <time>2016-03-02T14:13:34Z</time>
      </trkpt>
      <trkpt lat="43.39267" lon="6.08234">
        <ele>305</ele>
        <time>2016-03-02T14:13:38Z</time>
      </trkpt>
      <trkpt lat="43.39267" lon="6.08239">
        <ele>305.60000610352</ele>
        <time>2016-03-02T14:13:40Z</time>
      </trkpt>
      <trkpt lat="43.39265" lon="6.08248">
        <ele>306.20001220703</ele>
        <time>2016-03-02T14:13:43Z</time>
      </trkpt>
      <trkpt lat="43.39263" lon="6.0826">
        <ele>306.79998779297</ele>
        <time>2016-03-02T14:13:48Z</time>
      </trkpt>
      <trkpt lat="43.39258" lon="6.08268">
        <ele>307.39999389648</ele>
        <time>2016-03-02T14:13:54Z</time>
      </trkpt>
      <trkpt lat="43.39258" lon="6.08267">
        <ele>307.79998779297</ele>
        <time>2016-03-02T14:13:57Z</time>
      </trkpt>
      <trkpt lat="43.39257" lon="6.08268">
        <ele>308.20001220703</ele>
        <time>2016-03-02T14:14:06Z</time>
      </trkpt>
      <trkpt lat="43.3926" lon="6.08266">
        <ele>307.79998779297</ele>
        <time>2016-03-02T14:14:18Z</time>
      </trkpt>
      <trkpt lat="43.39261" lon="6.08265">
        <ele>307.79998779297</ele>
        <time>2016-03-02T14:14:22Z</time>
      </trkpt>
      <trkpt lat="43.39261" lon="6.08265">
        <ele>308.20001220703</ele>
        <time>2016-03-02T14:14:25Z</time>
      </trkpt>
      <trkpt lat="43.39261" lon="6.08265">
        <ele>308</ele>
        <time>2016-03-02T14:14:35Z</time>
      </trkpt>
      <trkpt lat="43.39261" lon="6.08266">
        <ele>308</ele>
        <time>2016-03-02T14:14:39Z</time>
      </trkpt>
      <trkpt lat="43.39261" lon="6.08266">
        <ele>308.39999389648</ele>
        <time>2016-03-02T14:14:43Z</time>
      </trkpt>
      <trkpt lat="43.39258" lon="6.08269">
        <ele>308.79998779297</ele>
        <time>2016-03-02T14:14:55Z</time>
      </trkpt>
      <trkpt lat="43.39256" lon="6.08271">
        <ele>309.39999389648</ele>
        <time>2016-03-02T14:14:57Z</time>
      </trkpt>
      <trkpt lat="43.39255" lon="6.08273">
        <ele>309.39999389648</ele>
        <time>2016-03-02T14:14:58Z</time>
      </trkpt>
      <trkpt lat="43.39249" lon="6.08279">
        <ele>310</ele>
        <time>2016-03-02T14:15:04Z</time>
      </trkpt>
      <trkpt lat="43.39246" lon="6.08283">
        <ele>310.39999389648</ele>
        <time>2016-03-02T14:15:07Z</time>
      </trkpt>
      <trkpt lat="43.39244" lon="6.08287">
        <ele>310.79998779297</ele>
        <time>2016-03-02T14:15:14Z</time>
      </trkpt>
      <trkpt lat="43.39241" lon="6.08293">
        <ele>311.39999389648</ele>
        <time>2016-03-02T14:15:26Z</time>
      </trkpt>
      <trkpt lat="43.39238" lon="6.08298">
        <ele>311.39999389648</ele>
        <time>2016-03-02T14:15:29Z</time>
      </trkpt>
      <trkpt lat="43.39236" lon="6.08302">
        <ele>311.79998779297</ele>
        <time>2016-03-02T14:15:31Z</time>
      </trkpt>
      <trkpt lat="43.39234" lon="6.08307">
        <ele>312</ele>
        <time>2016-03-02T14:15:34Z</time>
      </trkpt>
      <trkpt lat="43.39233" lon="6.08311">
        <ele>312.20001220703</ele>
        <time>2016-03-02T14:15:36Z</time>
      </trkpt>
      <trkpt lat="43.39233" lon="6.08313">
        <ele>312.79998779297</ele>
        <time>2016-03-02T14:15:38Z</time>
      </trkpt>
      <trkpt lat="43.39233" lon="6.08312">
        <ele>313</ele>
        <time>2016-03-02T14:15:41Z</time>
      </trkpt>
      <trkpt lat="43.39231" lon="6.08323">
        <ele>313.79998779297</ele>
        <time>2016-03-02T14:16:00Z</time>
      </trkpt>
      <trkpt lat="43.39231" lon="6.08326">
        <ele>313.79998779297</ele>
        <time>2016-03-02T14:16:02Z</time>
      </trkpt>
      <trkpt lat="43.3923" lon="6.08326">
        <ele>314</ele>
        <time>2016-03-02T14:16:03Z</time>
      </trkpt>
      <trkpt lat="43.39225" lon="6.08328">
        <ele>315</ele>
        <time>2016-03-02T14:16:07Z</time>
      </trkpt>
      <trkpt lat="43.39224" lon="6.08329">
        <ele>315.20001220703</ele>
        <time>2016-03-02T14:16:08Z</time>
      </trkpt>
      <trkpt lat="43.39223" lon="6.08331">
        <ele>315.39999389648</ele>
        <time>2016-03-02T14:16:09Z</time>
      </trkpt>
      <trkpt lat="43.39223" lon="6.08333">
        <ele>316</ele>
        <time>2016-03-02T14:16:24Z</time>
      </trkpt>
      <trkpt lat="43.39223" lon="6.08333">
        <ele>316</ele>
        <time>2016-03-02T14:16:27Z</time>
      </trkpt>
      <trkpt lat="43.39223" lon="6.08333">
        <ele>315.79998779297</ele>
        <time>2016-03-02T14:16:33Z</time>
      </trkpt>
      <trkpt lat="43.3922" lon="6.08342">
        <ele>316.60000610352</ele>
        <time>2016-03-02T14:16:43Z</time>
      </trkpt>
      <trkpt lat="43.39218" lon="6.08361">
        <ele>317.79998779297</ele>
        <time>2016-03-02T14:16:51Z</time>
      </trkpt>
      <trkpt lat="43.39217" lon="6.08374">
        <ele>318.39999389648</ele>
        <time>2016-03-02T14:16:58Z</time>
      </trkpt>
      <trkpt lat="43.39215" lon="6.08383">
        <ele>319</ele>
        <time>2016-03-02T14:17:01Z</time>
      </trkpt>
      <trkpt lat="43.39215" lon="6.08386">
        <ele>319.60000610352</ele>
        <time>2016-03-02T14:17:04Z</time>
      </trkpt>
      <trkpt lat="43.39215" lon="6.08387">
        <ele>319.39999389648</ele>
        <time>2016-03-02T14:17:14Z</time>
      </trkpt>
      <trkpt lat="43.39215" lon="6.08387">
        <ele>319</ele>
        <time>2016-03-02T14:17:19Z</time>
      </trkpt>
      <trkpt lat="43.39215" lon="6.08387">
        <ele>318.60000610352</ele>
        <time>2016-03-02T14:17:27Z</time>
      </trkpt>
      <trkpt lat="43.39215" lon="6.08387">
        <ele>319</ele>
        <time>2016-03-02T14:17:33Z</time>
      </trkpt>
      <trkpt lat="43.39215" lon="6.08387">
        <ele>320.20001220703</ele>
        <time>2016-03-02T14:17:43Z</time>
      </trkpt>
      <trkpt lat="43.39215" lon="6.08387">
        <ele>320.20001220703</ele>
        <time>2016-03-02T14:17:45Z</time>
      </trkpt>
      <trkpt lat="43.39215" lon="6.08387">
        <ele>320</ele>
        <time>2016-03-02T14:17:48Z</time>
      </trkpt>
      <trkpt lat="43.39215" lon="6.08387">
        <ele>320.20001220703</ele>
        <time>2016-03-02T14:17:52Z</time>
      </trkpt>
      <trkpt lat="43.39215" lon="6.08387">
        <ele>320.20001220703</ele>
        <time>2016-03-02T14:18:05Z</time>
      </trkpt>
      <trkpt lat="43.39215" lon="6.08387">
        <ele>319.79998779297</ele>
        <time>2016-03-02T14:18:11Z</time>
      </trkpt>
      <trkpt lat="43.39215" lon="6.08387">
        <ele>319.39999389648</ele>
        <time>2016-03-02T14:18:22Z</time>
      </trkpt>
      <trkpt lat="43.39215" lon="6.08387">
        <ele>319.79998779297</ele>
        <time>2016-03-02T14:18:35Z</time>
      </trkpt>
      <trkpt lat="43.39215" lon="6.08387">
        <ele>319.79998779297</ele>
        <time>2016-03-02T14:18:39Z</time>
      </trkpt>
      <trkpt lat="43.39214" lon="6.08408">
        <ele>320.60000610352</ele>
        <time>2016-03-02T14:18:58Z</time>
      </trkpt>
      <trkpt lat="43.39213" lon="6.08411">
        <ele>320.60000610352</ele>
        <time>2016-03-02T14:19:11Z</time>
      </trkpt>
      <trkpt lat="43.3921" lon="6.08415">
        <ele>321.60000610352</ele>
        <time>2016-03-02T14:19:20Z</time>
      </trkpt>
      <trkpt lat="43.39206" lon="6.08426">
        <ele>322.79998779297</ele>
        <time>2016-03-02T14:19:32Z</time>
      </trkpt>
      <trkpt lat="43.39206" lon="6.08426">
        <ele>322.60000610352</ele>
        <time>2016-03-02T14:19:41Z</time>
      </trkpt>
      <trkpt lat="43.39206" lon="6.08426">
        <ele>322.60000610352</ele>
        <time>2016-03-02T14:19:47Z</time>
      </trkpt>
      <trkpt lat="43.39206" lon="6.08429">
        <ele>322.60000610352</ele>
        <time>2016-03-02T14:19:56Z</time>
      </trkpt>
      <trkpt lat="43.39205" lon="6.08434">
        <ele>323.39999389648</ele>
        <time>2016-03-02T14:19:58Z</time>
      </trkpt>
      <trkpt lat="43.39205" lon="6.08434">
        <ele>323.79998779297</ele>
        <time>2016-03-02T14:20:00Z</time>
      </trkpt>
      <trkpt lat="43.39206" lon="6.08436">
        <ele>324.20001220703</ele>
        <time>2016-03-02T14:20:03Z</time>
      </trkpt>
      <trkpt lat="43.39206" lon="6.0844">
        <ele>324.60000610352</ele>
        <time>2016-03-02T14:20:06Z</time>
      </trkpt>
      <trkpt lat="43.39206" lon="6.08445">
        <ele>324.20001220703</ele>
        <time>2016-03-02T14:20:20Z</time>
      </trkpt>
      <trkpt lat="43.39204" lon="6.08454">
        <ele>324.79998779297</ele>
        <time>2016-03-02T14:20:24Z</time>
      </trkpt>
      <trkpt lat="43.39204" lon="6.08456">
        <ele>325.39999389648</ele>
        <time>2016-03-02T14:20:25Z</time>
      </trkpt>
      <trkpt lat="43.39203" lon="6.08462">
        <ele>325.79998779297</ele>
        <time>2016-03-02T14:20:28Z</time>
      </trkpt>
      <trkpt lat="43.39202" lon="6.08469">
        <ele>326.39999389648</ele>
        <time>2016-03-02T14:20:31Z</time>
      </trkpt>
      <trkpt lat="43.39201" lon="6.0848">
        <ele>327.20001220703</ele>
        <time>2016-03-02T14:20:36Z</time>
      </trkpt>
      <trkpt lat="43.392" lon="6.08484">
        <ele>327.60000610352</ele>
        <time>2016-03-02T14:20:38Z</time>
      </trkpt>
      <trkpt lat="43.39199" lon="6.08496">
        <ele>328.60000610352</ele>
        <time>2016-03-02T14:20:44Z</time>
      </trkpt>
      <trkpt lat="43.39199" lon="6.08498">
        <ele>328.79998779297</ele>
        <time>2016-03-02T14:20:45Z</time>
      </trkpt>
      <trkpt lat="43.39195" lon="6.08502">
        <ele>328.20001220703</ele>
        <time>2016-03-02T14:20:49Z</time>
      </trkpt>
      <trkpt lat="43.39193" lon="6.08506">
        <ele>328</ele>
        <time>2016-03-02T14:20:52Z</time>
      </trkpt>
      <trkpt lat="43.39194" lon="6.08507">
        <ele>328</ele>
        <time>2016-03-02T14:20:59Z</time>
      </trkpt>
      <trkpt lat="43.39194" lon="6.08507">
        <ele>327.79998779297</ele>
        <time>2016-03-02T14:21:01Z</time>
      </trkpt>
      <trkpt lat="43.39194" lon="6.08508">
        <ele>328.20001220703</ele>
        <time>2016-03-02T14:21:06Z</time>
      </trkpt>
      <trkpt lat="43.39194" lon="6.08508">
        <ele>328.20001220703</ele>
        <time>2016-03-02T14:21:12Z</time>
      </trkpt>
      <trkpt lat="43.39194" lon="6.08508">
        <ele>328</ele>
        <time>2016-03-02T14:21:17Z</time>
      </trkpt>
      <trkpt lat="43.39194" lon="6.08508">
        <ele>328</ele>
        <time>2016-03-02T14:21:21Z</time>
      </trkpt>
      <trkpt lat="43.39186" lon="6.08534">
        <ele>327.60000610352</ele>
        <time>2016-03-02T14:21:39Z</time>
      </trkpt>
      <trkpt lat="43.39182" lon="6.08544">
        <ele>326.79998779297</ele>
        <time>2016-03-02T14:21:42Z</time>
      </trkpt>
      <trkpt lat="43.39174" lon="6.08569">
        <ele>325.60000610352</ele>
        <time>2016-03-02T14:21:48Z</time>
      </trkpt>
      <trkpt lat="43.39172" lon="6.08585">
        <ele>324.20001220703</ele>
        <time>2016-03-02T14:21:51Z</time>
      </trkpt>
      <trkpt lat="43.39169" lon="6.08598">
        <ele>323</ele>
        <time>2016-03-02T14:21:54Z</time>
      </trkpt>
      <trkpt lat="43.39164" lon="6.08615">
        <ele>324.20001220703</ele>
        <time>2016-03-02T14:21:57Z</time>
      </trkpt>
      <trkpt lat="43.39159" lon="6.08627">
        <ele>324</ele>
        <time>2016-03-02T14:21:59Z</time>
      </trkpt>
      <trkpt lat="43.39155" lon="6.0864">
        <ele>324</ele>
        <time>2016-03-02T14:22:01Z</time>
      </trkpt>
      <trkpt lat="43.3915" lon="6.08667">
        <ele>324.20001220703</ele>
        <time>2016-03-02T14:22:05Z</time>
      </trkpt>
      <trkpt lat="43.39148" lon="6.08673">
        <ele>324.60000610352</ele>
        <time>2016-03-02T14:22:06Z</time>
      </trkpt>
      <trkpt lat="43.39148" lon="6.08679">
        <ele>324.79998779297</ele>
        <time>2016-03-02T14:22:07Z</time>
      </trkpt>
      <trkpt lat="43.39146" lon="6.08692">
        <ele>325.20001220703</ele>
        <time>2016-03-02T14:22:09Z</time>
      </trkpt>
      <trkpt lat="43.39142" lon="6.08715">
        <ele>324.20001220703</ele>
        <time>2016-03-02T14:22:16Z</time>
      </trkpt>
      <trkpt lat="43.39138" lon="6.08734">
        <ele>325.39999389648</ele>
        <time>2016-03-02T14:22:20Z</time>
      </trkpt>
      <trkpt lat="43.3913" lon="6.08766">
        <ele>325.20001220703</ele>
        <time>2016-03-02T14:22:27Z</time>
      </trkpt>
      <trkpt lat="43.39122" lon="6.08793">
        <ele>325.79998779297</ele>
        <time>2016-03-02T14:22:33Z</time>
      </trkpt>
      <trkpt lat="43.39117" lon="6.08809">
        <ele>326.60000610352</ele>
        <time>2016-03-02T14:22:37Z</time>
      </trkpt>
      <trkpt lat="43.39112" lon="6.08836">
        <ele>327.60000610352</ele>
        <time>2016-03-02T14:22:43Z</time>
      </trkpt>
      <trkpt lat="43.39111" lon="6.08852">
        <ele>327.79998779297</ele>
        <time>2016-03-02T14:22:47Z</time>
      </trkpt>
      <trkpt lat="43.39105" lon="6.08876">
        <ele>329</ele>
        <time>2016-03-02T14:22:54Z</time>
      </trkpt>
      <trkpt lat="43.39091" lon="6.08937">
        <ele>329.20001220703</ele>
        <time>2016-03-02T14:23:07Z</time>
      </trkpt>
      <trkpt lat="43.39077" lon="6.08981">
        <ele>329.79998779297</ele>
        <time>2016-03-02T14:23:17Z</time>
      </trkpt>
      <trkpt lat="43.39072" lon="6.08997">
        <ele>330.20001220703</ele>
        <time>2016-03-02T14:23:21Z</time>
      </trkpt>
      <trkpt lat="43.39062" lon="6.09019">
        <ele>331.39999389648</ele>
        <time>2016-03-02T14:23:28Z</time>
      </trkpt>
      <trkpt lat="43.39059" lon="6.09025">
        <ele>330.39999389648</ele>
        <time>2016-03-02T14:23:30Z</time>
      </trkpt>
      <trkpt lat="43.3904" lon="6.09072">
        <ele>331.60000610352</ele>
        <time>2016-03-02T14:23:45Z</time>
      </trkpt>
      <trkpt lat="43.39021" lon="6.09133">
        <ele>333</ele>
        <time>2016-03-02T14:24:04Z</time>
      </trkpt>
      <trkpt lat="43.39014" lon="6.09159">
        <ele>333.60000610352</ele>
        <time>2016-03-02T14:24:11Z</time>
      </trkpt>
      <trkpt lat="43.39006" lon="6.09203">
        <ele>334.20001220703</ele>
        <time>2016-03-02T14:24:23Z</time>
      </trkpt>
      <trkpt lat="43.38999" lon="6.0924">
        <ele>334.79998779297</ele>
        <time>2016-03-02T14:24:32Z</time>
      </trkpt>
      <trkpt lat="43.38998" lon="6.09245">
        <ele>334.79998779297</ele>
        <time>2016-03-02T14:24:33Z</time>
      </trkpt>
      <trkpt lat="43.38988" lon="6.0927">
        <ele>335.60000610352</ele>
        <time>2016-03-02T14:24:40Z</time>
      </trkpt>
      <trkpt lat="43.38981" lon="6.09284">
        <ele>336.60000610352</ele>
        <time>2016-03-02T14:24:45Z</time>
      </trkpt>
      <trkpt lat="43.38973" lon="6.09297">
        <ele>337.39999389648</ele>
        <time>2016-03-02T14:24:52Z</time>
      </trkpt>
      <trkpt lat="43.38966" lon="6.09311">
        <ele>337.60000610352</ele>
        <time>2016-03-02T14:24:58Z</time>
      </trkpt>
      <trkpt lat="43.38932" lon="6.09351">
        <ele>338.39999389648</ele>
        <time>2016-03-02T14:25:16Z</time>
      </trkpt>
      <trkpt lat="43.38923" lon="6.09359">
        <ele>339</ele>
        <time>2016-03-02T14:25:21Z</time>
      </trkpt>
      <trkpt lat="43.38917" lon="6.09365">
        <ele>340</ele>
        <time>2016-03-02T14:25:25Z</time>
      </trkpt>
      <trkpt lat="43.38913" lon="6.09371">
        <ele>340.20001220703</ele>
        <time>2016-03-02T14:25:30Z</time>
      </trkpt>
      <trkpt lat="43.38911" lon="6.09374">
        <ele>340.39999389648</ele>
        <time>2016-03-02T14:25:37Z</time>
      </trkpt>
      <trkpt lat="43.38906" lon="6.09382">
        <ele>341</ele>
        <time>2016-03-02T14:25:46Z</time>
      </trkpt>
      <trkpt lat="43.38903" lon="6.09384">
        <ele>341</ele>
        <time>2016-03-02T14:25:48Z</time>
      </trkpt>
      <trkpt lat="43.38897" lon="6.09393">
        <ele>342</ele>
        <time>2016-03-02T14:25:53Z</time>
      </trkpt>
      <trkpt lat="43.38897" lon="6.09396">
        <ele>342.20001220703</ele>
        <time>2016-03-02T14:25:55Z</time>
      </trkpt>
      <trkpt lat="43.38895" lon="6.09405">
        <ele>342.39999389648</ele>
        <time>2016-03-02T14:26:09Z</time>
      </trkpt>
      <trkpt lat="43.38895" lon="6.09406">
        <ele>342.20001220703</ele>
        <time>2016-03-02T14:26:16Z</time>
      </trkpt>
      <trkpt lat="43.38892" lon="6.09417">
        <ele>343</ele>
        <time>2016-03-02T14:26:34Z</time>
      </trkpt>
      <trkpt lat="43.38888" lon="6.09417">
        <ele>343.39999389648</ele>
        <time>2016-03-02T14:26:37Z</time>
      </trkpt>
      <trkpt lat="43.38883" lon="6.09425">
        <ele>344.79998779297</ele>
        <time>2016-03-02T14:26:52Z</time>
      </trkpt>
      <trkpt lat="43.38882" lon="6.09426">
        <ele>345.39999389648</ele>
        <time>2016-03-02T14:26:55Z</time>
      </trkpt>
      <trkpt lat="43.38881" lon="6.09427">
        <ele>345.79998779297</ele>
        <time>2016-03-02T14:26:57Z</time>
      </trkpt>
      <trkpt lat="43.38881" lon="6.09427">
        <ele>345.39999389648</ele>
        <time>2016-03-02T14:27:02Z</time>
      </trkpt>
      <trkpt lat="43.3888" lon="6.09428">
        <ele>346</ele>
        <time>2016-03-02T14:27:13Z</time>
      </trkpt>
      <trkpt lat="43.3888" lon="6.09428">
        <ele>346.39999389648</ele>
        <time>2016-03-02T14:27:20Z</time>
      </trkpt>
      <trkpt lat="43.3888" lon="6.09428">
        <ele>345.79998779297</ele>
        <time>2016-03-02T14:27:27Z</time>
      </trkpt>
      <trkpt lat="43.38881" lon="6.09428">
        <ele>345.60000610352</ele>
        <time>2016-03-02T14:27:33Z</time>
      </trkpt>
      <trkpt lat="43.38876" lon="6.0943">
        <ele>344.79998779297</ele>
        <time>2016-03-02T14:27:41Z</time>
      </trkpt>
      <trkpt lat="43.38875" lon="6.09433">
        <ele>344.39999389648</ele>
        <time>2016-03-02T14:27:43Z</time>
      </trkpt>
      <trkpt lat="43.38876" lon="6.09434">
        <ele>343.60000610352</ele>
        <time>2016-03-02T14:27:52Z</time>
      </trkpt>
      <trkpt lat="43.38876" lon="6.09434">
        <ele>342.79998779297</ele>
        <time>2016-03-02T14:27:58Z</time>
      </trkpt>
      <trkpt lat="43.38876" lon="6.09434">
        <ele>343.20001220703</ele>
        <time>2016-03-02T14:28:14Z</time>
      </trkpt>
      <trkpt lat="43.38876" lon="6.09434">
        <ele>343.60000610352</ele>
        <time>2016-03-02T14:28:25Z</time>
      </trkpt>
      <trkpt lat="43.38876" lon="6.09434">
        <ele>344.20001220703</ele>
        <time>2016-03-02T14:28:55Z</time>
      </trkpt>
      <trkpt lat="43.38876" lon="6.09434">
        <ele>344.20001220703</ele>
        <time>2016-03-02T14:29:40Z</time>
      </trkpt>
      <trkpt lat="43.38876" lon="6.09434">
        <ele>344.20001220703</ele>
        <time>2016-03-02T14:30:29Z</time>
      </trkpt>
      <trkpt lat="43.38876" lon="6.09434">
        <ele>345</ele>
        <time>2016-03-02T14:30:43Z</time>
      </trkpt>
      <trkpt lat="43.38876" lon="6.09434">
        <ele>344.60000610352</ele>
        <time>2016-03-02T14:30:47Z</time>
      </trkpt>
      <trkpt lat="43.38876" lon="6.09434">
        <ele>344.60000610352</ele>
        <time>2016-03-02T14:31:02Z</time>
      </trkpt>
      <trkpt lat="43.38876" lon="6.09434">
        <ele>344.60000610352</ele>
        <time>2016-03-02T14:31:10Z</time>
      </trkpt>
      <trkpt lat="43.38876" lon="6.09434">
        <ele>344.60000610352</ele>
        <time>2016-03-02T14:31:16Z</time>
      </trkpt>
      <trkpt lat="43.38876" lon="6.09434">
        <ele>344.79998779297</ele>
        <time>2016-03-02T14:31:52Z</time>
      </trkpt>
      <trkpt lat="43.38876" lon="6.09434">
        <ele>345.60000610352</ele>
        <time>2016-03-02T14:32:41Z</time>
      </trkpt>
      <trkpt lat="43.38876" lon="6.09434">
        <ele>345.20001220703</ele>
        <time>2016-03-02T14:33:02Z</time>
      </trkpt>
      <trkpt lat="43.38876" lon="6.09434">
        <ele>345.20001220703</ele>
        <time>2016-03-02T14:33:22Z</time>
      </trkpt>
      <trkpt lat="43.38876" lon="6.09433">
        <ele>346.39999389648</ele>
        <time>2016-03-02T14:33:36Z</time>
      </trkpt>
      <trkpt lat="43.38876" lon="6.09433">
        <ele>346.39999389648</ele>
        <time>2016-03-02T14:33:41Z</time>
      </trkpt>
      <trkpt lat="43.38876" lon="6.09433">
        <ele>346.39999389648</ele>
        <time>2016-03-02T14:34:05Z</time>
      </trkpt>
      <trkpt lat="43.38875" lon="6.09434">
        <ele>345.60000610352</ele>
        <time>2016-03-02T14:34:19Z</time>
      </trkpt>
      <trkpt lat="43.38875" lon="6.09434">
        <ele>345.39999389648</ele>
        <time>2016-03-02T14:34:30Z</time>
      </trkpt>
      <trkpt lat="43.38875" lon="6.09434">
        <ele>345.60000610352</ele>
        <time>2016-03-02T14:35:21Z</time>
      </trkpt>
      <trkpt lat="43.38875" lon="6.09434">
        <ele>345.39999389648</ele>
        <time>2016-03-02T14:35:25Z</time>
      </trkpt>
      <trkpt lat="43.38875" lon="6.09434">
        <ele>345</ele>
        <time>2016-03-02T14:35:30Z</time>
      </trkpt>
      <trkpt lat="43.38875" lon="6.09435">
        <ele>344.79998779297</ele>
        <time>2016-03-02T14:35:32Z</time>
      </trkpt>
      <trkpt lat="43.38875" lon="6.09435">
        <ele>345.39999389648</ele>
        <time>2016-03-02T14:36:14Z</time>
      </trkpt>
      <trkpt lat="43.38869" lon="6.09428">
        <ele>345.20001220703</ele>
        <time>2016-03-02T14:36:42Z</time>
      </trkpt>
      <trkpt lat="43.38863" lon="6.0942">
        <ele>344.20001220703</ele>
        <time>2016-03-02T14:36:45Z</time>
      </trkpt>
      <trkpt lat="43.3886" lon="6.09416">
        <ele>344.20001220703</ele>
        <time>2016-03-02T14:36:47Z</time>
      </trkpt>
      <trkpt lat="43.38852" lon="6.09403">
        <ele>342.39999389648</ele>
        <time>2016-03-02T14:36:51Z</time>
      </trkpt>
      <trkpt lat="43.3885" lon="6.09401">
        <ele>341</ele>
        <time>2016-03-02T14:36:52Z</time>
      </trkpt>
      <trkpt lat="43.38847" lon="6.09392">
        <ele>340.60000610352</ele>
        <time>2016-03-02T14:36:55Z</time>
      </trkpt>
      <trkpt lat="43.38845" lon="6.09392">
        <ele>340</ele>
        <time>2016-03-02T14:36:56Z</time>
      </trkpt>
      <trkpt lat="43.38844" lon="6.09394">
        <ele>339.60000610352</ele>
        <time>2016-03-02T14:36:57Z</time>
      </trkpt>
      <trkpt lat="43.3884" lon="6.09403">
        <ele>338.60000610352</ele>
        <time>2016-03-02T14:37:00Z</time>
      </trkpt>
      <trkpt lat="43.38838" lon="6.09412">
        <ele>336.60000610352</ele>
        <time>2016-03-02T14:37:02Z</time>
      </trkpt>
      <trkpt lat="43.38836" lon="6.09418">
        <ele>336</ele>
        <time>2016-03-02T14:37:04Z</time>
      </trkpt>
      <trkpt lat="43.38834" lon="6.09421">
        <ele>335.60000610352</ele>
        <time>2016-03-02T14:37:05Z</time>
      </trkpt>
      <trkpt lat="43.38833" lon="6.09424">
        <ele>334.79998779297</ele>
        <time>2016-03-02T14:37:06Z</time>
      </trkpt>
      <trkpt lat="43.38828" lon="6.09441">
        <ele>335.39999389648</ele>
        <time>2016-03-02T14:37:14Z</time>
      </trkpt>
      <trkpt lat="43.38827" lon="6.09449">
        <ele>335.60000610352</ele>
        <time>2016-03-02T14:37:30Z</time>
      </trkpt>
      <trkpt lat="43.38838" lon="6.09455">
        <ele>336</ele>
        <time>2016-03-02T14:38:30Z</time>
      </trkpt>
      <trkpt lat="43.3884" lon="6.09456">
        <ele>336.39999389648</ele>
        <time>2016-03-02T14:38:31Z</time>
      </trkpt>
      <trkpt lat="43.38845" lon="6.09458">
        <ele>337.60000610352</ele>
        <time>2016-03-02T14:38:35Z</time>
      </trkpt>
      <trkpt lat="43.38848" lon="6.0946">
        <ele>339.20001220703</ele>
        <time>2016-03-02T14:38:38Z</time>
      </trkpt>
      <trkpt lat="43.38851" lon="6.09462">
        <ele>339.79998779297</ele>
        <time>2016-03-02T14:38:40Z</time>
      </trkpt>
      <trkpt lat="43.38853" lon="6.09462">
        <ele>340.39999389648</ele>
        <time>2016-03-02T14:38:42Z</time>
      </trkpt>
      <trkpt lat="43.38855" lon="6.09462">
        <ele>340.60000610352</ele>
        <time>2016-03-02T14:38:44Z</time>
      </trkpt>
      <trkpt lat="43.38855" lon="6.09462">
        <ele>340.79998779297</ele>
        <time>2016-03-02T14:38:49Z</time>
      </trkpt>
      <trkpt lat="43.38856" lon="6.09459">
        <ele>340.60000610352</ele>
        <time>2016-03-02T14:38:54Z</time>
      </trkpt>
      <trkpt lat="43.38857" lon="6.09458">
        <ele>341</ele>
        <time>2016-03-02T14:38:56Z</time>
      </trkpt>
      <trkpt lat="43.38857" lon="6.09457">
        <ele>341.39999389648</ele>
        <time>2016-03-02T14:38:58Z</time>
      </trkpt>
      <trkpt lat="43.38858" lon="6.09458">
        <ele>342.39999389648</ele>
        <time>2016-03-02T14:39:09Z</time>
      </trkpt>
      <trkpt lat="43.38858" lon="6.09458">
        <ele>342.79998779297</ele>
        <time>2016-03-02T14:39:13Z</time>
      </trkpt>
      <trkpt lat="43.38858" lon="6.09458">
        <ele>342.20001220703</ele>
        <time>2016-03-02T14:39:33Z</time>
      </trkpt>
      <trkpt lat="43.38858" lon="6.09458">
        <ele>342.20001220703</ele>
        <time>2016-03-02T14:39:36Z</time>
      </trkpt>
      <trkpt lat="43.38858" lon="6.09458">
        <ele>342.20001220703</ele>
        <time>2016-03-02T14:39:38Z</time>
      </trkpt>
      <trkpt lat="43.38858" lon="6.09458">
        <ele>342.20001220703</ele>
        <time>2016-03-02T14:39:41Z</time>
      </trkpt>
      <trkpt lat="43.38858" lon="6.09458">
        <ele>342.39999389648</ele>
        <time>2016-03-02T14:39:46Z</time>
      </trkpt>
      <trkpt lat="43.38858" lon="6.09458">
        <ele>342.39999389648</ele>
        <time>2016-03-02T14:39:56Z</time>
      </trkpt>
      <trkpt lat="43.38858" lon="6.09458">
        <ele>342.60000610352</ele>
        <time>2016-03-02T14:40:10Z</time>
      </trkpt>
      <trkpt lat="43.38858" lon="6.09458">
        <ele>342.39999389648</ele>
        <time>2016-03-02T14:40:14Z</time>
      </trkpt>
      <trkpt lat="43.38858" lon="6.09458">
        <ele>342.39999389648</ele>
        <time>2016-03-02T14:40:17Z</time>
      </trkpt>
      <trkpt lat="43.38858" lon="6.09459">
        <ele>342.20001220703</ele>
        <time>2016-03-02T14:40:22Z</time>
      </trkpt>
      <trkpt lat="43.3886" lon="6.09461">
        <ele>342.39999389648</ele>
        <time>2016-03-02T14:40:24Z</time>
      </trkpt>
      <trkpt lat="43.38862" lon="6.09464">
        <ele>342.79998779297</ele>
        <time>2016-03-02T14:40:26Z</time>
      </trkpt>
      <trkpt lat="43.38864" lon="6.09467">
        <ele>343.60000610352</ele>
        <time>2016-03-02T14:40:28Z</time>
      </trkpt>
      <trkpt lat="43.38867" lon="6.0947">
        <ele>344.20001220703</ele>
        <time>2016-03-02T14:40:30Z</time>
      </trkpt>
      <trkpt lat="43.38868" lon="6.09472">
        <ele>344.39999389648</ele>
        <time>2016-03-02T14:40:31Z</time>
      </trkpt>
      <trkpt lat="43.38869" lon="6.09475">
        <ele>344.79998779297</ele>
        <time>2016-03-02T14:40:33Z</time>
      </trkpt>
      <trkpt lat="43.38871" lon="6.09476">
        <ele>345.20001220703</ele>
        <time>2016-03-02T14:40:36Z</time>
      </trkpt>
      <trkpt lat="43.38876" lon="6.09479">
        <ele>345.60000610352</ele>
        <time>2016-03-02T14:40:40Z</time>
      </trkpt>
      <trkpt lat="43.38877" lon="6.0948">
        <ele>345.79998779297</ele>
        <time>2016-03-02T14:40:41Z</time>
      </trkpt>
      <trkpt lat="43.38879" lon="6.09484">
        <ele>346.60000610352</ele>
        <time>2016-03-02T14:40:44Z</time>
      </trkpt>
      <trkpt lat="43.38879" lon="6.09486">
        <ele>346.79998779297</ele>
        <time>2016-03-02T14:40:45Z</time>
      </trkpt>
      <trkpt lat="43.38876" lon="6.09491">
        <ele>346.20001220703</ele>
        <time>2016-03-02T14:40:52Z</time>
      </trkpt>
      <trkpt lat="43.38876" lon="6.09491">
        <ele>345.79998779297</ele>
        <time>2016-03-02T14:40:54Z</time>
      </trkpt>
      <trkpt lat="43.38874" lon="6.09492">
        <ele>345.79998779297</ele>
        <time>2016-03-02T14:40:55Z</time>
      </trkpt>
      <trkpt lat="43.38874" lon="6.09493">
        <ele>345.20001220703</ele>
        <time>2016-03-02T14:41:01Z</time>
      </trkpt>
      <trkpt lat="43.38874" lon="6.09497">
        <ele>345</ele>
        <time>2016-03-02T14:41:05Z</time>
      </trkpt>
      <trkpt lat="43.38874" lon="6.09524">
        <ele>345</ele>
        <time>2016-03-02T14:41:16Z</time>
      </trkpt>
      <trkpt lat="43.38875" lon="6.09533">
        <ele>344.79998779297</ele>
        <time>2016-03-02T14:41:18Z</time>
      </trkpt>
      <trkpt lat="43.38877" lon="6.09556">
        <ele>346</ele>
        <time>2016-03-02T14:41:22Z</time>
      </trkpt>
      <trkpt lat="43.38877" lon="6.09564">
        <ele>346</ele>
        <time>2016-03-02T14:41:23Z</time>
      </trkpt>
      <trkpt lat="43.38879" lon="6.09587">
        <ele>345</ele>
        <time>2016-03-02T14:41:26Z</time>
      </trkpt>
      <trkpt lat="43.38881" lon="6.09604">
        <ele>343.79998779297</ele>
        <time>2016-03-02T14:41:28Z</time>
      </trkpt>
      <trkpt lat="43.38884" lon="6.09613">
        <ele>343.39999389648</ele>
        <time>2016-03-02T14:41:29Z</time>
      </trkpt>
      <trkpt lat="43.38897" lon="6.09637">
        <ele>343.60000610352</ele>
        <time>2016-03-02T14:41:33Z</time>
      </trkpt>
      <trkpt lat="43.38897" lon="6.09659">
        <ele>342.79998779297</ele>
        <time>2016-03-02T14:41:36Z</time>
      </trkpt>
      <trkpt lat="43.38898" lon="6.09668">
        <ele>342.60000610352</ele>
        <time>2016-03-02T14:41:37Z</time>
      </trkpt>
      <trkpt lat="43.38899" lon="6.09695">
        <ele>341.60000610352</ele>
        <time>2016-03-02T14:41:40Z</time>
      </trkpt>
      <trkpt lat="43.389" lon="6.09704">
        <ele>341</ele>
        <time>2016-03-02T14:41:41Z</time>
      </trkpt>
      <trkpt lat="43.38901" lon="6.09714">
        <ele>340</ele>
        <time>2016-03-02T14:41:42Z</time>
      </trkpt>
      <trkpt lat="43.38903" lon="6.09747">
        <ele>339.79998779297</ele>
        <time>2016-03-02T14:41:45Z</time>
      </trkpt>
      <trkpt lat="43.38902" lon="6.09757">
        <ele>338.79998779297</ele>
        <time>2016-03-02T14:41:46Z</time>
      </trkpt>
      <trkpt lat="43.38899" lon="6.0978">
        <ele>339</ele>
        <time>2016-03-02T14:41:48Z</time>
      </trkpt>
      <trkpt lat="43.38895" lon="6.09802">
        <ele>336.60000610352</ele>
        <time>2016-03-02T14:41:50Z</time>
      </trkpt>
      <trkpt lat="43.3889" lon="6.09822">
        <ele>334.60000610352</ele>
        <time>2016-03-02T14:41:52Z</time>
      </trkpt>
      <trkpt lat="43.38888" lon="6.09835">
        <ele>333.39999389648</ele>
        <time>2016-03-02T14:41:53Z</time>
      </trkpt>
      <trkpt lat="43.38888" lon="6.09845">
        <ele>332.20001220703</ele>
        <time>2016-03-02T14:41:54Z</time>
      </trkpt>
      <trkpt lat="43.38887" lon="6.09858">
        <ele>331</ele>
        <time>2016-03-02T14:41:55Z</time>
      </trkpt>
      <trkpt lat="43.38885" lon="6.0987">
        <ele>329.20001220703</ele>
        <time>2016-03-02T14:41:56Z</time>
      </trkpt>
      <trkpt lat="43.38882" lon="6.09883">
        <ele>328</ele>
        <time>2016-03-02T14:41:57Z</time>
      </trkpt>
      <trkpt lat="43.3888" lon="6.09895">
        <ele>326.39999389648</ele>
        <time>2016-03-02T14:41:58Z</time>
      </trkpt>
      <trkpt lat="43.38874" lon="6.0992">
        <ele>325.20001220703</ele>
        <time>2016-03-02T14:42:00Z</time>
      </trkpt>
      <trkpt lat="43.38865" lon="6.09963">
        <ele>323.39999389648</ele>
        <time>2016-03-02T14:42:03Z</time>
      </trkpt>
      <trkpt lat="43.38863" lon="6.09993">
        <ele>321.60000610352</ele>
        <time>2016-03-02T14:42:05Z</time>
      </trkpt>
      <trkpt lat="43.38858" lon="6.10023">
        <ele>320.60000610352</ele>
        <time>2016-03-02T14:42:07Z</time>
      </trkpt>
      <trkpt lat="43.38853" lon="6.10036">
        <ele>319.60000610352</ele>
        <time>2016-03-02T14:42:08Z</time>
      </trkpt>
      <trkpt lat="43.3885" lon="6.10051">
        <ele>317.39999389648</ele>
        <time>2016-03-02T14:42:09Z</time>
      </trkpt>
      <trkpt lat="43.38847" lon="6.10062">
        <ele>315.79998779297</ele>
        <time>2016-03-02T14:42:10Z</time>
      </trkpt>
      <trkpt lat="43.38835" lon="6.1011">
        <ele>314.39999389648</ele>
        <time>2016-03-02T14:42:14Z</time>
      </trkpt>
      <trkpt lat="43.38833" lon="6.1012">
        <ele>313.39999389648</ele>
        <time>2016-03-02T14:42:15Z</time>
      </trkpt>
      <trkpt lat="43.38831" lon="6.10128">
        <ele>312.39999389648</ele>
        <time>2016-03-02T14:42:16Z</time>
      </trkpt>
      <trkpt lat="43.38825" lon="6.10143">
        <ele>311.20001220703</ele>
        <time>2016-03-02T14:42:19Z</time>
      </trkpt>
      <trkpt lat="43.38822" lon="6.10147">
        <ele>310.20001220703</ele>
        <time>2016-03-02T14:42:22Z</time>
      </trkpt>
      <trkpt lat="43.38822" lon="6.10149">
        <ele>310</ele>
        <time>2016-03-02T14:42:23Z</time>
      </trkpt>
      <trkpt lat="43.38826" lon="6.10152">
        <ele>309.20001220703</ele>
        <time>2016-03-02T14:42:52Z</time>
      </trkpt>
      <trkpt lat="43.38827" lon="6.10158">
        <ele>309</ele>
        <time>2016-03-02T14:42:55Z</time>
      </trkpt>
      <trkpt lat="43.38827" lon="6.10166">
        <ele>309.20001220703</ele>
        <time>2016-03-02T14:43:04Z</time>
      </trkpt>
      <trkpt lat="43.38822" lon="6.10192">
        <ele>310.20001220703</ele>
        <time>2016-03-02T14:43:16Z</time>
      </trkpt>
      <trkpt lat="43.38821" lon="6.10194">
        <ele>310.60000610352</ele>
        <time>2016-03-02T14:43:21Z</time>
      </trkpt>
      <trkpt lat="43.38822" lon="6.10194">
        <ele>310.20001220703</ele>
        <time>2016-03-02T14:43:27Z</time>
      </trkpt>
      <trkpt lat="43.3882" lon="6.10198">
        <ele>310.20001220703</ele>
        <time>2016-03-02T14:43:34Z</time>
      </trkpt>
      <trkpt lat="43.3882" lon="6.10201">
        <ele>310.60000610352</ele>
        <time>2016-03-02T14:43:35Z</time>
      </trkpt>
      <trkpt lat="43.38818" lon="6.10207">
        <ele>311</ele>
        <time>2016-03-02T14:43:38Z</time>
      </trkpt>
      <trkpt lat="43.38818" lon="6.10212">
        <ele>311.60000610352</ele>
        <time>2016-03-02T14:43:40Z</time>
      </trkpt>
      <trkpt lat="43.38824" lon="6.10241">
        <ele>309.79998779297</ele>
        <time>2016-03-02T14:43:48Z</time>
      </trkpt>
      <trkpt lat="43.38826" lon="6.10253">
        <ele>309</ele>
        <time>2016-03-02T14:43:50Z</time>
      </trkpt>
      <trkpt lat="43.38826" lon="6.10259">
        <ele>308.79998779297</ele>
        <time>2016-03-02T14:43:51Z</time>
      </trkpt>
      <trkpt lat="43.38829" lon="6.10278">
        <ele>307.60000610352</ele>
        <time>2016-03-02T14:43:54Z</time>
      </trkpt>
      <trkpt lat="43.38829" lon="6.10286">
        <ele>307.20001220703</ele>
        <time>2016-03-02T14:43:55Z</time>
      </trkpt>
      <trkpt lat="43.38829" lon="6.1031">
        <ele>306.60000610352</ele>
        <time>2016-03-02T14:43:58Z</time>
      </trkpt>
      <trkpt lat="43.38829" lon="6.10333">
        <ele>306.60000610352</ele>
        <time>2016-03-02T14:44:01Z</time>
      </trkpt>
      <trkpt lat="43.3883" lon="6.10357">
        <ele>306.20001220703</ele>
        <time>2016-03-02T14:44:04Z</time>
      </trkpt>
      <trkpt lat="43.38831" lon="6.10387">
        <ele>305.39999389648</ele>
        <time>2016-03-02T14:44:08Z</time>
      </trkpt>
      <trkpt lat="43.38828" lon="6.10429">
        <ele>304.39999389648</ele>
        <time>2016-03-02T14:44:15Z</time>
      </trkpt>
      <trkpt lat="43.38825" lon="6.10446">
        <ele>304.20001220703</ele>
        <time>2016-03-02T14:44:18Z</time>
      </trkpt>
      <trkpt lat="43.38826" lon="6.10466">
        <ele>303</ele>
        <time>2016-03-02T14:44:23Z</time>
      </trkpt>
      <trkpt lat="43.38823" lon="6.10485">
        <ele>301.79998779297</ele>
        <time>2016-03-02T14:44:27Z</time>
      </trkpt>
      <trkpt lat="43.38822" lon="6.10491">
        <ele>301.79998779297</ele>
        <time>2016-03-02T14:44:28Z</time>
      </trkpt>
      <trkpt lat="43.38818" lon="6.10508">
        <ele>301.39999389648</ele>
        <time>2016-03-02T14:44:31Z</time>
      </trkpt>
      <trkpt lat="43.38813" lon="6.10523">
        <ele>300.60000610352</ele>
        <time>2016-03-02T14:44:34Z</time>
      </trkpt>
      <trkpt lat="43.38813" lon="6.10535">
        <ele>300.79998779297</ele>
        <time>2016-03-02T14:44:37Z</time>
      </trkpt>
      <trkpt lat="43.38811" lon="6.1055">
        <ele>299.79998779297</ele>
        <time>2016-03-02T14:44:43Z</time>
      </trkpt>
      <trkpt lat="43.38811" lon="6.1055">
        <ele>299.39999389648</ele>
        <time>2016-03-02T14:44:54Z</time>
      </trkpt>
      <trkpt lat="43.38811" lon="6.1055">
        <ele>299.20001220703</ele>
        <time>2016-03-02T14:45:05Z</time>
      </trkpt>
      <trkpt lat="43.38811" lon="6.1055">
        <ele>300</ele>
        <time>2016-03-02T14:45:35Z</time>
      </trkpt>
      <trkpt lat="43.38811" lon="6.10553">
        <ele>300</ele>
        <time>2016-03-02T14:45:50Z</time>
      </trkpt>
      <trkpt lat="43.38807" lon="6.1056">
        <ele>300</ele>
        <time>2016-03-02T14:45:54Z</time>
      </trkpt>
      <trkpt lat="43.38806" lon="6.10576">
        <ele>298.79998779297</ele>
        <time>2016-03-02T14:45:58Z</time>
      </trkpt>
      <trkpt lat="43.38805" lon="6.10587">
        <ele>298.20001220703</ele>
        <time>2016-03-02T14:46:00Z</time>
      </trkpt>
      <trkpt lat="43.38803" lon="6.10594">
        <ele>297.60000610352</ele>
        <time>2016-03-02T14:46:01Z</time>
      </trkpt>
      <trkpt lat="43.38797" lon="6.10619">
        <ele>296.60000610352</ele>
        <time>2016-03-02T14:46:05Z</time>
      </trkpt>
      <trkpt lat="43.38793" lon="6.10648">
        <ele>295.39999389648</ele>
        <time>2016-03-02T14:46:13Z</time>
      </trkpt>
      <trkpt lat="43.38783" lon="6.10687">
        <ele>294.20001220703</ele>
        <time>2016-03-02T14:46:23Z</time>
      </trkpt>
      <trkpt lat="43.38779" lon="6.10704">
        <ele>293.60000610352</ele>
        <time>2016-03-02T14:46:26Z</time>
      </trkpt>
      <trkpt lat="43.38776" lon="6.10727">
        <ele>293.20001220703</ele>
        <time>2016-03-02T14:46:30Z</time>
      </trkpt>
      <trkpt lat="43.38772" lon="6.10752">
        <ele>292.79998779297</ele>
        <time>2016-03-02T14:46:40Z</time>
      </trkpt>
      <trkpt lat="43.38771" lon="6.10754">
        <ele>292.79998779297</ele>
        <time>2016-03-02T14:46:42Z</time>
      </trkpt>
      <trkpt lat="43.38771" lon="6.10761">
        <ele>293.20001220703</ele>
        <time>2016-03-02T14:46:49Z</time>
      </trkpt>
      <trkpt lat="43.38773" lon="6.10759">
        <ele>293.39999389648</ele>
        <time>2016-03-02T14:46:52Z</time>
      </trkpt>
      <trkpt lat="43.38772" lon="6.10757">
        <ele>293</ele>
        <time>2016-03-02T14:46:54Z</time>
      </trkpt>
      <trkpt lat="43.38769" lon="6.10758">
        <ele>293</ele>
        <time>2016-03-02T14:46:56Z</time>
      </trkpt>
      <trkpt lat="43.38764" lon="6.10762">
        <ele>293.20001220703</ele>
        <time>2016-03-02T14:46:58Z</time>
      </trkpt>
      <trkpt lat="43.3876" lon="6.10765">
        <ele>293.60000610352</ele>
        <time>2016-03-02T14:47:00Z</time>
      </trkpt>
      <trkpt lat="43.38758" lon="6.10766">
        <ele>294</ele>
        <time>2016-03-02T14:47:01Z</time>
      </trkpt>
      <trkpt lat="43.38755" lon="6.10767">
        <ele>294.39999389648</ele>
        <time>2016-03-02T14:47:03Z</time>
      </trkpt>
      <trkpt lat="43.38745" lon="6.10772">
        <ele>295.20001220703</ele>
        <time>2016-03-02T14:47:07Z</time>
      </trkpt>
      <trkpt lat="43.38729" lon="6.10798">
        <ele>295.20001220703</ele>
        <time>2016-03-02T14:47:18Z</time>
      </trkpt>
      <trkpt lat="43.38718" lon="6.10804">
        <ele>295.60000610352</ele>
        <time>2016-03-02T14:47:23Z</time>
      </trkpt>
      <trkpt lat="43.38711" lon="6.10809">
        <ele>296.20001220703</ele>
        <time>2016-03-02T14:47:26Z</time>
      </trkpt>
      <trkpt lat="43.38692" lon="6.10865">
        <ele>295.79998779297</ele>
        <time>2016-03-02T14:47:42Z</time>
      </trkpt>
      <trkpt lat="43.38686" lon="6.10883">
        <ele>295</ele>
        <time>2016-03-02T14:47:46Z</time>
      </trkpt>
      <trkpt lat="43.38681" lon="6.10897">
        <ele>295.20001220703</ele>
        <time>2016-03-02T14:47:49Z</time>
      </trkpt>
      <trkpt lat="43.38676" lon="6.10918">
        <ele>295.39999389648</ele>
        <time>2016-03-02T14:47:53Z</time>
      </trkpt>
      <trkpt lat="43.38669" lon="6.10949">
        <ele>295.60000610352</ele>
        <time>2016-03-02T14:47:59Z</time>
      </trkpt>
      <trkpt lat="43.38665" lon="6.10972">
        <ele>296</ele>
        <time>2016-03-02T14:48:04Z</time>
      </trkpt>
      <trkpt lat="43.38662" lon="6.10997">
        <ele>296.20001220703</ele>
        <time>2016-03-02T14:48:10Z</time>
      </trkpt>
      <trkpt lat="43.38658" lon="6.11001">
        <ele>296.39999389648</ele>
        <time>2016-03-02T14:48:12Z</time>
      </trkpt>
      <trkpt lat="43.38654" lon="6.11001">
        <ele>296.79998779297</ele>
        <time>2016-03-02T14:48:14Z</time>
      </trkpt>
      <trkpt lat="43.38653" lon="6.11001">
        <ele>296.79998779297</ele>
        <time>2016-03-02T14:48:15Z</time>
      </trkpt>
      <trkpt lat="43.38652" lon="6.11001">
        <ele>297</ele>
        <time>2016-03-02T14:48:16Z</time>
      </trkpt>
      <trkpt lat="43.38646" lon="6.11003">
        <ele>297.20001220703</ele>
        <time>2016-03-02T14:48:20Z</time>
      </trkpt>
      <trkpt lat="43.38645" lon="6.11004">
        <ele>298.20001220703</ele>
        <time>2016-03-02T14:48:22Z</time>
      </trkpt>
      <trkpt lat="43.38643" lon="6.11006">
        <ele>298.39999389648</ele>
        <time>2016-03-02T14:48:24Z</time>
      </trkpt>
      <trkpt lat="43.38643" lon="6.11008">
        <ele>299</ele>
        <time>2016-03-02T14:48:27Z</time>
      </trkpt>
      <trkpt lat="43.38643" lon="6.11009">
        <ele>299.20001220703</ele>
        <time>2016-03-02T14:48:28Z</time>
      </trkpt>
      <trkpt lat="43.38645" lon="6.11012">
        <ele>298.60000610352</ele>
        <time>2016-03-02T14:48:30Z</time>
      </trkpt>
      <trkpt lat="43.38652" lon="6.11017">
        <ele>298</ele>
        <time>2016-03-02T14:48:33Z</time>
      </trkpt>
      <trkpt lat="43.38661" lon="6.11026">
        <ele>296.39999389648</ele>
        <time>2016-03-02T14:48:36Z</time>
      </trkpt>
      <trkpt lat="43.3867" lon="6.11033">
        <ele>295.20001220703</ele>
        <time>2016-03-02T14:48:38Z</time>
      </trkpt>
      <trkpt lat="43.38697" lon="6.1106">
        <ele>294.39999389648</ele>
        <time>2016-03-02T14:48:45Z</time>
      </trkpt>
      <trkpt lat="43.38705" lon="6.11066">
        <ele>294.60000610352</ele>
        <time>2016-03-02T14:48:49Z</time>
      </trkpt>
      <trkpt lat="43.38706" lon="6.11068">
        <ele>294.60000610352</ele>
        <time>2016-03-02T14:48:55Z</time>
      </trkpt>
      <trkpt lat="43.38706" lon="6.11068">
        <ele>294.39999389648</ele>
        <time>2016-03-02T14:48:59Z</time>
      </trkpt>
      <trkpt lat="43.38706" lon="6.11068">
        <ele>294</ele>
        <time>2016-03-02T14:49:05Z</time>
      </trkpt>
      <trkpt lat="43.38706" lon="6.11068">
        <ele>295</ele>
        <time>2016-03-02T14:49:18Z</time>
      </trkpt>
      <trkpt lat="43.38706" lon="6.11068">
        <ele>294.20001220703</ele>
        <time>2016-03-02T14:49:24Z</time>
      </trkpt>
      <trkpt lat="43.38708" lon="6.11073">
        <ele>294.79998779297</ele>
        <time>2016-03-02T14:49:38Z</time>
      </trkpt>
      <trkpt lat="43.38707" lon="6.11125">
        <ele>294.79998779297</ele>
        <time>2016-03-02T14:49:50Z</time>
      </trkpt>
      <trkpt lat="43.38704" lon="6.11155">
        <ele>294.79998779297</ele>
        <time>2016-03-02T14:49:56Z</time>
      </trkpt>
      <trkpt lat="43.38702" lon="6.11176">
        <ele>294.60000610352</ele>
        <time>2016-03-02T14:50:00Z</time>
      </trkpt>
      <trkpt lat="43.387" lon="6.11198">
        <ele>294.79998779297</ele>
        <time>2016-03-02T14:50:04Z</time>
      </trkpt>
      <trkpt lat="43.38696" lon="6.11257">
        <ele>296.20001220703</ele>
        <time>2016-03-02T14:50:15Z</time>
      </trkpt>
      <trkpt lat="43.38694" lon="6.11271">
        <ele>295</ele>
        <time>2016-03-02T14:50:19Z</time>
      </trkpt>
      <trkpt lat="43.38692" lon="6.11305">
        <ele>296</ele>
        <time>2016-03-02T14:50:29Z</time>
      </trkpt>
      <trkpt lat="43.38686" lon="6.11376">
        <ele>293.60000610352</ele>
        <time>2016-03-02T14:50:42Z</time>
      </trkpt>
      <trkpt lat="43.38686" lon="6.11387">
        <ele>295.60000610352</ele>
        <time>2016-03-02T14:50:44Z</time>
      </trkpt>
      <trkpt lat="43.38683" lon="6.11459">
        <ele>294.60000610352</ele>
        <time>2016-03-02T14:50:55Z</time>
      </trkpt>
      <trkpt lat="43.38683" lon="6.11467">
        <ele>294.60000610352</ele>
        <time>2016-03-02T14:50:56Z</time>
      </trkpt>
      <trkpt lat="43.38683" lon="6.11483">
        <ele>295</ele>
        <time>2016-03-02T14:50:58Z</time>
      </trkpt>
      <trkpt lat="43.3868" lon="6.11519">
        <ele>295</ele>
        <time>2016-03-02T14:51:03Z</time>
      </trkpt>
      <trkpt lat="43.38681" lon="6.11528">
        <ele>295</ele>
        <time>2016-03-02T14:51:04Z</time>
      </trkpt>
      <trkpt lat="43.38681" lon="6.11535">
        <ele>294.60000610352</ele>
        <time>2016-03-02T14:51:05Z</time>
      </trkpt>
      <trkpt lat="43.38681" lon="6.11542">
        <ele>293.60000610352</ele>
        <time>2016-03-02T14:51:06Z</time>
      </trkpt>
      <trkpt lat="43.38683" lon="6.11555">
        <ele>294.60000610352</ele>
        <time>2016-03-02T14:51:08Z</time>
      </trkpt>
      <trkpt lat="43.38684" lon="6.11562">
        <ele>295</ele>
        <time>2016-03-02T14:51:09Z</time>
      </trkpt>
      <trkpt lat="43.38691" lon="6.11621">
        <ele>296</ele>
        <time>2016-03-02T14:51:18Z</time>
      </trkpt>
      <trkpt lat="43.38691" lon="6.11627">
        <ele>296</ele>
        <time>2016-03-02T14:51:19Z</time>
      </trkpt>
      <trkpt lat="43.38691" lon="6.11633">
        <ele>296</ele>
        <time>2016-03-02T14:51:20Z</time>
      </trkpt>
      <trkpt lat="43.38688" lon="6.11653">
        <ele>296.60000610352</ele>
        <time>2016-03-02T14:51:23Z</time>
      </trkpt>
      <trkpt lat="43.38686" lon="6.11675">
        <ele>297</ele>
        <time>2016-03-02T14:51:26Z</time>
      </trkpt>
      <trkpt lat="43.38683" lon="6.11696">
        <ele>298</ele>
        <time>2016-03-02T14:51:29Z</time>
      </trkpt>
      <trkpt lat="43.38683" lon="6.11704">
        <ele>298.20001220703</ele>
        <time>2016-03-02T14:51:30Z</time>
      </trkpt>
      <trkpt lat="43.38681" lon="6.11719">
        <ele>298.60000610352</ele>
        <time>2016-03-02T14:51:32Z</time>
      </trkpt>
      <trkpt lat="43.38677" lon="6.11749">
        <ele>298.39999389648</ele>
        <time>2016-03-02T14:51:36Z</time>
      </trkpt>
      <trkpt lat="43.38673" lon="6.1178">
        <ele>298.79998779297</ele>
        <time>2016-03-02T14:51:40Z</time>
      </trkpt>
      <trkpt lat="43.38671" lon="6.11812">
        <ele>298.79998779297</ele>
        <time>2016-03-02T14:51:44Z</time>
      </trkpt>
      <trkpt lat="43.38662" lon="6.11892">
        <ele>298.39999389648</ele>
        <time>2016-03-02T14:51:54Z</time>
      </trkpt>
      <trkpt lat="43.3866" lon="6.11926">
        <ele>298.39999389648</ele>
        <time>2016-03-02T14:51:58Z</time>
      </trkpt>
      <trkpt lat="43.38657" lon="6.12003">
        <ele>297.79998779297</ele>
        <time>2016-03-02T14:52:07Z</time>
      </trkpt>
      <trkpt lat="43.38655" lon="6.12027">
        <ele>297.79998779297</ele>
        <time>2016-03-02T14:52:10Z</time>
      </trkpt>
      <trkpt lat="43.38653" lon="6.12052">
        <ele>297</ele>
        <time>2016-03-02T14:52:13Z</time>
      </trkpt>
      <trkpt lat="43.38643" lon="6.12115">
        <ele>298.20001220703</ele>
        <time>2016-03-02T14:52:21Z</time>
      </trkpt>
      <trkpt lat="43.38636" lon="6.1216">
        <ele>298</ele>
        <time>2016-03-02T14:52:27Z</time>
      </trkpt>
      <trkpt lat="43.38627" lon="6.12204">
        <ele>298.20001220703</ele>
        <time>2016-03-02T14:52:34Z</time>
      </trkpt>
      <trkpt lat="43.38625" lon="6.12215">
        <ele>298.39999389648</ele>
        <time>2016-03-02T14:52:36Z</time>
      </trkpt>
      <trkpt lat="43.38617" lon="6.12272">
        <ele>299.39999389648</ele>
        <time>2016-03-02T14:52:46Z</time>
      </trkpt>
      <trkpt lat="43.38615" lon="6.12287">
        <ele>300.39999389648</ele>
        <time>2016-03-02T14:52:49Z</time>
      </trkpt>
      <trkpt lat="43.38613" lon="6.12307">
        <ele>301.39999389648</ele>
        <time>2016-03-02T14:52:53Z</time>
      </trkpt>
      <trkpt lat="43.38611" lon="6.12322">
        <ele>302.20001220703</ele>
        <time>2016-03-02T14:52:56Z</time>
      </trkpt>
      <trkpt lat="43.3861" lon="6.12346">
        <ele>302.60000610352</ele>
        <time>2016-03-02T14:53:01Z</time>
      </trkpt>
      <trkpt lat="43.3861" lon="6.1238">
        <ele>303.20001220703</ele>
        <time>2016-03-02T14:53:08Z</time>
      </trkpt>
      <trkpt lat="43.38608" lon="6.12417">
        <ele>303.60000610352</ele>
        <time>2016-03-02T14:53:15Z</time>
      </trkpt>
      <trkpt lat="43.38607" lon="6.12428">
        <ele>303.60000610352</ele>
        <time>2016-03-02T14:53:17Z</time>
      </trkpt>
      <trkpt lat="43.38603" lon="6.12451">
        <ele>304.20001220703</ele>
        <time>2016-03-02T14:53:22Z</time>
      </trkpt>
      <trkpt lat="43.38599" lon="6.12473">
        <ele>304.79998779297</ele>
        <time>2016-03-02T14:53:27Z</time>
      </trkpt>
      <trkpt lat="43.38588" lon="6.12531">
        <ele>305.79998779297</ele>
        <time>2016-03-02T14:53:39Z</time>
      </trkpt>
      <trkpt lat="43.38587" lon="6.12536">
        <ele>306</ele>
        <time>2016-03-02T14:53:40Z</time>
      </trkpt>
      <trkpt lat="43.38578" lon="6.12574">
        <ele>305.79998779297</ele>
        <time>2016-03-02T14:53:47Z</time>
      </trkpt>
      <trkpt lat="43.38575" lon="6.12592">
        <ele>305.60000610352</ele>
        <time>2016-03-02T14:53:50Z</time>
      </trkpt>
      <trkpt lat="43.38573" lon="6.12603">
        <ele>304.79998779297</ele>
        <time>2016-03-02T14:53:53Z</time>
      </trkpt>
      <trkpt lat="43.38567" lon="6.12635">
        <ele>304.60000610352</ele>
        <time>2016-03-02T14:54:03Z</time>
      </trkpt>
      <trkpt lat="43.38565" lon="6.12655">
        <ele>304.60000610352</ele>
        <time>2016-03-02T14:54:08Z</time>
      </trkpt>
      <trkpt lat="43.38561" lon="6.12684">
        <ele>304.60000610352</ele>
        <time>2016-03-02T14:54:15Z</time>
      </trkpt>
      <trkpt lat="43.38558" lon="6.12707">
        <ele>305</ele>
        <time>2016-03-02T14:54:22Z</time>
      </trkpt>
      <trkpt lat="43.38557" lon="6.12721">
        <ele>305</ele>
        <time>2016-03-02T14:54:30Z</time>
      </trkpt>
      <trkpt lat="43.38557" lon="6.1273">
        <ele>304.79998779297</ele>
        <time>2016-03-02T14:54:36Z</time>
      </trkpt>
      <trkpt lat="43.38557" lon="6.12725">
        <ele>305.39999389648</ele>
        <time>2016-03-02T14:54:40Z</time>
      </trkpt>
      <trkpt lat="43.38559" lon="6.12723">
        <ele>305.79998779297</ele>
        <time>2016-03-02T14:54:49Z</time>
      </trkpt>
      <trkpt lat="43.38559" lon="6.12723">
        <ele>305.79998779297</ele>
        <time>2016-03-02T14:54:57Z</time>
      </trkpt>
      <trkpt lat="43.38558" lon="6.12723">
        <ele>305.39999389648</ele>
        <time>2016-03-02T14:55:03Z</time>
      </trkpt>
      <trkpt lat="43.38559" lon="6.12723">
        <ele>305.60000610352</ele>
        <time>2016-03-02T14:55:08Z</time>
      </trkpt>
      <trkpt lat="43.38559" lon="6.12723">
        <ele>305.60000610352</ele>
        <time>2016-03-02T14:55:13Z</time>
      </trkpt>
      <trkpt lat="43.38558" lon="6.12724">
        <ele>305.39999389648</ele>
        <time>2016-03-02T14:55:40Z</time>
      </trkpt>
      <trkpt lat="43.38557" lon="6.12723">
        <ele>305.39999389648</ele>
        <time>2016-03-02T14:56:02Z</time>
      </trkpt>
      <trkpt lat="43.3856" lon="6.1272">
        <ele>305.20001220703</ele>
        <time>2016-03-02T14:56:04Z</time>
      </trkpt>
      <trkpt lat="43.38562" lon="6.12719">
        <ele>305.20001220703</ele>
        <time>2016-03-02T14:56:06Z</time>
      </trkpt>
      <trkpt lat="43.38564" lon="6.12714">
        <ele>304</ele>
        <time>2016-03-02T14:56:08Z</time>
      </trkpt>
      <trkpt lat="43.38567" lon="6.12712">
        <ele>303.20001220703</ele>
        <time>2016-03-02T14:56:10Z</time>
      </trkpt>
      <trkpt lat="43.38568" lon="6.12711">
        <ele>302.79998779297</ele>
        <time>2016-03-02T14:56:11Z</time>
      </trkpt>
      <trkpt lat="43.38575" lon="6.12706">
        <ele>301.79998779297</ele>
        <time>2016-03-02T14:56:15Z</time>
      </trkpt>
      <trkpt lat="43.38577" lon="6.12706">
        <ele>301.60000610352</ele>
        <time>2016-03-02T14:56:16Z</time>
      </trkpt>
      <trkpt lat="43.3858" lon="6.12707">
        <ele>301.60000610352</ele>
        <time>2016-03-02T14:56:23Z</time>
      </trkpt>
      <trkpt lat="43.38581" lon="6.12706">
        <ele>301.60000610352</ele>
        <time>2016-03-02T14:56:41Z</time>
      </trkpt>
      <trkpt lat="43.38592" lon="6.12711">
        <ele>301.60000610352</ele>
        <time>2016-03-02T14:56:48Z</time>
      </trkpt>
      <trkpt lat="43.38624" lon="6.12719">
        <ele>302</ele>
        <time>2016-03-02T14:56:58Z</time>
      </trkpt>
      <trkpt lat="43.3864" lon="6.1273">
        <ele>302.20001220703</ele>
        <time>2016-03-02T14:57:04Z</time>
      </trkpt>
      <trkpt lat="43.38641" lon="6.12736">
        <ele>302.20001220703</ele>
        <time>2016-03-02T14:57:06Z</time>
      </trkpt>
      <trkpt lat="43.38643" lon="6.12761">
        <ele>302.79998779297</ele>
        <time>2016-03-02T14:57:13Z</time>
      </trkpt>
      <trkpt lat="43.38663" lon="6.128">
        <ele>303.39999389648</ele>
        <time>2016-03-02T14:57:25Z</time>
      </trkpt>
      <trkpt lat="43.38666" lon="6.12802">
        <ele>303.79998779297</ele>
        <time>2016-03-02T14:57:26Z</time>
      </trkpt>
      <trkpt lat="43.38673" lon="6.12809">
        <ele>303.60000610352</ele>
        <time>2016-03-02T14:57:29Z</time>
      </trkpt>
      <trkpt lat="43.38721" lon="6.12838">
        <ele>303.39999389648</ele>
        <time>2016-03-02T14:57:44Z</time>
      </trkpt>
      <trkpt lat="43.38732" lon="6.12841">
        <ele>302.79998779297</ele>
        <time>2016-03-02T14:57:50Z</time>
      </trkpt>
      <trkpt lat="43.38735" lon="6.12839">
        <ele>303.39999389648</ele>
        <time>2016-03-02T14:57:52Z</time>
      </trkpt>
      <trkpt lat="43.38737" lon="6.1284">
        <ele>303.60000610352</ele>
        <time>2016-03-02T14:57:54Z</time>
      </trkpt>
      <trkpt lat="43.38749" lon="6.12846">
        <ele>303.39999389648</ele>
        <time>2016-03-02T14:58:00Z</time>
      </trkpt>
      <trkpt lat="43.38756" lon="6.12844">
        <ele>303.79998779297</ele>
        <time>2016-03-02T14:58:03Z</time>
      </trkpt>
      <trkpt lat="43.38763" lon="6.12837">
        <ele>305</ele>
        <time>2016-03-02T14:58:07Z</time>
      </trkpt>
      <trkpt lat="43.38782" lon="6.12805">
        <ele>305.79998779297</ele>
        <time>2016-03-02T14:58:21Z</time>
      </trkpt>
      <trkpt lat="43.38786" lon="6.12795">
        <ele>306.39999389648</ele>
        <time>2016-03-02T14:58:25Z</time>
      </trkpt>
      <trkpt lat="43.38793" lon="6.1278">
        <ele>307.39999389648</ele>
        <time>2016-03-02T14:58:32Z</time>
      </trkpt>
      <trkpt lat="43.38801" lon="6.1276">
        <ele>308.60000610352</ele>
        <time>2016-03-02T14:58:41Z</time>
      </trkpt>
      <trkpt lat="43.38807" lon="6.12732">
        <ele>309.60000610352</ele>
        <time>2016-03-02T14:58:52Z</time>
      </trkpt>
      <trkpt lat="43.38816" lon="6.12704">
        <ele>310.79998779297</ele>
        <time>2016-03-02T14:59:04Z</time>
      </trkpt>
      <trkpt lat="43.38819" lon="6.12701">
        <ele>310.79998779297</ele>
        <time>2016-03-02T14:59:06Z</time>
      </trkpt>
      <trkpt lat="43.38822" lon="6.12692">
        <ele>311</ele>
        <time>2016-03-02T14:59:10Z</time>
      </trkpt>
      <trkpt lat="43.38829" lon="6.12651">
        <ele>311.79998779297</ele>
        <time>2016-03-02T14:59:25Z</time>
      </trkpt>
      <trkpt lat="43.3883" lon="6.12631">
        <ele>312.79998779297</ele>
        <time>2016-03-02T14:59:32Z</time>
      </trkpt>
      <trkpt lat="43.38829" lon="6.12624">
        <ele>313.60000610352</ele>
        <time>2016-03-02T14:59:34Z</time>
      </trkpt>
      <trkpt lat="43.38828" lon="6.12621">
        <ele>314</ele>
        <time>2016-03-02T14:59:35Z</time>
      </trkpt>
      <trkpt lat="43.38829" lon="6.12618">
        <ele>314.20001220703</ele>
        <time>2016-03-02T14:59:36Z</time>
      </trkpt>
      <trkpt lat="43.38829" lon="6.12616">
        <ele>314.39999389648</ele>
        <time>2016-03-02T14:59:37Z</time>
      </trkpt>
      <trkpt lat="43.3883" lon="6.12613">
        <ele>314.39999389648</ele>
        <time>2016-03-02T14:59:38Z</time>
      </trkpt>
      <trkpt lat="43.38832" lon="6.12608">
        <ele>314.60000610352</ele>
        <time>2016-03-02T14:59:40Z</time>
      </trkpt>
      <trkpt lat="43.38833" lon="6.12603">
        <ele>314.79998779297</ele>
        <time>2016-03-02T14:59:42Z</time>
      </trkpt>
      <trkpt lat="43.38835" lon="6.12591">
        <ele>314.79998779297</ele>
        <time>2016-03-02T14:59:47Z</time>
      </trkpt>
      <trkpt lat="43.38837" lon="6.12579">
        <ele>315</ele>
        <time>2016-03-02T14:59:51Z</time>
      </trkpt>
      <trkpt lat="43.3884" lon="6.12554">
        <ele>316</ele>
        <time>2016-03-02T15:00:01Z</time>
      </trkpt>
      <trkpt lat="43.38849" lon="6.12518">
        <ele>317</ele>
        <time>2016-03-02T15:00:16Z</time>
      </trkpt>
      <trkpt lat="43.38852" lon="6.12496">
        <ele>318.20001220703</ele>
        <time>2016-03-02T15:00:25Z</time>
      </trkpt>
      <trkpt lat="43.38855" lon="6.12476">
        <ele>319.39999389648</ele>
        <time>2016-03-02T15:00:35Z</time>
      </trkpt>
      <trkpt lat="43.38855" lon="6.12475">
        <ele>319.39999389648</ele>
        <time>2016-03-02T15:00:36Z</time>
      </trkpt>
      <trkpt lat="43.38859" lon="6.12469">
        <ele>319.60000610352</ele>
        <time>2016-03-02T15:00:40Z</time>
      </trkpt>
      <trkpt lat="43.38863" lon="6.12451">
        <ele>319.60000610352</ele>
        <time>2016-03-02T15:00:46Z</time>
      </trkpt>
      <trkpt lat="43.38871" lon="6.12427">
        <ele>319.39999389648</ele>
        <time>2016-03-02T15:00:54Z</time>
      </trkpt>
      <trkpt lat="43.38875" lon="6.12414">
        <ele>319.20001220703</ele>
        <time>2016-03-02T15:00:58Z</time>
      </trkpt>
      <trkpt lat="43.38877" lon="6.12403">
        <ele>319</ele>
        <time>2016-03-02T15:01:01Z</time>
      </trkpt>
      <trkpt lat="43.38882" lon="6.12384">
        <ele>318.60000610352</ele>
        <time>2016-03-02T15:01:06Z</time>
      </trkpt>
      <trkpt lat="43.38883" lon="6.1238">
        <ele>318.39999389648</ele>
        <time>2016-03-02T15:01:07Z</time>
      </trkpt>
      <trkpt lat="43.38884" lon="6.12374">
        <ele>318.20001220703</ele>
        <time>2016-03-02T15:01:14Z</time>
      </trkpt>
      <trkpt lat="43.38884" lon="6.12374">
        <ele>318.39999389648</ele>
        <time>2016-03-02T15:01:26Z</time>
      </trkpt>
      <trkpt lat="43.38884" lon="6.12374">
        <ele>318.39999389648</ele>
        <time>2016-03-02T15:01:33Z</time>
      </trkpt>
      <trkpt lat="43.38884" lon="6.12374">
        <ele>318.20001220703</ele>
        <time>2016-03-02T15:01:46Z</time>
      </trkpt>
      <trkpt lat="43.38885" lon="6.12371">
        <ele>318.20001220703</ele>
        <time>2016-03-02T15:02:18Z</time>
      </trkpt>
      <trkpt lat="43.38888" lon="6.12364">
        <ele>318.39999389648</ele>
        <time>2016-03-02T15:02:21Z</time>
      </trkpt>
      <trkpt lat="43.38901" lon="6.12309">
        <ele>316.60000610352</ele>
        <time>2016-03-02T15:02:35Z</time>
      </trkpt>
      <trkpt lat="43.38907" lon="6.12268">
        <ele>315.60000610352</ele>
        <time>2016-03-02T15:02:43Z</time>
      </trkpt>
      <trkpt lat="43.38916" lon="6.12236">
        <ele>315.60000610352</ele>
        <time>2016-03-02T15:02:50Z</time>
      </trkpt>
      <trkpt lat="43.38925" lon="6.12191">
        <ele>314.39999389648</ele>
        <time>2016-03-02T15:02:59Z</time>
      </trkpt>
      <trkpt lat="43.38937" lon="6.12145">
        <ele>313.39999389648</ele>
        <time>2016-03-02T15:03:09Z</time>
      </trkpt>
      <trkpt lat="43.38957" lon="6.12075">
        <ele>313</ele>
        <time>2016-03-02T15:03:24Z</time>
      </trkpt>
      <trkpt lat="43.38968" lon="6.12021">
        <ele>312.39999389648</ele>
        <time>2016-03-02T15:03:35Z</time>
      </trkpt>
      <trkpt lat="43.38972" lon="6.12003">
        <ele>311.79998779297</ele>
        <time>2016-03-02T15:03:39Z</time>
      </trkpt>
      <trkpt lat="43.38972" lon="6.11995">
        <ele>311.39999389648</ele>
        <time>2016-03-02T15:03:41Z</time>
      </trkpt>
      <trkpt lat="43.38971" lon="6.11992">
        <ele>311.20001220703</ele>
        <time>2016-03-02T15:03:42Z</time>
      </trkpt>
      <trkpt lat="43.38964" lon="6.11976">
        <ele>312.20001220703</ele>
        <time>2016-03-02T15:03:47Z</time>
      </trkpt>
      <trkpt lat="43.38966" lon="6.11974">
        <ele>312.39999389648</ele>
        <time>2016-03-02T15:03:48Z</time>
      </trkpt>
      <trkpt lat="43.38969" lon="6.11959">
        <ele>312.20001220703</ele>
        <time>2016-03-02T15:03:52Z</time>
      </trkpt>
      <trkpt lat="43.38975" lon="6.11928">
        <ele>311.79998779297</ele>
        <time>2016-03-02T15:03:58Z</time>
      </trkpt>
      <trkpt lat="43.38977" lon="6.11917">
        <ele>311.39999389648</ele>
        <time>2016-03-02T15:04:00Z</time>
      </trkpt>
      <trkpt lat="43.38977" lon="6.11889">
        <ele>311</ele>
        <time>2016-03-02T15:04:05Z</time>
      </trkpt>
      <trkpt lat="43.38982" lon="6.11861">
        <ele>310.79998779297</ele>
        <time>2016-03-02T15:04:10Z</time>
      </trkpt>
      <trkpt lat="43.38984" lon="6.1185">
        <ele>310.60000610352</ele>
        <time>2016-03-02T15:04:12Z</time>
      </trkpt>
      <trkpt lat="43.38985" lon="6.11844">
        <ele>310.20001220703</ele>
        <time>2016-03-02T15:04:13Z</time>
      </trkpt>
      <trkpt lat="43.38992" lon="6.11805">
        <ele>310</ele>
        <time>2016-03-02T15:04:20Z</time>
      </trkpt>
      <trkpt lat="43.38998" lon="6.11781">
        <ele>309.20001220703</ele>
        <time>2016-03-02T15:04:24Z</time>
      </trkpt>
      <trkpt lat="43.39001" lon="6.11753">
        <ele>308.79998779297</ele>
        <time>2016-03-02T15:04:28Z</time>
      </trkpt>
      <trkpt lat="43.39001" lon="6.11734">
        <ele>308.79998779297</ele>
        <time>2016-03-02T15:04:31Z</time>
      </trkpt>
      <trkpt lat="43.39005" lon="6.11715">
        <ele>307.79998779297</ele>
        <time>2016-03-02T15:04:34Z</time>
      </trkpt>
      <trkpt lat="43.39011" lon="6.11696">
        <ele>307.60000610352</ele>
        <time>2016-03-02T15:04:37Z</time>
      </trkpt>
      <trkpt lat="43.39019" lon="6.11665">
        <ele>307.60000610352</ele>
        <time>2016-03-02T15:04:42Z</time>
      </trkpt>
      <trkpt lat="43.39031" lon="6.11644">
        <ele>307.60000610352</ele>
        <time>2016-03-02T15:04:46Z</time>
      </trkpt>
      <trkpt lat="43.39042" lon="6.11621">
        <ele>307</ele>
        <time>2016-03-02T15:04:50Z</time>
      </trkpt>
      <trkpt lat="43.39044" lon="6.11609">
        <ele>307</ele>
        <time>2016-03-02T15:04:52Z</time>
      </trkpt>
      <trkpt lat="43.39045" lon="6.11598">
        <ele>307</ele>
        <time>2016-03-02T15:04:54Z</time>
      </trkpt>
      <trkpt lat="43.39046" lon="6.11593">
        <ele>306.79998779297</ele>
        <time>2016-03-02T15:04:55Z</time>
      </trkpt>
      <trkpt lat="43.3905" lon="6.11565">
        <ele>307</ele>
        <time>2016-03-02T15:05:00Z</time>
      </trkpt>
      <trkpt lat="43.39063" lon="6.11489">
        <ele>307.20001220703</ele>
        <time>2016-03-02T15:05:15Z</time>
      </trkpt>
      <trkpt lat="43.39065" lon="6.11436">
        <ele>306.20001220703</ele>
        <time>2016-03-02T15:05:25Z</time>
      </trkpt>
      <trkpt lat="43.3907" lon="6.11407">
        <ele>305.60000610352</ele>
        <time>2016-03-02T15:05:31Z</time>
      </trkpt>
      <trkpt lat="43.39074" lon="6.11385">
        <ele>306.20001220703</ele>
        <time>2016-03-02T15:05:36Z</time>
      </trkpt>
      <trkpt lat="43.3908" lon="6.11325">
        <ele>305.79998779297</ele>
        <time>2016-03-02T15:05:48Z</time>
      </trkpt>
      <trkpt lat="43.39085" lon="6.11306">
        <ele>304.20001220703</ele>
        <time>2016-03-02T15:05:52Z</time>
      </trkpt>
      <trkpt lat="43.39086" lon="6.11303">
        <ele>303.39999389648</ele>
        <time>2016-03-02T15:05:59Z</time>
      </trkpt>
      <trkpt lat="43.39086" lon="6.11303">
        <ele>303.79998779297</ele>
        <time>2016-03-02T15:06:05Z</time>
      </trkpt>
      <trkpt lat="43.39086" lon="6.11303">
        <ele>303.60000610352</ele>
        <time>2016-03-02T15:06:17Z</time>
      </trkpt>
      <trkpt lat="43.39087" lon="6.11303">
        <ele>304</ele>
        <time>2016-03-02T15:06:36Z</time>
      </trkpt>
      <trkpt lat="43.39089" lon="6.113">
        <ele>304.39999389648</ele>
        <time>2016-03-02T15:06:40Z</time>
      </trkpt>
      <trkpt lat="43.39101" lon="6.11276">
        <ele>303.60000610352</ele>
        <time>2016-03-02T15:07:00Z</time>
      </trkpt>
      <trkpt lat="43.39103" lon="6.11265">
        <ele>303.60000610352</ele>
        <time>2016-03-02T15:07:02Z</time>
      </trkpt>
      <trkpt lat="43.39104" lon="6.11256">
        <ele>303.79998779297</ele>
        <time>2016-03-02T15:07:04Z</time>
      </trkpt>
      <trkpt lat="43.39106" lon="6.11247">
        <ele>303.79998779297</ele>
        <time>2016-03-02T15:07:06Z</time>
      </trkpt>
      <trkpt lat="43.39108" lon="6.11236">
        <ele>303.39999389648</ele>
        <time>2016-03-02T15:07:08Z</time>
      </trkpt>
      <trkpt lat="43.39113" lon="6.11207">
        <ele>303</ele>
        <time>2016-03-02T15:07:13Z</time>
      </trkpt>
      <trkpt lat="43.39114" lon="6.11188">
        <ele>302.39999389648</ele>
        <time>2016-03-02T15:07:16Z</time>
      </trkpt>
      <trkpt lat="43.39118" lon="6.11182">
        <ele>301.60000610352</ele>
        <time>2016-03-02T15:07:18Z</time>
      </trkpt>
      <trkpt lat="43.39125" lon="6.11179">
        <ele>300.39999389648</ele>
        <time>2016-03-02T15:07:22Z</time>
      </trkpt>
      <trkpt lat="43.39132" lon="6.11177">
        <ele>299</ele>
        <time>2016-03-02T15:07:24Z</time>
      </trkpt>
      <trkpt lat="43.39135" lon="6.11173">
        <ele>297.39999389648</ele>
        <time>2016-03-02T15:07:25Z</time>
      </trkpt>
      <trkpt lat="43.39141" lon="6.11153">
        <ele>296.60000610352</ele>
        <time>2016-03-02T15:07:28Z</time>
      </trkpt>
      <trkpt lat="43.39143" lon="6.11138">
        <ele>296.39999389648</ele>
        <time>2016-03-02T15:07:30Z</time>
      </trkpt>
      <trkpt lat="43.39145" lon="6.11104">
        <ele>295.79998779297</ele>
        <time>2016-03-02T15:07:34Z</time>
      </trkpt>
      <trkpt lat="43.39146" lon="6.11096">
        <ele>294.60000610352</ele>
        <time>2016-03-02T15:07:35Z</time>
      </trkpt>
      <trkpt lat="43.39148" lon="6.11088">
        <ele>294.20001220703</ele>
        <time>2016-03-02T15:07:36Z</time>
      </trkpt>
      <trkpt lat="43.39148" lon="6.1106">
        <ele>295</ele>
        <time>2016-03-02T15:07:40Z</time>
      </trkpt>
      <trkpt lat="43.39151" lon="6.11049">
        <ele>294.39999389648</ele>
        <time>2016-03-02T15:07:42Z</time>
      </trkpt>
      <trkpt lat="43.39154" lon="6.11036">
        <ele>294</ele>
        <time>2016-03-02T15:07:44Z</time>
      </trkpt>
      <trkpt lat="43.39154" lon="6.11022">
        <ele>294.39999389648</ele>
        <time>2016-03-02T15:07:46Z</time>
      </trkpt>
      <trkpt lat="43.39152" lon="6.11008">
        <ele>294.39999389648</ele>
        <time>2016-03-02T15:07:48Z</time>
      </trkpt>
      <trkpt lat="43.39151" lon="6.11001">
        <ele>294.39999389648</ele>
        <time>2016-03-02T15:07:49Z</time>
      </trkpt>
      <trkpt lat="43.39158" lon="6.10986">
        <ele>294.79998779297</ele>
        <time>2016-03-02T15:07:52Z</time>
      </trkpt>
      <trkpt lat="43.3917" lon="6.10976">
        <ele>293.39999389648</ele>
        <time>2016-03-02T15:07:55Z</time>
      </trkpt>
      <trkpt lat="43.39178" lon="6.10968">
        <ele>292.39999389648</ele>
        <time>2016-03-02T15:07:57Z</time>
      </trkpt>
      <trkpt lat="43.3918" lon="6.10962">
        <ele>292.20001220703</ele>
        <time>2016-03-02T15:07:58Z</time>
      </trkpt>
      <trkpt lat="43.39185" lon="6.10951">
        <ele>292.39999389648</ele>
        <time>2016-03-02T15:08:00Z</time>
      </trkpt>
      <trkpt lat="43.39191" lon="6.10941">
        <ele>292.39999389648</ele>
        <time>2016-03-02T15:08:02Z</time>
      </trkpt>
      <trkpt lat="43.39196" lon="6.10935">
        <ele>290.60000610352</ele>
        <time>2016-03-02T15:08:04Z</time>
      </trkpt>
      <trkpt lat="43.39229" lon="6.10886">
        <ele>290.20001220703</ele>
        <time>2016-03-02T15:08:20Z</time>
      </trkpt>
      <trkpt lat="43.3923" lon="6.10874">
        <ele>290.20001220703</ele>
        <time>2016-03-02T15:08:22Z</time>
      </trkpt>
      <trkpt lat="43.39229" lon="6.10861">
        <ele>290</ele>
        <time>2016-03-02T15:08:24Z</time>
      </trkpt>
      <trkpt lat="43.39228" lon="6.10838">
        <ele>290.79998779297</ele>
        <time>2016-03-02T15:08:28Z</time>
      </trkpt>
      <trkpt lat="43.39225" lon="6.10821">
        <ele>289.79998779297</ele>
        <time>2016-03-02T15:08:31Z</time>
      </trkpt>
      <trkpt lat="43.39224" lon="6.10815">
        <ele>289.60000610352</ele>
        <time>2016-03-02T15:08:32Z</time>
      </trkpt>
      <trkpt lat="43.39222" lon="6.10802">
        <ele>289</ele>
        <time>2016-03-02T15:08:34Z</time>
      </trkpt>
      <trkpt lat="43.39221" lon="6.10796">
        <ele>288.60000610352</ele>
        <time>2016-03-02T15:08:35Z</time>
      </trkpt>
      <trkpt lat="43.39221" lon="6.10788">
        <ele>289</ele>
        <time>2016-03-02T15:08:36Z</time>
      </trkpt>
      <trkpt lat="43.39219" lon="6.10759">
        <ele>288</ele>
        <time>2016-03-02T15:08:42Z</time>
      </trkpt>
      <trkpt lat="43.39221" lon="6.10741">
        <ele>288.60000610352</ele>
        <time>2016-03-02T15:08:55Z</time>
      </trkpt>
      <trkpt lat="43.39221" lon="6.10741">
        <ele>288.79998779297</ele>
        <time>2016-03-02T15:08:59Z</time>
      </trkpt>
      <trkpt lat="43.39221" lon="6.10741">
        <ele>288.60000610352</ele>
        <time>2016-03-02T15:09:05Z</time>
      </trkpt>
      <trkpt lat="43.39221" lon="6.10741">
        <ele>288.60000610352</ele>
        <time>2016-03-02T15:09:10Z</time>
      </trkpt>
      <trkpt lat="43.39221" lon="6.10741">
        <ele>288.60000610352</ele>
        <time>2016-03-02T15:09:13Z</time>
      </trkpt>
      <trkpt lat="43.39221" lon="6.10741">
        <ele>288.39999389648</ele>
        <time>2016-03-02T15:09:18Z</time>
      </trkpt>
      <trkpt lat="43.39221" lon="6.10741">
        <ele>288.60000610352</ele>
        <time>2016-03-02T15:09:23Z</time>
      </trkpt>
      <trkpt lat="43.39221" lon="6.10741">
        <ele>288.39999389648</ele>
        <time>2016-03-02T15:09:30Z</time>
      </trkpt>
      <trkpt lat="43.39221" lon="6.10741">
        <ele>288</ele>
        <time>2016-03-02T15:09:49Z</time>
      </trkpt>
      <trkpt lat="43.39221" lon="6.10741">
        <ele>288.39999389648</ele>
        <time>2016-03-02T15:09:53Z</time>
      </trkpt>
      <trkpt lat="43.39221" lon="6.1074">
        <ele>288.79998779297</ele>
        <time>2016-03-02T15:10:10Z</time>
      </trkpt>
      <trkpt lat="43.39222" lon="6.1074">
        <ele>288.60000610352</ele>
        <time>2016-03-02T15:10:29Z</time>
      </trkpt>
      <trkpt lat="43.39225" lon="6.1074">
        <ele>289.39999389648</ele>
        <time>2016-03-02T15:10:32Z</time>
      </trkpt>
      <trkpt lat="43.39227" lon="6.10741">
        <ele>289.60000610352</ele>
        <time>2016-03-02T15:10:34Z</time>
      </trkpt>
      <trkpt lat="43.39227" lon="6.10742">
        <ele>289.79998779297</ele>
        <time>2016-03-02T15:10:35Z</time>
      </trkpt>
      <trkpt lat="43.39228" lon="6.10744">
        <ele>290</ele>
        <time>2016-03-02T15:10:36Z</time>
      </trkpt>
      <trkpt lat="43.39229" lon="6.10748">
        <ele>290.79998779297</ele>
        <time>2016-03-02T15:10:39Z</time>
      </trkpt>
      <trkpt lat="43.3923" lon="6.10752">
        <ele>291</ele>
        <time>2016-03-02T15:10:42Z</time>
      </trkpt>
      <trkpt lat="43.39237" lon="6.10776">
        <ele>292</ele>
        <time>2016-03-02T15:10:55Z</time>
      </trkpt>
      <trkpt lat="43.39241" lon="6.10787">
        <ele>293</ele>
        <time>2016-03-02T15:11:01Z</time>
      </trkpt>
      <trkpt lat="43.39244" lon="6.10798">
        <ele>293.79998779297</ele>
        <time>2016-03-02T15:11:06Z</time>
      </trkpt>
      <trkpt lat="43.39246" lon="6.10809">
        <ele>293.79998779297</ele>
        <time>2016-03-02T15:11:11Z</time>
      </trkpt>
      <trkpt lat="43.39248" lon="6.10817">
        <ele>294.39999389648</ele>
        <time>2016-03-02T15:11:14Z</time>
      </trkpt>
      <trkpt lat="43.39249" lon="6.10832">
        <ele>295.20001220703</ele>
        <time>2016-03-02T15:11:37Z</time>
      </trkpt>
      <trkpt lat="43.39249" lon="6.10832">
        <ele>295</ele>
        <time>2016-03-02T15:11:41Z</time>
      </trkpt>
      <trkpt lat="43.39249" lon="6.10832">
        <ele>295</ele>
        <time>2016-03-02T15:11:44Z</time>
      </trkpt>
      <trkpt lat="43.39249" lon="6.10833">
        <ele>295.20001220703</ele>
        <time>2016-03-02T15:11:46Z</time>
      </trkpt>
      <trkpt lat="43.3925" lon="6.10848">
        <ele>295.79998779297</ele>
        <time>2016-03-02T15:11:52Z</time>
      </trkpt>
      <trkpt lat="43.39252" lon="6.1088">
        <ele>296.79998779297</ele>
        <time>2016-03-02T15:12:01Z</time>
      </trkpt>
      <trkpt lat="43.39254" lon="6.1092">
        <ele>297.39999389648</ele>
        <time>2016-03-02T15:12:12Z</time>
      </trkpt>
      <trkpt lat="43.39255" lon="6.10933">
        <ele>298</ele>
        <time>2016-03-02T15:12:16Z</time>
      </trkpt>
      <trkpt lat="43.39256" lon="6.10946">
        <ele>298.79998779297</ele>
        <time>2016-03-02T15:12:31Z</time>
      </trkpt>
      <trkpt lat="43.39255" lon="6.10947">
        <ele>298.79998779297</ele>
        <time>2016-03-02T15:12:35Z</time>
      </trkpt>
      <trkpt lat="43.39255" lon="6.10952">
        <ele>299.20001220703</ele>
        <time>2016-03-02T15:12:38Z</time>
      </trkpt>
      <trkpt lat="43.39255" lon="6.10956">
        <ele>299.20001220703</ele>
        <time>2016-03-02T15:12:40Z</time>
      </trkpt>
      <trkpt lat="43.39255" lon="6.10968">
        <ele>300.20001220703</ele>
        <time>2016-03-02T15:12:47Z</time>
      </trkpt>
      <trkpt lat="43.39255" lon="6.10984">
        <ele>300.79998779297</ele>
        <time>2016-03-02T15:12:54Z</time>
      </trkpt>
      <trkpt lat="43.39255" lon="6.10991">
        <ele>301.39999389648</ele>
        <time>2016-03-02T15:12:57Z</time>
      </trkpt>
      <trkpt lat="43.39255" lon="6.11002">
        <ele>301.79998779297</ele>
        <time>2016-03-02T15:13:01Z</time>
      </trkpt>
      <trkpt lat="43.39256" lon="6.11007">
        <ele>302.60000610352</ele>
        <time>2016-03-02T15:13:03Z</time>
      </trkpt>
      <trkpt lat="43.39255" lon="6.11027">
        <ele>303.60000610352</ele>
        <time>2016-03-02T15:13:10Z</time>
      </trkpt>
      <trkpt lat="43.39254" lon="6.11041">
        <ele>304.20001220703</ele>
        <time>2016-03-02T15:13:16Z</time>
      </trkpt>
      <trkpt lat="43.39255" lon="6.11046">
        <ele>304.79998779297</ele>
        <time>2016-03-02T15:13:18Z</time>
      </trkpt>
      <trkpt lat="43.39256" lon="6.11056">
        <ele>305.79998779297</ele>
        <time>2016-03-02T15:13:22Z</time>
      </trkpt>
      <trkpt lat="43.39255" lon="6.11085">
        <ele>307</ele>
        <time>2016-03-02T15:13:33Z</time>
      </trkpt>
      <trkpt lat="43.39255" lon="6.11132">
        <ele>308.20001220703</ele>
        <time>2016-03-02T15:13:49Z</time>
      </trkpt>
      <trkpt lat="43.39255" lon="6.11148">
        <ele>308.39999389648</ele>
        <time>2016-03-02T15:13:54Z</time>
      </trkpt>
      <trkpt lat="43.39253" lon="6.11164">
        <ele>308.39999389648</ele>
        <time>2016-03-02T15:14:00Z</time>
      </trkpt>
      <trkpt lat="43.3925" lon="6.11178">
        <ele>308.79998779297</ele>
        <time>2016-03-02T15:14:06Z</time>
      </trkpt>
      <trkpt lat="43.39248" lon="6.11192">
        <ele>309.20001220703</ele>
        <time>2016-03-02T15:14:12Z</time>
      </trkpt>
      <trkpt lat="43.39247" lon="6.11204">
        <ele>309.39999389648</ele>
        <time>2016-03-02T15:14:17Z</time>
      </trkpt>
      <trkpt lat="43.39247" lon="6.11206">
        <ele>309.39999389648</ele>
        <time>2016-03-02T15:14:18Z</time>
      </trkpt>
      <trkpt lat="43.39247" lon="6.11208">
        <ele>309.39999389648</ele>
        <time>2016-03-02T15:14:19Z</time>
      </trkpt>
      <trkpt lat="43.39249" lon="6.1121">
        <ele>309.39999389648</ele>
        <time>2016-03-02T15:14:28Z</time>
      </trkpt>
      <trkpt lat="43.39249" lon="6.1121">
        <ele>309.60000610352</ele>
        <time>2016-03-02T15:14:48Z</time>
      </trkpt>
      <trkpt lat="43.39249" lon="6.1121">
        <ele>309.79998779297</ele>
        <time>2016-03-02T15:15:04Z</time>
      </trkpt>
      <trkpt lat="43.39254" lon="6.11214">
        <ele>309.79998779297</ele>
        <time>2016-03-02T15:15:26Z</time>
      </trkpt>
      <trkpt lat="43.39291" lon="6.11215">
        <ele>310.20001220703</ele>
        <time>2016-03-02T15:15:44Z</time>
      </trkpt>
      <trkpt lat="43.39338" lon="6.11216">
        <ele>311.39999389648</ele>
        <time>2016-03-02T15:16:03Z</time>
      </trkpt>
      <trkpt lat="43.3937" lon="6.11209">
        <ele>311.79998779297</ele>
        <time>2016-03-02T15:16:17Z</time>
      </trkpt>
      <trkpt lat="43.39375" lon="6.11208">
        <ele>312.39999389648</ele>
        <time>2016-03-02T15:16:19Z</time>
      </trkpt>
      <trkpt lat="43.39392" lon="6.11208">
        <ele>313.39999389648</ele>
        <time>2016-03-02T15:16:27Z</time>
      </trkpt>
      <trkpt lat="43.39394" lon="6.11208">
        <ele>313.60000610352</ele>
        <time>2016-03-02T15:16:28Z</time>
      </trkpt>
      <trkpt lat="43.39403" lon="6.1121">
        <ele>314.60000610352</ele>
        <time>2016-03-02T15:16:32Z</time>
      </trkpt>
      <trkpt lat="43.3941" lon="6.11215">
        <ele>315.20001220703</ele>
        <time>2016-03-02T15:16:36Z</time>
      </trkpt>
      <trkpt lat="43.39413" lon="6.11218">
        <ele>315.79998779297</ele>
        <time>2016-03-02T15:16:38Z</time>
      </trkpt>
      <trkpt lat="43.39426" lon="6.11232">
        <ele>316.79998779297</ele>
        <time>2016-03-02T15:16:46Z</time>
      </trkpt>
      <trkpt lat="43.39441" lon="6.11238">
        <ele>317.20001220703</ele>
        <time>2016-03-02T15:16:54Z</time>
      </trkpt>
      <trkpt lat="43.39451" lon="6.11241">
        <ele>318</ele>
        <time>2016-03-02T15:17:00Z</time>
      </trkpt>
      <trkpt lat="43.39457" lon="6.11241">
        <ele>319</ele>
        <time>2016-03-02T15:17:03Z</time>
      </trkpt>
      <trkpt lat="43.39466" lon="6.11242">
        <ele>320.20001220703</ele>
        <time>2016-03-02T15:17:08Z</time>
      </trkpt>
      <trkpt lat="43.39475" lon="6.11242">
        <ele>320.79998779297</ele>
        <time>2016-03-02T15:17:14Z</time>
      </trkpt>
      <trkpt lat="43.39478" lon="6.11242">
        <ele>321.60000610352</ele>
        <time>2016-03-02T15:17:16Z</time>
      </trkpt>
      <trkpt lat="43.39489" lon="6.11239">
        <ele>322.60000610352</ele>
        <time>2016-03-02T15:17:24Z</time>
      </trkpt>
      <trkpt lat="43.39497" lon="6.11238">
        <ele>323.39999389648</ele>
        <time>2016-03-02T15:17:33Z</time>
      </trkpt>
      <trkpt lat="43.39501" lon="6.11238">
        <ele>323.60000610352</ele>
        <time>2016-03-02T15:17:38Z</time>
      </trkpt>
      <trkpt lat="43.39502" lon="6.11238">
        <ele>323.79998779297</ele>
        <time>2016-03-02T15:17:39Z</time>
      </trkpt>
      <trkpt lat="43.39507" lon="6.11237">
        <ele>324.60000610352</ele>
        <time>2016-03-02T15:17:44Z</time>
      </trkpt>
      <trkpt lat="43.39518" lon="6.1124">
        <ele>324.79998779297</ele>
        <time>2016-03-02T15:17:52Z</time>
      </trkpt>
      <trkpt lat="43.39524" lon="6.11245">
        <ele>325.79998779297</ele>
        <time>2016-03-02T15:18:00Z</time>
      </trkpt>
      <trkpt lat="43.39524" lon="6.11246">
        <ele>326</ele>
        <time>2016-03-02T15:18:05Z</time>
      </trkpt>
      <trkpt lat="43.39524" lon="6.11246">
        <ele>326.39999389648</ele>
        <time>2016-03-02T15:18:12Z</time>
      </trkpt>
      <trkpt lat="43.39524" lon="6.11246">
        <ele>326.39999389648</ele>
        <time>2016-03-02T15:18:18Z</time>
      </trkpt>
      <trkpt lat="43.39524" lon="6.11246">
        <ele>326.20001220703</ele>
        <time>2016-03-02T15:18:24Z</time>
      </trkpt>
      <trkpt lat="43.39524" lon="6.11246">
        <ele>326</ele>
        <time>2016-03-02T15:18:29Z</time>
      </trkpt>
      <trkpt lat="43.39524" lon="6.11246">
        <ele>326.20001220703</ele>
        <time>2016-03-02T15:18:39Z</time>
      </trkpt>
      <trkpt lat="43.39524" lon="6.11246">
        <ele>326</ele>
        <time>2016-03-02T15:18:48Z</time>
      </trkpt>
      <trkpt lat="43.39522" lon="6.11262">
        <ele>326.20001220703</ele>
        <time>2016-03-02T15:19:16Z</time>
      </trkpt>
      <trkpt lat="43.39518" lon="6.11296">
        <ele>325.60000610352</ele>
        <time>2016-03-02T15:19:24Z</time>
      </trkpt>
      <trkpt lat="43.39516" lon="6.11308">
        <ele>324.39999389648</ele>
        <time>2016-03-02T15:19:27Z</time>
      </trkpt>
      <trkpt lat="43.39511" lon="6.1135">
        <ele>324.39999389648</ele>
        <time>2016-03-02T15:19:36Z</time>
      </trkpt>
      <trkpt lat="43.39508" lon="6.11378">
        <ele>324.20001220703</ele>
        <time>2016-03-02T15:19:41Z</time>
      </trkpt>
      <trkpt lat="43.39504" lon="6.11412">
        <ele>323.20001220703</ele>
        <time>2016-03-02T15:19:47Z</time>
      </trkpt>
      <trkpt lat="43.39499" lon="6.11458">
        <ele>322</ele>
        <time>2016-03-02T15:19:53Z</time>
      </trkpt>
      <trkpt lat="43.39498" lon="6.11485">
        <ele>321.39999389648</ele>
        <time>2016-03-02T15:19:56Z</time>
      </trkpt>
      <trkpt lat="43.395" lon="6.11492">
        <ele>321</ele>
        <time>2016-03-02T15:19:57Z</time>
      </trkpt>
      <trkpt lat="43.39524" lon="6.11518">
        <ele>320.79998779297</ele>
        <time>2016-03-02T15:20:03Z</time>
      </trkpt>
      <trkpt lat="43.39532" lon="6.11523">
        <ele>321</ele>
        <time>2016-03-02T15:20:05Z</time>
      </trkpt>
      <trkpt lat="43.39553" lon="6.11531">
        <ele>321</ele>
        <time>2016-03-02T15:20:11Z</time>
      </trkpt>
      <trkpt lat="43.3958" lon="6.11519">
        <ele>321.60000610352</ele>
        <time>2016-03-02T15:20:23Z</time>
      </trkpt>
      <trkpt lat="43.39585" lon="6.11515">
        <ele>322</ele>
        <time>2016-03-02T15:20:25Z</time>
      </trkpt>
      <trkpt lat="43.39593" lon="6.11503">
        <ele>323</ele>
        <time>2016-03-02T15:20:30Z</time>
      </trkpt>
      <trkpt lat="43.39603" lon="6.11483">
        <ele>323.60000610352</ele>
        <time>2016-03-02T15:20:37Z</time>
      </trkpt>
      <trkpt lat="43.39609" lon="6.11468">
        <ele>324</ele>
        <time>2016-03-02T15:20:42Z</time>
      </trkpt>
      <trkpt lat="43.3961" lon="6.11465">
        <ele>324.39999389648</ele>
        <time>2016-03-02T15:20:43Z</time>
      </trkpt>
      <trkpt lat="43.39616" lon="6.1145">
        <ele>324.60000610352</ele>
        <time>2016-03-02T15:20:48Z</time>
      </trkpt>
      <trkpt lat="43.39623" lon="6.1143">
        <ele>325.39999389648</ele>
        <time>2016-03-02T15:20:55Z</time>
      </trkpt>
      <trkpt lat="43.39633" lon="6.11399">
        <ele>326.39999389648</ele>
        <time>2016-03-02T15:21:09Z</time>
      </trkpt>
      <trkpt lat="43.39634" lon="6.11396">
        <ele>326.60000610352</ele>
        <time>2016-03-02T15:21:10Z</time>
      </trkpt>
      <trkpt lat="43.39636" lon="6.11383">
        <ele>327.39999389648</ele>
        <time>2016-03-02T15:21:15Z</time>
      </trkpt>
      <trkpt lat="43.39638" lon="6.11371">
        <ele>328.60000610352</ele>
        <time>2016-03-02T15:21:20Z</time>
      </trkpt>
      <trkpt lat="43.39641" lon="6.1135">
        <ele>329.60000610352</ele>
        <time>2016-03-02T15:21:29Z</time>
      </trkpt>
      <trkpt lat="43.39647" lon="6.1132">
        <ele>330.60000610352</ele>
        <time>2016-03-02T15:21:41Z</time>
      </trkpt>
      <trkpt lat="43.39648" lon="6.11297">
        <ele>330.39999389648</ele>
        <time>2016-03-02T15:21:49Z</time>
      </trkpt>
      <trkpt lat="43.3965" lon="6.11284">
        <ele>329.60000610352</ele>
        <time>2016-03-02T15:21:53Z</time>
      </trkpt>
      <trkpt lat="43.39651" lon="6.11277">
        <ele>329.60000610352</ele>
        <time>2016-03-02T15:21:55Z</time>
      </trkpt>
      <trkpt lat="43.39655" lon="6.11255">
        <ele>329.79998779297</ele>
        <time>2016-03-02T15:22:00Z</time>
      </trkpt>
      <trkpt lat="43.39656" lon="6.11241">
        <ele>329.20001220703</ele>
        <time>2016-03-02T15:22:03Z</time>
      </trkpt>
      <trkpt lat="43.39656" lon="6.11228">
        <ele>328.60000610352</ele>
        <time>2016-03-02T15:22:06Z</time>
      </trkpt>
      <trkpt lat="43.39659" lon="6.1122">
        <ele>327.39999389648</ele>
        <time>2016-03-02T15:22:09Z</time>
      </trkpt>
      <trkpt lat="43.39664" lon="6.11203">
        <ele>326.20001220703</ele>
        <time>2016-03-02T15:22:14Z</time>
      </trkpt>
      <trkpt lat="43.39663" lon="6.11202">
        <ele>325.39999389648</ele>
        <time>2016-03-02T15:22:25Z</time>
      </trkpt>
      <trkpt lat="43.39664" lon="6.112">
        <ele>325.60000610352</ele>
        <time>2016-03-02T15:22:33Z</time>
      </trkpt>
      <trkpt lat="43.39667" lon="6.11193">
        <ele>325</ele>
        <time>2016-03-02T15:22:35Z</time>
      </trkpt>
      <trkpt lat="43.39671" lon="6.11176">
        <ele>323.20001220703</ele>
        <time>2016-03-02T15:22:38Z</time>
      </trkpt>
      <trkpt lat="43.39677" lon="6.11141">
        <ele>322.20001220703</ele>
        <time>2016-03-02T15:22:43Z</time>
      </trkpt>
      <trkpt lat="43.39685" lon="6.11127">
        <ele>321</ele>
        <time>2016-03-02T15:22:46Z</time>
      </trkpt>
      <trkpt lat="43.39688" lon="6.11107">
        <ele>319.79998779297</ele>
        <time>2016-03-02T15:22:49Z</time>
      </trkpt>
      <trkpt lat="43.39683" lon="6.11068">
        <ele>320</ele>
        <time>2016-03-02T15:22:54Z</time>
      </trkpt>
      <trkpt lat="43.39684" lon="6.11055">
        <ele>319.79998779297</ele>
        <time>2016-03-02T15:22:56Z</time>
      </trkpt>
      <trkpt lat="43.39684" lon="6.11049">
        <ele>318.79998779297</ele>
        <time>2016-03-02T15:22:57Z</time>
      </trkpt>
      <trkpt lat="43.39683" lon="6.11041">
        <ele>318.79998779297</ele>
        <time>2016-03-02T15:22:58Z</time>
      </trkpt>
      <trkpt lat="43.39681" lon="6.11026">
        <ele>317.20001220703</ele>
        <time>2016-03-02T15:23:00Z</time>
      </trkpt>
      <trkpt lat="43.39679" lon="6.11019">
        <ele>316.60000610352</ele>
        <time>2016-03-02T15:23:01Z</time>
      </trkpt>
      <trkpt lat="43.39671" lon="6.10979">
        <ele>316.20001220703</ele>
        <time>2016-03-02T15:23:07Z</time>
      </trkpt>
      <trkpt lat="43.3966" lon="6.10953">
        <ele>315</ele>
        <time>2016-03-02T15:23:13Z</time>
      </trkpt>
      <trkpt lat="43.39658" lon="6.10937">
        <ele>314</ele>
        <time>2016-03-02T15:23:16Z</time>
      </trkpt>
      <trkpt lat="43.39653" lon="6.10914">
        <ele>312.79998779297</ele>
        <time>2016-03-02T15:23:20Z</time>
      </trkpt>
      <trkpt lat="43.39649" lon="6.10901">
        <ele>311.39999389648</ele>
        <time>2016-03-02T15:23:22Z</time>
      </trkpt>
      <trkpt lat="43.39647" lon="6.10896">
        <ele>311.39999389648</ele>
        <time>2016-03-02T15:23:23Z</time>
      </trkpt>
      <trkpt lat="43.39644" lon="6.1089">
        <ele>311.79998779297</ele>
        <time>2016-03-02T15:23:24Z</time>
      </trkpt>
      <trkpt lat="43.39637" lon="6.10871">
        <ele>310</ele>
        <time>2016-03-02T15:23:28Z</time>
      </trkpt>
      <trkpt lat="43.39632" lon="6.10859">
        <ele>309</ele>
        <time>2016-03-02T15:23:31Z</time>
      </trkpt>
      <trkpt lat="43.39616" lon="6.1081">
        <ele>308</ele>
        <time>2016-03-02T15:23:40Z</time>
      </trkpt>
      <trkpt lat="43.39615" lon="6.10804">
        <ele>307.60000610352</ele>
        <time>2016-03-02T15:23:41Z</time>
      </trkpt>
      <trkpt lat="43.39613" lon="6.10797">
        <ele>307</ele>
        <time>2016-03-02T15:23:42Z</time>
      </trkpt>
      <trkpt lat="43.39611" lon="6.10791">
        <ele>306.60000610352</ele>
        <time>2016-03-02T15:23:43Z</time>
      </trkpt>
      <trkpt lat="43.39601" lon="6.10762">
        <ele>306.20001220703</ele>
        <time>2016-03-02T15:23:47Z</time>
      </trkpt>
      <trkpt lat="43.39598" lon="6.10747">
        <ele>306</ele>
        <time>2016-03-02T15:23:49Z</time>
      </trkpt>
      <trkpt lat="43.39596" lon="6.10737">
        <ele>304.79998779297</ele>
        <time>2016-03-02T15:23:51Z</time>
      </trkpt>
      <trkpt lat="43.39594" lon="6.1073">
        <ele>303.39999389648</ele>
        <time>2016-03-02T15:23:53Z</time>
      </trkpt>
      <trkpt lat="43.39594" lon="6.10714">
        <ele>302.39999389648</ele>
        <time>2016-03-02T15:23:57Z</time>
      </trkpt>
      <trkpt lat="43.3959" lon="6.10696">
        <ele>301.20001220703</ele>
        <time>2016-03-02T15:24:01Z</time>
      </trkpt>
      <trkpt lat="43.39588" lon="6.10678">
        <ele>299.79998779297</ele>
        <time>2016-03-02T15:24:06Z</time>
      </trkpt>
      <trkpt lat="43.39588" lon="6.10671">
        <ele>299.39999389648</ele>
        <time>2016-03-02T15:24:08Z</time>
      </trkpt>
      <trkpt lat="43.39588" lon="6.10664">
        <ele>298.39999389648</ele>
        <time>2016-03-02T15:24:10Z</time>
      </trkpt>
      <trkpt lat="43.39581" lon="6.10635">
        <ele>298.20001220703</ele>
        <time>2016-03-02T15:24:16Z</time>
      </trkpt>
      <trkpt lat="43.3958" lon="6.1063">
        <ele>297</ele>
        <time>2016-03-02T15:24:17Z</time>
      </trkpt>
      <trkpt lat="43.39571" lon="6.10609">
        <ele>298</ele>
        <time>2016-03-02T15:24:21Z</time>
      </trkpt>
      <trkpt lat="43.39566" lon="6.10599">
        <ele>297</ele>
        <time>2016-03-02T15:24:23Z</time>
      </trkpt>
      <trkpt lat="43.39563" lon="6.10588">
        <ele>294.79998779297</ele>
        <time>2016-03-02T15:24:25Z</time>
      </trkpt>
      <trkpt lat="43.39552" lon="6.10527">
        <ele>294</ele>
        <time>2016-03-02T15:24:41Z</time>
      </trkpt>
      <trkpt lat="43.39552" lon="6.10513">
        <ele>292.60000610352</ele>
        <time>2016-03-02T15:24:43Z</time>
      </trkpt>
      <trkpt lat="43.3955" lon="6.10478">
        <ele>291.60000610352</ele>
        <time>2016-03-02T15:24:48Z</time>
      </trkpt>
      <trkpt lat="43.39548" lon="6.10472">
        <ele>291</ele>
        <time>2016-03-02T15:24:49Z</time>
      </trkpt>
      <trkpt lat="43.39545" lon="6.10449">
        <ele>289.79998779297</ele>
        <time>2016-03-02T15:24:53Z</time>
      </trkpt>
      <trkpt lat="43.39544" lon="6.10438">
        <ele>289.39999389648</ele>
        <time>2016-03-02T15:24:55Z</time>
      </trkpt>
      <trkpt lat="43.3954" lon="6.10416">
        <ele>288.79998779297</ele>
        <time>2016-03-02T15:24:59Z</time>
      </trkpt>
      <trkpt lat="43.3954" lon="6.10404">
        <ele>288</ele>
        <time>2016-03-02T15:25:01Z</time>
      </trkpt>
      <trkpt lat="43.39538" lon="6.10399">
        <ele>287.20001220703</ele>
        <time>2016-03-02T15:25:02Z</time>
      </trkpt>
      <trkpt lat="43.39512" lon="6.10384">
        <ele>286.39999389648</ele>
        <time>2016-03-02T15:25:11Z</time>
      </trkpt>
      <trkpt lat="43.39496" lon="6.10382">
        <ele>286</ele>
        <time>2016-03-02T15:25:15Z</time>
      </trkpt>
      <trkpt lat="43.39474" lon="6.10377">
        <ele>284.39999389648</ele>
        <time>2016-03-02T15:25:22Z</time>
      </trkpt>
      <trkpt lat="43.39454" lon="6.10372">
        <ele>283.60000610352</ele>
        <time>2016-03-02T15:25:29Z</time>
      </trkpt>
      <trkpt lat="43.39453" lon="6.10372">
        <ele>283.20001220703</ele>
        <time>2016-03-02T15:25:30Z</time>
      </trkpt>
      <trkpt lat="43.39452" lon="6.10372">
        <ele>282.20001220703</ele>
        <time>2016-03-02T15:25:36Z</time>
      </trkpt>
      <trkpt lat="43.39452" lon="6.10372">
        <ele>282.20001220703</ele>
        <time>2016-03-02T15:25:44Z</time>
      </trkpt>
      <trkpt lat="43.39452" lon="6.10372">
        <ele>282</ele>
        <time>2016-03-02T15:26:03Z</time>
      </trkpt>
      <trkpt lat="43.39452" lon="6.10372">
        <ele>282.20001220703</ele>
        <time>2016-03-02T15:26:12Z</time>
      </trkpt>
      <trkpt lat="43.39452" lon="6.10372">
        <ele>282.39999389648</ele>
        <time>2016-03-02T15:26:30Z</time>
      </trkpt>
      <trkpt lat="43.39452" lon="6.10372">
        <ele>282.60000610352</ele>
        <time>2016-03-02T15:27:18Z</time>
      </trkpt>
      <trkpt lat="43.39452" lon="6.10372">
        <ele>283.20001220703</ele>
        <time>2016-03-02T15:27:35Z</time>
      </trkpt>
      <trkpt lat="43.39452" lon="6.10372">
        <ele>283.39999389648</ele>
        <time>2016-03-02T15:27:40Z</time>
      </trkpt>
      <trkpt lat="43.39453" lon="6.10373">
        <ele>283.39999389648</ele>
        <time>2016-03-02T15:28:11Z</time>
      </trkpt>
      <trkpt lat="43.39453" lon="6.10374">
        <ele>283.20001220703</ele>
        <time>2016-03-02T15:28:22Z</time>
      </trkpt>
      <trkpt lat="43.39453" lon="6.10374">
        <ele>283.60000610352</ele>
        <time>2016-03-02T15:28:31Z</time>
      </trkpt>
      <trkpt lat="43.39453" lon="6.10374">
        <ele>284.20001220703</ele>
        <time>2016-03-02T15:28:56Z</time>
      </trkpt>
      <trkpt lat="43.39453" lon="6.10374">
        <ele>284.39999389648</ele>
        <time>2016-03-02T15:28:57Z</time>
      </trkpt>
      <trkpt lat="43.39425" lon="6.10407">
        <ele>284.39999389648</ele>
        <time>2016-03-02T15:29:27Z</time>
      </trkpt>
      <trkpt lat="43.39415" lon="6.10417">
        <ele>284.20001220703</ele>
        <time>2016-03-02T15:29:31Z</time>
      </trkpt>
      <trkpt lat="43.39407" lon="6.10399">
        <ele>284.39999389648</ele>
        <time>2016-03-02T15:29:39Z</time>
      </trkpt>
      <trkpt lat="43.39413" lon="6.10378">
        <ele>284.60000610352</ele>
        <time>2016-03-02T15:29:44Z</time>
      </trkpt>
      <trkpt lat="43.39417" lon="6.10361">
        <ele>284.39999389648</ele>
        <time>2016-03-02T15:29:48Z</time>
      </trkpt>
      <trkpt lat="43.39428" lon="6.10332">
        <ele>284.20001220703</ele>
        <time>2016-03-02T15:29:55Z</time>
      </trkpt>
      <trkpt lat="43.39432" lon="6.10322">
        <ele>283.79998779297</ele>
        <time>2016-03-02T15:29:57Z</time>
      </trkpt>
      <trkpt lat="43.39457" lon="6.10285">
        <ele>283.20001220703</ele>
        <time>2016-03-02T15:30:07Z</time>
      </trkpt>
      <trkpt lat="43.39471" lon="6.1027">
        <ele>282.39999389648</ele>
        <time>2016-03-02T15:30:11Z</time>
      </trkpt>
      <trkpt lat="43.39483" lon="6.10257">
        <ele>281.79998779297</ele>
        <time>2016-03-02T15:30:14Z</time>
      </trkpt>
      <trkpt lat="43.39486" lon="6.10252">
        <ele>281.60000610352</ele>
        <time>2016-03-02T15:30:15Z</time>
      </trkpt>
      <trkpt lat="43.39492" lon="6.1024">
        <ele>280.60000610352</ele>
        <time>2016-03-02T15:30:17Z</time>
      </trkpt>
      <trkpt lat="43.39506" lon="6.10195">
        <ele>279.39999389648</ele>
        <time>2016-03-02T15:30:23Z</time>
      </trkpt>
      <trkpt lat="43.39512" lon="6.1017">
        <ele>279.20001220703</ele>
        <time>2016-03-02T15:30:26Z</time>
      </trkpt>
      <trkpt lat="43.39519" lon="6.10145">
        <ele>277.60000610352</ele>
        <time>2016-03-02T15:30:29Z</time>
      </trkpt>
      <trkpt lat="43.39526" lon="6.10119">
        <ele>278</ele>
        <time>2016-03-02T15:30:32Z</time>
      </trkpt>
      <trkpt lat="43.39541" lon="6.10083">
        <ele>276.60000610352</ele>
        <time>2016-03-02T15:30:37Z</time>
      </trkpt>
      <trkpt lat="43.39548" lon="6.1006">
        <ele>275.39999389648</ele>
        <time>2016-03-02T15:30:40Z</time>
      </trkpt>
      <trkpt lat="43.39557" lon="6.10031">
        <ele>275.39999389648</ele>
        <time>2016-03-02T15:30:44Z</time>
      </trkpt>
      <trkpt lat="43.39559" lon="6.10022">
        <ele>274.79998779297</ele>
        <time>2016-03-02T15:30:46Z</time>
      </trkpt>
      <trkpt lat="43.39553" lon="6.10013">
        <ele>275</ele>
        <time>2016-03-02T15:30:49Z</time>
      </trkpt>
      <trkpt lat="43.39552" lon="6.10001">
        <ele>274.79998779297</ele>
        <time>2016-03-02T15:30:53Z</time>
      </trkpt>
      <trkpt lat="43.39552" lon="6.09998">
        <ele>274.60000610352</ele>
        <time>2016-03-02T15:30:54Z</time>
      </trkpt>
      <trkpt lat="43.39555" lon="6.09968">
        <ele>275.60000610352</ele>
        <time>2016-03-02T15:31:04Z</time>
      </trkpt>
      <trkpt lat="43.39554" lon="6.09952">
        <ele>276.60000610352</ele>
        <time>2016-03-02T15:31:08Z</time>
      </trkpt>
      <trkpt lat="43.39553" lon="6.09947">
        <ele>277</ele>
        <time>2016-03-02T15:31:09Z</time>
      </trkpt>
      <trkpt lat="43.39551" lon="6.09938">
        <ele>277.39999389648</ele>
        <time>2016-03-02T15:31:11Z</time>
      </trkpt>
      <trkpt lat="43.39548" lon="6.09932">
        <ele>278.20001220703</ele>
        <time>2016-03-02T15:31:13Z</time>
      </trkpt>
      <trkpt lat="43.39545" lon="6.09923">
        <ele>279.20001220703</ele>
        <time>2016-03-02T15:31:16Z</time>
      </trkpt>
      <trkpt lat="43.39545" lon="6.0992">
        <ele>279.39999389648</ele>
        <time>2016-03-02T15:31:17Z</time>
      </trkpt>
      <trkpt lat="43.39547" lon="6.09908">
        <ele>280.39999389648</ele>
        <time>2016-03-02T15:31:21Z</time>
      </trkpt>
      <trkpt lat="43.39555" lon="6.09888">
        <ele>280.20001220703</ele>
        <time>2016-03-02T15:31:28Z</time>
      </trkpt>
      <trkpt lat="43.39558" lon="6.09863">
        <ele>280.39999389648</ele>
        <time>2016-03-02T15:31:34Z</time>
      </trkpt>
      <trkpt lat="43.3956" lon="6.0984">
        <ele>280.20001220703</ele>
        <time>2016-03-02T15:31:40Z</time>
      </trkpt>
      <trkpt lat="43.39565" lon="6.09829">
        <ele>280.79998779297</ele>
        <time>2016-03-02T15:31:44Z</time>
      </trkpt>
      <trkpt lat="43.39566" lon="6.09819">
        <ele>280.79998779297</ele>
        <time>2016-03-02T15:31:49Z</time>
      </trkpt>
      <trkpt lat="43.39568" lon="6.09802">
        <ele>280</ele>
        <time>2016-03-02T15:31:57Z</time>
      </trkpt>
      <trkpt lat="43.39569" lon="6.09787">
        <ele>280.39999389648</ele>
        <time>2016-03-02T15:32:02Z</time>
      </trkpt>
      <trkpt lat="43.39584" lon="6.09739">
        <ele>280.39999389648</ele>
        <time>2016-03-02T15:32:13Z</time>
      </trkpt>
      <trkpt lat="43.39597" lon="6.09681">
        <ele>280</ele>
        <time>2016-03-02T15:32:23Z</time>
      </trkpt>
      <trkpt lat="43.39611" lon="6.09616">
        <ele>280.20001220703</ele>
        <time>2016-03-02T15:32:36Z</time>
      </trkpt>
      <trkpt lat="43.39614" lon="6.09604">
        <ele>280.20001220703</ele>
        <time>2016-03-02T15:32:39Z</time>
      </trkpt>
      <trkpt lat="43.39615" lon="6.09598">
        <ele>280.20001220703</ele>
        <time>2016-03-02T15:32:41Z</time>
      </trkpt>
      <trkpt lat="43.39619" lon="6.09586">
        <ele>280.60000610352</ele>
        <time>2016-03-02T15:32:46Z</time>
      </trkpt>
      <trkpt lat="43.39619" lon="6.09582">
        <ele>279.79998779297</ele>
        <time>2016-03-02T15:33:17Z</time>
      </trkpt>
      <trkpt lat="43.39619" lon="6.09582">
        <ele>279.79998779297</ele>
        <time>2016-03-02T15:33:18Z</time>
      </trkpt>
      <trkpt lat="43.3962" lon="6.09582">
        <ele>280.20001220703</ele>
        <time>2016-03-02T15:33:47Z</time>
      </trkpt>
      <trkpt lat="43.3962" lon="6.09582">
        <ele>280</ele>
        <time>2016-03-02T15:33:54Z</time>
      </trkpt>
      <trkpt lat="43.3962" lon="6.09582">
        <ele>279.39999389648</ele>
        <time>2016-03-02T15:34:40Z</time>
      </trkpt>
      <trkpt lat="43.39622" lon="6.09579">
        <ele>279.79998779297</ele>
        <time>2016-03-02T15:35:00Z</time>
      </trkpt>
      <trkpt lat="43.39629" lon="6.09556">
        <ele>279.60000610352</ele>
        <time>2016-03-02T15:35:06Z</time>
      </trkpt>
      <trkpt lat="43.39637" lon="6.09542">
        <ele>278.60000610352</ele>
        <time>2016-03-02T15:35:09Z</time>
      </trkpt>
      <trkpt lat="43.39642" lon="6.09536">
        <ele>278</ele>
        <time>2016-03-02T15:35:10Z</time>
      </trkpt>
      <trkpt lat="43.39645" lon="6.09531">
        <ele>277.39999389648</ele>
        <time>2016-03-02T15:35:11Z</time>
      </trkpt>
      <trkpt lat="43.39653" lon="6.09518">
        <ele>276.60000610352</ele>
        <time>2016-03-02T15:35:13Z</time>
      </trkpt>
      <trkpt lat="43.39657" lon="6.09511">
        <ele>275.79998779297</ele>
        <time>2016-03-02T15:35:14Z</time>
      </trkpt>
      <trkpt lat="43.39664" lon="6.09494">
        <ele>274.60000610352</ele>
        <time>2016-03-02T15:35:16Z</time>
      </trkpt>
      <trkpt lat="43.39669" lon="6.09479">
        <ele>272.39999389648</ele>
        <time>2016-03-02T15:35:18Z</time>
      </trkpt>
      <trkpt lat="43.39671" lon="6.09469">
        <ele>271.20001220703</ele>
        <time>2016-03-02T15:35:20Z</time>
      </trkpt>
      <trkpt lat="43.39673" lon="6.09463">
        <ele>270.39999389648</ele>
        <time>2016-03-02T15:35:22Z</time>
      </trkpt>
      <trkpt lat="43.39676" lon="6.09462">
        <ele>270</ele>
        <time>2016-03-02T15:35:24Z</time>
      </trkpt>
      <trkpt lat="43.39692" lon="6.09463">
        <ele>267.39999389648</ele>
        <time>2016-03-02T15:35:28Z</time>
      </trkpt>
      <trkpt lat="43.39695" lon="6.09461">
        <ele>266</ele>
        <time>2016-03-02T15:35:29Z</time>
      </trkpt>
      <trkpt lat="43.39698" lon="6.09455">
        <ele>264.79998779297</ele>
        <time>2016-03-02T15:35:31Z</time>
      </trkpt>
      <trkpt lat="43.39705" lon="6.09446">
        <ele>264.60000610352</ele>
        <time>2016-03-02T15:35:45Z</time>
      </trkpt>
      <trkpt lat="43.39714" lon="6.0943">
        <ele>265.20001220703</ele>
        <time>2016-03-02T15:35:49Z</time>
      </trkpt>
      <trkpt lat="43.39733" lon="6.094">
        <ele>264.20001220703</ele>
        <time>2016-03-02T15:35:56Z</time>
      </trkpt>
      <trkpt lat="43.39737" lon="6.09389">
        <ele>263.60000610352</ele>
        <time>2016-03-02T15:35:58Z</time>
      </trkpt>
      <trkpt lat="43.3976" lon="6.09346">
        <ele>263.20001220703</ele>
        <time>2016-03-02T15:36:08Z</time>
      </trkpt>
      <trkpt lat="43.39776" lon="6.09314">
        <ele>263</ele>
        <time>2016-03-02T15:36:14Z</time>
      </trkpt>
      <trkpt lat="43.39782" lon="6.09292">
        <ele>263</ele>
        <time>2016-03-02T15:36:18Z</time>
      </trkpt>
      <trkpt lat="43.3979" lon="6.09265">
        <ele>263</ele>
        <time>2016-03-02T15:36:23Z</time>
      </trkpt>
      <trkpt lat="43.39796" lon="6.09221">
        <ele>263.39999389648</ele>
        <time>2016-03-02T15:36:31Z</time>
      </trkpt>
      <trkpt lat="43.39799" lon="6.09186">
        <ele>264</ele>
        <time>2016-03-02T15:36:37Z</time>
      </trkpt>
      <trkpt lat="43.39799" lon="6.09171">
        <ele>264.60000610352</ele>
        <time>2016-03-02T15:36:40Z</time>
      </trkpt>
      <trkpt lat="43.39801" lon="6.09144">
        <ele>265</ele>
        <time>2016-03-02T15:36:45Z</time>
      </trkpt>
      <trkpt lat="43.39804" lon="6.09124">
        <ele>265.79998779297</ele>
        <time>2016-03-02T15:36:49Z</time>
      </trkpt>
      <trkpt lat="43.3983" lon="6.09056">
        <ele>266.39999389648</ele>
        <time>2016-03-02T15:37:04Z</time>
      </trkpt>
      <trkpt lat="43.39833" lon="6.09052">
        <ele>266</ele>
        <time>2016-03-02T15:37:05Z</time>
      </trkpt>
      <trkpt lat="43.3985" lon="6.09035">
        <ele>265</ele>
        <time>2016-03-02T15:37:09Z</time>
      </trkpt>
      <trkpt lat="43.39873" lon="6.09009">
        <ele>264</ele>
        <time>2016-03-02T15:37:14Z</time>
      </trkpt>
      <trkpt lat="43.39895" lon="6.08998">
        <ele>263</ele>
        <time>2016-03-02T15:37:18Z</time>
      </trkpt>
      <trkpt lat="43.39901" lon="6.08998">
        <ele>262.60000610352</ele>
        <time>2016-03-02T15:37:19Z</time>
      </trkpt>
      <trkpt lat="43.39907" lon="6.08998">
        <ele>262.60000610352</ele>
        <time>2016-03-02T15:37:20Z</time>
      </trkpt>
      <trkpt lat="43.3994" lon="6.08993">
        <ele>261</ele>
        <time>2016-03-02T15:37:25Z</time>
      </trkpt>
      <trkpt lat="43.39955" lon="6.08989">
        <ele>259.79998779297</ele>
        <time>2016-03-02T15:37:27Z</time>
      </trkpt>
      <trkpt lat="43.39968" lon="6.08986">
        <ele>259.20001220703</ele>
        <time>2016-03-02T15:37:29Z</time>
      </trkpt>
      <trkpt lat="43.39981" lon="6.08984">
        <ele>258.79998779297</ele>
        <time>2016-03-02T15:37:31Z</time>
      </trkpt>
      <trkpt lat="43.40003" lon="6.08976">
        <ele>258.20001220703</ele>
        <time>2016-03-02T15:37:35Z</time>
      </trkpt>
      <trkpt lat="43.40013" lon="6.08972">
        <ele>257.60000610352</ele>
        <time>2016-03-02T15:37:37Z</time>
      </trkpt>
      <trkpt lat="43.4004" lon="6.08906">
        <ele>257.20001220703</ele>
        <time>2016-03-02T15:37:51Z</time>
      </trkpt>
      <trkpt lat="43.40064" lon="6.08836">
        <ele>257.60000610352</ele>
        <time>2016-03-02T15:38:07Z</time>
      </trkpt>
      <trkpt lat="43.40079" lon="6.08799">
        <ele>257.79998779297</ele>
        <time>2016-03-02T15:38:16Z</time>
      </trkpt>
      <trkpt lat="43.40099" lon="6.08729">
        <ele>256.79998779297</ele>
        <time>2016-03-02T15:38:30Z</time>
      </trkpt>
      <trkpt lat="43.40104" lon="6.087">
        <ele>256.60000610352</ele>
        <time>2016-03-02T15:38:35Z</time>
      </trkpt>
      <trkpt lat="43.40103" lon="6.08682">
        <ele>256.60000610352</ele>
        <time>2016-03-02T15:38:38Z</time>
      </trkpt>
      <trkpt lat="43.401" lon="6.08669">
        <ele>256.39999389648</ele>
        <time>2016-03-02T15:38:40Z</time>
      </trkpt>
      <trkpt lat="43.40099" lon="6.08662">
        <ele>255.80000305176</ele>
        <time>2016-03-02T15:38:41Z</time>
      </trkpt>
      <trkpt lat="43.401" lon="6.08653">
        <ele>255.39999389648</ele>
        <time>2016-03-02T15:38:42Z</time>
      </trkpt>
      <trkpt lat="43.40109" lon="6.08634">
        <ele>254</ele>
        <time>2016-03-02T15:38:45Z</time>
      </trkpt>
      <trkpt lat="43.40118" lon="6.08626">
        <ele>254</ele>
        <time>2016-03-02T15:38:47Z</time>
      </trkpt>
      <trkpt lat="43.40146" lon="6.086">
        <ele>253.60000610352</ele>
        <time>2016-03-02T15:38:53Z</time>
      </trkpt>
      <trkpt lat="43.40158" lon="6.08593">
        <ele>252.19999694824</ele>
        <time>2016-03-02T15:38:55Z</time>
      </trkpt>
      <trkpt lat="43.40162" lon="6.0859">
        <ele>252.39999389648</ele>
        <time>2016-03-02T15:38:56Z</time>
      </trkpt>
      <trkpt lat="43.40169" lon="6.08551">
        <ele>253.39999389648</ele>
        <time>2016-03-02T15:39:02Z</time>
      </trkpt>
      <trkpt lat="43.40168" lon="6.08533">
        <ele>253.60000610352</ele>
        <time>2016-03-02T15:39:05Z</time>
      </trkpt>
      <trkpt lat="43.40169" lon="6.08521">
        <ele>253.60000610352</ele>
        <time>2016-03-02T15:39:07Z</time>
      </trkpt>
      <trkpt lat="43.4017" lon="6.08508">
        <ele>253.80000305176</ele>
        <time>2016-03-02T15:39:09Z</time>
      </trkpt>
      <trkpt lat="43.40173" lon="6.0849">
        <ele>253.80000305176</ele>
        <time>2016-03-02T15:39:12Z</time>
      </trkpt>
      <trkpt lat="43.40176" lon="6.08473">
        <ele>254</ele>
        <time>2016-03-02T15:39:15Z</time>
      </trkpt>
      <trkpt lat="43.40178" lon="6.08456">
        <ele>254.39999389648</ele>
        <time>2016-03-02T15:39:18Z</time>
      </trkpt>
      <trkpt lat="43.40178" lon="6.0845">
        <ele>254.60000610352</ele>
        <time>2016-03-02T15:39:19Z</time>
      </trkpt>
      <trkpt lat="43.4018" lon="6.0842">
        <ele>254.19999694824</ele>
        <time>2016-03-02T15:39:24Z</time>
      </trkpt>
      <trkpt lat="43.40181" lon="6.08344">
        <ele>254.19999694824</ele>
        <time>2016-03-02T15:39:35Z</time>
      </trkpt>
      <trkpt lat="43.40182" lon="6.08329">
        <ele>253.39999389648</ele>
        <time>2016-03-02T15:39:37Z</time>
      </trkpt>
      <trkpt lat="43.40185" lon="6.08297">
        <ele>253.60000610352</ele>
        <time>2016-03-02T15:39:42Z</time>
      </trkpt>
      <trkpt lat="43.40189" lon="6.08278">
        <ele>253</ele>
        <time>2016-03-02T15:39:46Z</time>
      </trkpt>
      <trkpt lat="43.40189" lon="6.08272">
        <ele>253</ele>
        <time>2016-03-02T15:39:48Z</time>
      </trkpt>
      <trkpt lat="43.40187" lon="6.08269">
        <ele>252.80000305176</ele>
        <time>2016-03-02T15:39:56Z</time>
      </trkpt>
      <trkpt lat="43.40187" lon="6.08268">
        <ele>252.80000305176</ele>
        <time>2016-03-02T15:40:01Z</time>
      </trkpt>
      <trkpt lat="43.40187" lon="6.08268">
        <ele>252.39999389648</ele>
        <time>2016-03-02T15:40:10Z</time>
      </trkpt>
      <trkpt lat="43.40187" lon="6.08268">
        <ele>253</ele>
        <time>2016-03-02T15:40:21Z</time>
      </trkpt>
      <trkpt lat="43.40187" lon="6.08268">
        <ele>253.60000610352</ele>
        <time>2016-03-02T15:40:27Z</time>
      </trkpt>
      <trkpt lat="43.40187" lon="6.08268">
        <ele>252.80000305176</ele>
        <time>2016-03-02T15:40:35Z</time>
      </trkpt>
      <trkpt lat="43.40186" lon="6.08267">
        <ele>252.60000610352</ele>
        <time>2016-03-02T15:40:47Z</time>
      </trkpt>
      <trkpt lat="43.40186" lon="6.08257">
        <ele>252.60000610352</ele>
        <time>2016-03-02T15:41:02Z</time>
      </trkpt>
      <trkpt lat="43.40184" lon="6.08236">
        <ele>252.19999694824</ele>
        <time>2016-03-02T15:41:06Z</time>
      </trkpt>
      <trkpt lat="43.4019" lon="6.08207">
        <ele>253.19999694824</ele>
        <time>2016-03-02T15:41:11Z</time>
      </trkpt>
      <trkpt lat="43.40194" lon="6.08193">
        <ele>253</ele>
        <time>2016-03-02T15:41:13Z</time>
      </trkpt>
      <trkpt lat="43.40199" lon="6.08158">
        <ele>252</ele>
        <time>2016-03-02T15:41:18Z</time>
      </trkpt>
      <trkpt lat="43.402" lon="6.08144">
        <ele>251.39999389648</ele>
        <time>2016-03-02T15:41:20Z</time>
      </trkpt>
      <trkpt lat="43.40199" lon="6.08132">
        <ele>250.80000305176</ele>
        <time>2016-03-02T15:41:22Z</time>
      </trkpt>
      <trkpt lat="43.40197" lon="6.08125">
        <ele>250.60000610352</ele>
        <time>2016-03-02T15:41:24Z</time>
      </trkpt>
      <trkpt lat="43.40193" lon="6.08116">
        <ele>250</ele>
        <time>2016-03-02T15:41:29Z</time>
      </trkpt>
      <trkpt lat="43.40192" lon="6.08096">
        <ele>249.60000610352</ele>
        <time>2016-03-02T15:41:33Z</time>
      </trkpt>
      <trkpt lat="43.4021" lon="6.08058">
        <ele>248.80000305176</ele>
        <time>2016-03-02T15:41:40Z</time>
      </trkpt>
      <trkpt lat="43.40224" lon="6.08039">
        <ele>248.39999389648</ele>
        <time>2016-03-02T15:41:44Z</time>
      </trkpt>
      <trkpt lat="43.40236" lon="6.08025">
        <ele>247.39999389648</ele>
        <time>2016-03-02T15:41:47Z</time>
      </trkpt>
      <trkpt lat="43.40251" lon="6.08005">
        <ele>247</ele>
        <time>2016-03-02T15:41:51Z</time>
      </trkpt>
      <trkpt lat="43.40266" lon="6.07982">
        <ele>246.39999389648</ele>
        <time>2016-03-02T15:41:55Z</time>
      </trkpt>
      <trkpt lat="43.4027" lon="6.07976">
        <ele>246.39999389648</ele>
        <time>2016-03-02T15:41:56Z</time>
      </trkpt>
      <trkpt lat="43.40279" lon="6.07959">
        <ele>245.19999694824</ele>
        <time>2016-03-02T15:41:59Z</time>
      </trkpt>
      <trkpt lat="43.40293" lon="6.07903">
        <ele>244.80000305176</ele>
        <time>2016-03-02T15:42:07Z</time>
      </trkpt>
      <trkpt lat="43.40295" lon="6.07889">
        <ele>244</ele>
        <time>2016-03-02T15:42:09Z</time>
      </trkpt>
      <trkpt lat="43.40303" lon="6.07824">
        <ele>243</ele>
        <time>2016-03-02T15:42:18Z</time>
      </trkpt>
      <trkpt lat="43.4031" lon="6.07765">
        <ele>241.60000610352</ele>
        <time>2016-03-02T15:42:27Z</time>
      </trkpt>
      <trkpt lat="43.40311" lon="6.07752">
        <ele>241.80000305176</ele>
        <time>2016-03-02T15:42:29Z</time>
      </trkpt>
      <trkpt lat="43.40323" lon="6.07711">
        <ele>240.80000305176</ele>
        <time>2016-03-02T15:42:35Z</time>
      </trkpt>
      <trkpt lat="43.40326" lon="6.07704">
        <ele>240.60000610352</ele>
        <time>2016-03-02T15:42:36Z</time>
      </trkpt>
      <trkpt lat="43.40343" lon="6.07681">
        <ele>240</ele>
        <time>2016-03-02T15:42:40Z</time>
      </trkpt>
      <trkpt lat="43.40358" lon="6.07665">
        <ele>240</ele>
        <time>2016-03-02T15:42:43Z</time>
      </trkpt>
      <trkpt lat="43.40366" lon="6.0765">
        <ele>240.19999694824</ele>
        <time>2016-03-02T15:42:45Z</time>
      </trkpt>
      <trkpt lat="43.40372" lon="6.07626">
        <ele>239.80000305176</ele>
        <time>2016-03-02T15:42:48Z</time>
      </trkpt>
      <trkpt lat="43.40374" lon="6.0761">
        <ele>239.39999389648</ele>
        <time>2016-03-02T15:42:51Z</time>
      </trkpt>
      <trkpt lat="43.40374" lon="6.07576">
        <ele>240.19999694824</ele>
        <time>2016-03-02T15:42:57Z</time>
      </trkpt>
      <trkpt lat="43.40375" lon="6.07539">
        <ele>240.39999389648</ele>
        <time>2016-03-02T15:43:04Z</time>
      </trkpt>
      <trkpt lat="43.4038" lon="6.07493">
        <ele>241</ele>
        <time>2016-03-02T15:43:13Z</time>
      </trkpt>
      <trkpt lat="43.40385" lon="6.07468">
        <ele>241.19999694824</ele>
        <time>2016-03-02T15:43:18Z</time>
      </trkpt>
      <trkpt lat="43.40392" lon="6.07392">
        <ele>240</ele>
        <time>2016-03-02T15:43:34Z</time>
      </trkpt>
      <trkpt lat="43.40387" lon="6.07347">
        <ele>239.39999389648</ele>
        <time>2016-03-02T15:43:42Z</time>
      </trkpt>
      <trkpt lat="43.40383" lon="6.07318">
        <ele>238.80000305176</ele>
        <time>2016-03-02T15:43:47Z</time>
      </trkpt>
      <trkpt lat="43.40382" lon="6.07312">
        <ele>238.39999389648</ele>
        <time>2016-03-02T15:43:48Z</time>
      </trkpt>
      <trkpt lat="43.40382" lon="6.07305">
        <ele>238.19999694824</ele>
        <time>2016-03-02T15:43:49Z</time>
      </trkpt>
      <trkpt lat="43.40394" lon="6.07286">
        <ele>237.19999694824</ele>
        <time>2016-03-02T15:43:53Z</time>
      </trkpt>
      <trkpt lat="43.40419" lon="6.07285">
        <ele>235.80000305176</ele>
        <time>2016-03-02T15:43:57Z</time>
      </trkpt>
      <trkpt lat="43.40433" lon="6.07284">
        <ele>235</ele>
        <time>2016-03-02T15:43:59Z</time>
      </trkpt>
      <trkpt lat="43.4044" lon="6.07284">
        <ele>234.80000305176</ele>
        <time>2016-03-02T15:44:00Z</time>
      </trkpt>
      <trkpt lat="43.40471" lon="6.07282">
        <ele>233.39999389648</ele>
        <time>2016-03-02T15:44:04Z</time>
      </trkpt>
      <trkpt lat="43.40498" lon="6.07282">
        <ele>233</ele>
        <time>2016-03-02T15:44:08Z</time>
      </trkpt>
      <trkpt lat="43.40513" lon="6.07293">
        <ele>232.19999694824</ele>
        <time>2016-03-02T15:44:11Z</time>
      </trkpt>
      <trkpt lat="43.40545" lon="6.07301">
        <ele>232</ele>
        <time>2016-03-02T15:44:18Z</time>
      </trkpt>
      <trkpt lat="43.40561" lon="6.07305">
        <ele>231.39999389648</ele>
        <time>2016-03-02T15:44:28Z</time>
      </trkpt>
      <trkpt lat="43.40561" lon="6.07305">
        <ele>231</ele>
        <time>2016-03-02T15:44:48Z</time>
      </trkpt>
      <trkpt lat="43.40561" lon="6.07305">
        <ele>232</ele>
        <time>2016-03-02T15:45:40Z</time>
      </trkpt>
      <trkpt lat="43.40565" lon="6.07306">
        <ele>231.60000610352</ele>
        <time>2016-03-02T15:45:45Z</time>
      </trkpt>
      <trkpt lat="43.40575" lon="6.07305">
        <ele>231.60000610352</ele>
        <time>2016-03-02T15:45:48Z</time>
      </trkpt>
      <trkpt lat="43.40584" lon="6.07302">
        <ele>231.60000610352</ele>
        <time>2016-03-02T15:45:50Z</time>
      </trkpt>
      <trkpt lat="43.40593" lon="6.07301">
        <ele>231.39999389648</ele>
        <time>2016-03-02T15:45:52Z</time>
      </trkpt>
      <trkpt lat="43.40614" lon="6.07323">
        <ele>230.80000305176</ele>
        <time>2016-03-02T15:45:57Z</time>
      </trkpt>
      <trkpt lat="43.40619" lon="6.07332">
        <ele>230.39999389648</ele>
        <time>2016-03-02T15:45:59Z</time>
      </trkpt>
      <trkpt lat="43.40641" lon="6.0733">
        <ele>230</ele>
        <time>2016-03-02T15:46:06Z</time>
      </trkpt>
      <trkpt lat="43.40645" lon="6.07325">
        <ele>230</ele>
        <time>2016-03-02T15:46:07Z</time>
      </trkpt>
      <trkpt lat="43.40659" lon="6.07316">
        <ele>229.39999389648</ele>
        <time>2016-03-02T15:46:10Z</time>
      </trkpt>
      <trkpt lat="43.40702" lon="6.07291">
        <ele>228.19999694824</ele>
        <time>2016-03-02T15:46:18Z</time>
      </trkpt>
      <trkpt lat="43.40725" lon="6.07279">
        <ele>227.60000610352</ele>
        <time>2016-03-02T15:46:22Z</time>
      </trkpt>
      <trkpt lat="43.40735" lon="6.07272">
        <ele>227</ele>
        <time>2016-03-02T15:46:24Z</time>
      </trkpt>
      <trkpt lat="43.40785" lon="6.0724">
        <ele>226.19999694824</ele>
        <time>2016-03-02T15:46:34Z</time>
      </trkpt>
      <trkpt lat="43.40804" lon="6.0722">
        <ele>226.80000305176</ele>
        <time>2016-03-02T15:46:38Z</time>
      </trkpt>
      <trkpt lat="43.40831" lon="6.07176">
        <ele>226.39999389648</ele>
        <time>2016-03-02T15:46:45Z</time>
      </trkpt>
      <trkpt lat="43.40839" lon="6.07155">
        <ele>226.19999694824</ele>
        <time>2016-03-02T15:46:48Z</time>
      </trkpt>
      <trkpt lat="43.40849" lon="6.0711">
        <ele>226.19999694824</ele>
        <time>2016-03-02T15:46:54Z</time>
      </trkpt>
      <trkpt lat="43.40851" lon="6.0708">
        <ele>226.80000305176</ele>
        <time>2016-03-02T15:46:58Z</time>
      </trkpt>
      <trkpt lat="43.40848" lon="6.07042">
        <ele>226.60000610352</ele>
        <time>2016-03-02T15:47:04Z</time>
      </trkpt>
      <trkpt lat="43.40847" lon="6.07015">
        <ele>226.19999694824</ele>
        <time>2016-03-02T15:47:10Z</time>
      </trkpt>
      <trkpt lat="43.40859" lon="6.0701">
        <ele>226.80000305176</ele>
        <time>2016-03-02T15:47:14Z</time>
      </trkpt>
      <trkpt lat="43.40893" lon="6.07003">
        <ele>225.19999694824</ele>
        <time>2016-03-02T15:47:24Z</time>
      </trkpt>
      <trkpt lat="43.409" lon="6.06999">
        <ele>225</ele>
        <time>2016-03-02T15:47:26Z</time>
      </trkpt>
      <trkpt lat="43.40909" lon="6.06976">
        <ele>226</ele>
        <time>2016-03-02T15:47:31Z</time>
      </trkpt>
      <trkpt lat="43.40914" lon="6.06959">
        <ele>225</ele>
        <time>2016-03-02T15:47:35Z</time>
      </trkpt>
      <trkpt lat="43.40936" lon="6.06952">
        <ele>225.60000610352</ele>
        <time>2016-03-02T15:47:40Z</time>
      </trkpt>
      <trkpt lat="43.40985" lon="6.06937">
        <ele>225.60000610352</ele>
        <time>2016-03-02T15:47:51Z</time>
      </trkpt>
      <trkpt lat="43.41022" lon="6.06898">
        <ele>226</ele>
        <time>2016-03-02T15:48:05Z</time>
      </trkpt>
      <trkpt lat="43.41028" lon="6.06892">
        <ele>226.19999694824</ele>
        <time>2016-03-02T15:48:07Z</time>
      </trkpt>
      <trkpt lat="43.41045" lon="6.06883">
        <ele>226.60000610352</ele>
        <time>2016-03-02T15:48:12Z</time>
      </trkpt>
      <trkpt lat="43.41052" lon="6.0688">
        <ele>227</ele>
        <time>2016-03-02T15:48:15Z</time>
      </trkpt>
      <trkpt lat="43.41054" lon="6.06879">
        <ele>227.19999694824</ele>
        <time>2016-03-02T15:48:16Z</time>
      </trkpt>
      <trkpt lat="43.41061" lon="6.06876">
        <ele>227.80000305176</ele>
        <time>2016-03-02T15:48:19Z</time>
      </trkpt>
      <trkpt lat="43.41064" lon="6.06874">
        <ele>227.80000305176</ele>
        <time>2016-03-02T15:48:21Z</time>
      </trkpt>
      <trkpt lat="43.41068" lon="6.06856">
        <ele>227</ele>
        <time>2016-03-02T15:48:25Z</time>
      </trkpt>
      <trkpt lat="43.41069" lon="6.06849">
        <ele>226.19999694824</ele>
        <time>2016-03-02T15:48:27Z</time>
      </trkpt>
      <trkpt lat="43.41071" lon="6.06844">
        <ele>226</ele>
        <time>2016-03-02T15:48:30Z</time>
      </trkpt>
      <trkpt lat="43.41084" lon="6.068">
        <ele>226.39999389648</ele>
        <time>2016-03-02T15:48:43Z</time>
      </trkpt>
      <trkpt lat="43.4111" lon="6.06737">
        <ele>226.60000610352</ele>
        <time>2016-03-02T15:48:58Z</time>
      </trkpt>
      <trkpt lat="43.41128" lon="6.06726">
        <ele>226.39999389648</ele>
        <time>2016-03-02T15:49:03Z</time>
      </trkpt>
      <trkpt lat="43.41171" lon="6.06721">
        <ele>227.39999389648</ele>
        <time>2016-03-02T15:49:14Z</time>
      </trkpt>
      <trkpt lat="43.41201" lon="6.06722">
        <ele>227.39999389648</ele>
        <time>2016-03-02T15:49:22Z</time>
      </trkpt>
      <trkpt lat="43.41207" lon="6.06722">
        <ele>228</ele>
        <time>2016-03-02T15:49:24Z</time>
      </trkpt>
      <trkpt lat="43.41221" lon="6.0672">
        <ele>228</ele>
        <time>2016-03-02T15:49:28Z</time>
      </trkpt>
      <trkpt lat="43.41233" lon="6.06719">
        <ele>228.80000305176</ele>
        <time>2016-03-02T15:49:32Z</time>
      </trkpt>
      <trkpt lat="43.41244" lon="6.06716">
        <ele>229.39999389648</ele>
        <time>2016-03-02T15:49:45Z</time>
      </trkpt>
      <trkpt lat="43.41248" lon="6.06721">
        <ele>229.19999694824</ele>
        <time>2016-03-02T15:49:55Z</time>
      </trkpt>
      <trkpt lat="43.41257" lon="6.06732">
        <ele>229.80000305176</ele>
        <time>2016-03-02T15:50:01Z</time>
      </trkpt>
      <trkpt lat="43.4128" lon="6.06772">
        <ele>231</ele>
        <time>2016-03-02T15:50:12Z</time>
      </trkpt>
      <trkpt lat="43.41319" lon="6.0681">
        <ele>232.19999694824</ele>
        <time>2016-03-02T15:50:25Z</time>
      </trkpt>
      <trkpt lat="43.4137" lon="6.06837">
        <ele>233</ele>
        <time>2016-03-02T15:50:42Z</time>
      </trkpt>
      <trkpt lat="43.41377" lon="6.0684">
        <ele>233.19999694824</ele>
        <time>2016-03-02T15:50:44Z</time>
      </trkpt>
      <trkpt lat="43.41394" lon="6.06854">
        <ele>233</ele>
        <time>2016-03-02T15:50:50Z</time>
      </trkpt>
      <trkpt lat="43.41405" lon="6.06866">
        <ele>232.60000610352</ele>
        <time>2016-03-02T15:50:54Z</time>
      </trkpt>
      <trkpt lat="43.41413" lon="6.06885">
        <ele>232.19999694824</ele>
        <time>2016-03-02T15:51:00Z</time>
      </trkpt>
      <trkpt lat="43.41439" lon="6.06928">
        <ele>232.80000305176</ele>
        <time>2016-03-02T15:51:12Z</time>
      </trkpt>
      <trkpt lat="43.41447" lon="6.06928">
        <ele>232.80000305176</ele>
        <time>2016-03-02T15:51:14Z</time>
      </trkpt>
      <trkpt lat="43.41478" lon="6.06948">
        <ele>232.80000305176</ele>
        <time>2016-03-02T15:51:22Z</time>
      </trkpt>
      <trkpt lat="43.41493" lon="6.06965">
        <ele>232.60000610352</ele>
        <time>2016-03-02T15:51:28Z</time>
      </trkpt>
      <trkpt lat="43.41515" lon="6.06974">
        <ele>232.39999389648</ele>
        <time>2016-03-02T15:51:38Z</time>
      </trkpt>
      <trkpt lat="43.41541" lon="6.06972">
        <ele>233</ele>
        <time>2016-03-02T15:51:45Z</time>
      </trkpt>
      <trkpt lat="43.41565" lon="6.06967">
        <ele>233.39999389648</ele>
        <time>2016-03-02T15:51:52Z</time>
      </trkpt>
      <trkpt lat="43.41568" lon="6.06967">
        <ele>233.80000305176</ele>
        <time>2016-03-02T15:51:54Z</time>
      </trkpt>
      <trkpt lat="43.4157" lon="6.06983">
        <ele>233.80000305176</ele>
        <time>2016-03-02T15:51:59Z</time>
      </trkpt>
      <trkpt lat="43.41577" lon="6.07034">
        <ele>233.39999389648</ele>
        <time>2016-03-02T15:52:12Z</time>
      </trkpt>
      <trkpt lat="43.41578" lon="6.07037">
        <ele>233.60000610352</ele>
        <time>2016-03-02T15:52:26Z</time>
      </trkpt>
      <trkpt lat="43.41578" lon="6.07037">
        <ele>233.39999389648</ele>
        <time>2016-03-02T15:52:31Z</time>
      </trkpt>
    </trkseg>
  </trk>
</gpx>